<?xml version="1.0" encoding="UTF-8" standalone="no" ?><gpx xmlns="http://www.topografix.com/GPX/1/1" xmlns:gpxx="http://www.garmin.com/xmlschemas/GpxExtensions/v3" xmlns:wptx1="http://www.garmin.com/xmlschemas/WaypointExtension/v1" xmlns:gpxtpx="http://www.garmin.com/xmlschemas/TrackPointExtension/v1" creator="GuideVTT.com" version="1.1" xmlns:xsi="http://www.w3.org/2001/XMLSchema-instance" xsi:schemaLocation="http://www.topografix.com/GPX/1/1 http://www.topografix.com/GPX/1/1/gpx.xsd http://www.garmin.com/xmlschemas/GpxExtensions/v3 http://www8.garmin.com/xmlschemas/GpxExtensionsv3.xsd http://www.garmin.com/xmlschemas/WaypointExtension/v1 http://www8.garmin.com/xmlschemas/WaypointExtensionv1.xsd http://www.garmin.com/xmlschemas/TrackPointExtension/v1 http://www.garmin.com/xmlschemas/TrackPointExtensionv1.xsd">
<metadata><link href="http://www.garmin.com"><text>Garmin International</text></link><time>2013-06-22T15:13:50Z</time></metadata>
<trk><name>rhone.gpx</name><extensions><gpxx:TrackExtension><gpxx:DisplayColor>Cyan</gpxx:DisplayColor></gpxx:TrackExtension></extensions><trkseg>
<trkpt lat="46.1706985" lon="6.1157915"><ele></ele><time>2015-4-16T8:20:56Z</time></trkpt>
<trkpt lat="46.1707025" lon="6.1157910"><ele></ele><time>2015-4-16T8:20:59Z</time></trkpt>
<trkpt lat="46.1706956" lon="6.1158089"><ele></ele><time>2015-4-16T8:21:2Z</time></trkpt>
<trkpt lat="46.1707303" lon="6.1158375"><ele></ele><time>2015-4-16T8:21:5Z</time></trkpt>
<trkpt lat="46.1708054" lon="6.1157588"><ele></ele><time>2015-4-16T8:21:8Z</time></trkpt>
<trkpt lat="46.1708364" lon="6.1157218"><ele></ele><time>2015-4-16T8:21:11Z</time></trkpt>
<trkpt lat="46.1709026" lon="6.1155835"><ele></ele><time>2015-4-16T8:21:14Z</time></trkpt>
<trkpt lat="46.1710081" lon="6.1154267"><ele></ele><time>2015-4-16T8:21:17Z</time></trkpt>
<trkpt lat="46.1711692" lon="6.1151987"><ele></ele><time>2015-4-16T8:21:20Z</time></trkpt>
<trkpt lat="46.1711958" lon="6.1151537"><ele></ele><time>2015-4-16T8:21:23Z</time></trkpt>
<trkpt lat="46.1715170" lon="6.1146979"><ele></ele><time>2015-4-16T8:21:26Z</time></trkpt>
<trkpt lat="46.1717254" lon="6.1143684"><ele></ele><time>2015-4-16T8:21:29Z</time></trkpt>
<trkpt lat="46.1719385" lon="6.1141180"><ele></ele><time>2015-4-16T8:21:32Z</time></trkpt>
<trkpt lat="46.1721254" lon="6.1137816"><ele></ele><time>2015-4-16T8:21:35Z</time></trkpt>
<trkpt lat="46.1722778" lon="6.1136464"><ele></ele><time>2015-4-16T8:21:38Z</time></trkpt>
<trkpt lat="46.1724010" lon="6.1134747"><ele></ele><time>2015-4-16T8:21:41Z</time></trkpt>
<trkpt lat="46.1725362" lon="6.1133187"><ele></ele><time>2015-4-16T8:21:44Z</time></trkpt>
<trkpt lat="46.1725784" lon="6.1132802"><ele></ele><time>2015-4-16T8:21:47Z</time></trkpt>
<trkpt lat="46.1726692" lon="6.1131563"><ele></ele><time>2015-4-16T8:21:50Z</time></trkpt>
<trkpt lat="46.1727418" lon="6.1130697"><ele></ele><time>2015-4-16T8:21:53Z</time></trkpt>
<trkpt lat="46.1729704" lon="6.1127888"><ele></ele><time>2015-4-16T8:21:56Z</time></trkpt>
<trkpt lat="46.1730479" lon="6.1126890"><ele></ele><time>2015-4-16T8:21:59Z</time></trkpt>
<trkpt lat="46.1731344" lon="6.1126157"><ele></ele><time>2015-4-16T8:22:2Z</time></trkpt>
<trkpt lat="46.1731701" lon="6.1125612"><ele></ele><time>2015-4-16T8:22:5Z</time></trkpt>
<trkpt lat="46.1731636" lon="6.1125761"><ele></ele><time>2015-4-16T8:22:8Z</time></trkpt>
<trkpt lat="46.1731842" lon="6.1125390"><ele></ele><time>2015-4-16T8:22:11Z</time></trkpt>
<trkpt lat="46.1731886" lon="6.1124724"><ele></ele><time>2015-4-16T8:22:14Z</time></trkpt>
<trkpt lat="46.1731220" lon="6.1122897"><ele></ele><time>2015-4-16T8:22:17Z</time></trkpt>
<trkpt lat="46.1728344" lon="6.1117120"><ele></ele><time>2015-4-16T8:22:20Z</time></trkpt>
<trkpt lat="46.1725223" lon="6.1110215"><ele></ele><time>2015-4-16T8:22:23Z</time></trkpt>
<trkpt lat="46.1724714" lon="6.1108759"><ele></ele><time>2015-4-16T8:22:26Z</time></trkpt>
<trkpt lat="46.1722115" lon="6.1102532"><ele></ele><time>2015-4-16T8:22:29Z</time></trkpt>
<trkpt lat="46.1721857" lon="6.1101917"><ele></ele><time>2015-4-16T8:22:32Z</time></trkpt>
<trkpt lat="46.1719176" lon="6.1096171"><ele></ele><time>2015-4-16T8:22:35Z</time></trkpt>
<trkpt lat="46.1718228" lon="6.1093359"><ele></ele><time>2015-4-16T8:22:38Z</time></trkpt>
<trkpt lat="46.1717510" lon="6.1091143"><ele></ele><time>2015-4-16T8:22:41Z</time></trkpt>
<trkpt lat="46.1714926" lon="6.1085780"><ele></ele><time>2015-4-16T8:22:44Z</time></trkpt>
<trkpt lat="46.1711932" lon="6.1079123"><ele></ele><time>2015-4-16T8:22:47Z</time></trkpt>
<trkpt lat="46.1710979" lon="6.1077277"><ele></ele><time>2015-4-16T8:22:50Z</time></trkpt>
<trkpt lat="46.1709763" lon="6.1074282"><ele></ele><time>2015-4-16T8:22:53Z</time></trkpt>
<trkpt lat="46.1709499" lon="6.1073562"><ele></ele><time>2015-4-16T8:22:56Z</time></trkpt>
<trkpt lat="46.1706729" lon="6.1068236"><ele></ele><time>2015-4-16T8:22:59Z</time></trkpt>
<trkpt lat="46.1703547" lon="6.1061155"><ele></ele><time>2015-4-16T8:23:2Z</time></trkpt>
<trkpt lat="46.1702982" lon="6.1059822"><ele></ele><time>2015-4-16T8:23:5Z</time></trkpt>
<trkpt lat="46.1702685" lon="6.1059143"><ele></ele><time>2015-4-16T8:23:8Z</time></trkpt>
<trkpt lat="46.1699789" lon="6.1052495"><ele></ele><time>2015-4-16T8:23:11Z</time></trkpt>
<trkpt lat="46.1698261" lon="6.1049171"><ele></ele><time>2015-4-16T8:23:14Z</time></trkpt>
<trkpt lat="46.1695676" lon="6.1043831"><ele></ele><time>2015-4-16T8:23:17Z</time></trkpt>
<trkpt lat="46.1695376" lon="6.1043182"><ele></ele><time>2015-4-16T8:23:20Z</time></trkpt>
<trkpt lat="46.1695057" lon="6.1042476"><ele></ele><time>2015-4-16T8:23:23Z</time></trkpt>
<trkpt lat="46.1694779" lon="6.1041790"><ele></ele><time>2015-4-16T8:23:26Z</time></trkpt>
<trkpt lat="46.1694490" lon="6.1041101"><ele></ele><time>2015-4-16T8:23:29Z</time></trkpt>
<trkpt lat="46.1693863" lon="6.1039767"><ele></ele><time>2015-4-16T8:23:32Z</time></trkpt>
<trkpt lat="46.1690503" lon="6.1032765"><ele></ele><time>2015-4-16T8:23:35Z</time></trkpt>
<trkpt lat="46.1688169" lon="6.1027764"><ele></ele><time>2015-4-16T8:23:38Z</time></trkpt>
<trkpt lat="46.1685534" lon="6.1022073"><ele></ele><time>2015-4-16T8:23:41Z</time></trkpt>
<trkpt lat="46.1685547" lon="6.1021354"><ele></ele><time>2015-4-16T8:23:44Z</time></trkpt>
<trkpt lat="46.1686511" lon="6.1019523"><ele></ele><time>2015-4-16T8:23:47Z</time></trkpt>
<trkpt lat="46.1686916" lon="6.1019052"><ele></ele><time>2015-4-16T8:23:50Z</time></trkpt>
<trkpt lat="46.1687292" lon="6.1018626"><ele></ele><time>2015-4-16T8:23:53Z</time></trkpt>
<trkpt lat="46.1687677" lon="6.1018202"><ele></ele><time>2015-4-16T8:23:56Z</time></trkpt>
<trkpt lat="46.1688079" lon="6.1017754"><ele></ele><time>2015-4-16T8:23:59Z</time></trkpt>
<trkpt lat="46.1688880" lon="6.1016850"><ele></ele><time>2015-4-16T8:24:2Z</time></trkpt>
<trkpt lat="46.1689272" lon="6.1016421"><ele></ele><time>2015-4-16T8:24:5Z</time></trkpt>
<trkpt lat="46.1689675" lon="6.1015994"><ele></ele><time>2015-4-16T8:24:8Z</time></trkpt>
<trkpt lat="46.1694161" lon="6.1011029"><ele></ele><time>2015-4-16T8:24:11Z</time></trkpt>
<trkpt lat="46.1694576" lon="6.1010570"><ele></ele><time>2015-4-16T8:24:14Z</time></trkpt>
<trkpt lat="46.1695851" lon="6.1009231"><ele></ele><time>2015-4-16T8:24:17Z</time></trkpt>
<trkpt lat="46.1696679" lon="6.1008277"><ele></ele><time>2015-4-16T8:24:20Z</time></trkpt>
<trkpt lat="46.1697134" lon="6.1007830"><ele></ele><time>2015-4-16T8:24:23Z</time></trkpt>
<trkpt lat="46.1698001" lon="6.1006845"><ele></ele><time>2015-4-16T8:24:26Z</time></trkpt>
<trkpt lat="46.1698445" lon="6.1006400"><ele></ele><time>2015-4-16T8:24:29Z</time></trkpt>
<trkpt lat="46.1699750" lon="6.1005126"><ele></ele><time>2015-4-16T8:24:32Z</time></trkpt>
<trkpt lat="46.1700149" lon="6.1004702"><ele></ele><time>2015-4-16T8:24:35Z</time></trkpt>
<trkpt lat="46.1700554" lon="6.1004253"><ele></ele><time>2015-4-16T8:24:38Z</time></trkpt>
<trkpt lat="46.1700956" lon="6.1003800"><ele></ele><time>2015-4-16T8:24:41Z</time></trkpt>
<trkpt lat="46.1702936" lon="6.1001598"><ele></ele><time>2015-4-16T8:24:44Z</time></trkpt>
<trkpt lat="46.1703770" lon="6.1000782"><ele></ele><time>2015-4-16T8:24:47Z</time></trkpt>
<trkpt lat="46.1704572" lon="6.0999912"><ele></ele><time>2015-4-16T8:24:50Z</time></trkpt>
<trkpt lat="46.1705381" lon="6.0998984"><ele></ele><time>2015-4-16T8:24:53Z</time></trkpt>
<trkpt lat="46.1708177" lon="6.0995846"><ele></ele><time>2015-4-16T8:24:56Z</time></trkpt>
<trkpt lat="46.1712038" lon="6.0991580"><ele></ele><time>2015-4-16T8:24:59Z</time></trkpt>
<trkpt lat="46.1714971" lon="6.0988197"><ele></ele><time>2015-4-16T8:25:2Z</time></trkpt>
<trkpt lat="46.1718160" lon="6.0985091"><ele></ele><time>2015-4-16T8:25:5Z</time></trkpt>
<trkpt lat="46.1719151" lon="6.0984157"><ele></ele><time>2015-4-16T8:25:8Z</time></trkpt>
<trkpt lat="46.1719658" lon="6.0983679"><ele></ele><time>2015-4-16T8:25:11Z</time></trkpt>
<trkpt lat="46.1720182" lon="6.0983197"><ele></ele><time>2015-4-16T8:25:14Z</time></trkpt>
<trkpt lat="46.1720740" lon="6.0982689"><ele></ele><time>2015-4-16T8:25:17Z</time></trkpt>
<trkpt lat="46.1721274" lon="6.0982205"><ele></ele><time>2015-4-16T8:25:20Z</time></trkpt>
<trkpt lat="46.1722428" lon="6.0981037"><ele></ele><time>2015-4-16T8:25:23Z</time></trkpt>
<trkpt lat="46.1723030" lon="6.0980437"><ele></ele><time>2015-4-16T8:25:26Z</time></trkpt>
<trkpt lat="46.1723659" lon="6.0979853"><ele></ele><time>2015-4-16T8:25:29Z</time></trkpt>
<trkpt lat="46.1724299" lon="6.0979276"><ele></ele><time>2015-4-16T8:25:32Z</time></trkpt>
<trkpt lat="46.1724979" lon="6.0978678"><ele></ele><time>2015-4-16T8:25:35Z</time></trkpt>
<trkpt lat="46.1725629" lon="6.0978061"><ele></ele><time>2015-4-16T8:25:38Z</time></trkpt>
<trkpt lat="46.1726278" lon="6.0977616"><ele></ele><time>2015-4-16T8:25:41Z</time></trkpt>
<trkpt lat="46.1726880" lon="6.0977067"><ele></ele><time>2015-4-16T8:25:44Z</time></trkpt>
<trkpt lat="46.1727421" lon="6.0976424"><ele></ele><time>2015-4-16T8:25:47Z</time></trkpt>
<trkpt lat="46.1728129" lon="6.0974842"><ele></ele><time>2015-4-16T8:25:50Z</time></trkpt>
<trkpt lat="46.1728391" lon="6.0973960"><ele></ele><time>2015-4-16T8:25:53Z</time></trkpt>
<trkpt lat="46.1728693" lon="6.0973033"><ele></ele><time>2015-4-16T8:25:56Z</time></trkpt>
<trkpt lat="46.1728986" lon="6.0972166"><ele></ele><time>2015-4-16T8:25:59Z</time></trkpt>
<trkpt lat="46.1729285" lon="6.0971289"><ele></ele><time>2015-4-16T8:26:2Z</time></trkpt>
<trkpt lat="46.1729546" lon="6.0970494"><ele></ele><time>2015-4-16T8:26:5Z</time></trkpt>
<trkpt lat="46.1729817" lon="6.0969681"><ele></ele><time>2015-4-16T8:26:8Z</time></trkpt>
<trkpt lat="46.1731883" lon="6.0963834"><ele></ele><time>2015-4-16T8:26:11Z</time></trkpt>
<trkpt lat="46.1734193" lon="6.0958815"><ele></ele><time>2015-4-16T8:26:14Z</time></trkpt>
<trkpt lat="46.1734561" lon="6.0958052"><ele></ele><time>2015-4-16T8:26:17Z</time></trkpt>
<trkpt lat="46.1734902" lon="6.0957258"><ele></ele><time>2015-4-16T8:26:20Z</time></trkpt>
<trkpt lat="46.1735223" lon="6.0956439"><ele></ele><time>2015-4-16T8:26:23Z</time></trkpt>
<trkpt lat="46.1735545" lon="6.0955634"><ele></ele><time>2015-4-16T8:26:26Z</time></trkpt>
<trkpt lat="46.1735733" lon="6.0954796"><ele></ele><time>2015-4-16T8:26:29Z</time></trkpt>
<trkpt lat="46.1735987" lon="6.0953174"><ele></ele><time>2015-4-16T8:26:32Z</time></trkpt>
<trkpt lat="46.1736208" lon="6.0951606"><ele></ele><time>2015-4-16T8:26:35Z</time></trkpt>
<trkpt lat="46.1736099" lon="6.0950020"><ele></ele><time>2015-4-16T8:26:38Z</time></trkpt>
<trkpt lat="46.1735383" lon="6.0945483"><ele></ele><time>2015-4-16T8:26:41Z</time></trkpt>
<trkpt lat="46.1735315" lon="6.0944758"><ele></ele><time>2015-4-16T8:26:44Z</time></trkpt>
<trkpt lat="46.1735586" lon="6.0942848"><ele></ele><time>2015-4-16T8:26:47Z</time></trkpt>
<trkpt lat="46.1736091" lon="6.0942069"><ele></ele><time>2015-4-16T8:26:50Z</time></trkpt>
<trkpt lat="46.1736422" lon="6.0941797"><ele></ele><time>2015-4-16T8:26:53Z</time></trkpt>
<trkpt lat="46.1736726" lon="6.0941469"><ele></ele><time>2015-4-16T8:26:56Z</time></trkpt>
<trkpt lat="46.1736995" lon="6.0941137"><ele></ele><time>2015-4-16T8:26:59Z</time></trkpt>
<trkpt lat="46.1737281" lon="6.0940810"><ele></ele><time>2015-4-16T8:27:2Z</time></trkpt>
<trkpt lat="46.1738446" lon="6.0939819"><ele></ele><time>2015-4-16T8:27:5Z</time></trkpt>
<trkpt lat="46.1738795" lon="6.0939628"><ele></ele><time>2015-4-16T8:27:8Z</time></trkpt>
<trkpt lat="46.1739169" lon="6.0939552"><ele></ele><time>2015-4-16T8:27:11Z</time></trkpt>
<trkpt lat="46.1739547" lon="6.0939521"><ele></ele><time>2015-4-16T8:27:14Z</time></trkpt>
<trkpt lat="46.1739923" lon="6.0939448"><ele></ele><time>2015-4-16T8:27:17Z</time></trkpt>
<trkpt lat="46.1740880" lon="6.0939286"><ele></ele><time>2015-4-16T8:27:20Z</time></trkpt>
<trkpt lat="46.1742486" lon="6.0938646"><ele></ele><time>2015-4-16T8:27:23Z</time></trkpt>
<trkpt lat="46.1743253" lon="6.0938484"><ele></ele><time>2015-4-16T8:27:26Z</time></trkpt>
<trkpt lat="46.1743629" lon="6.0938382"><ele></ele><time>2015-4-16T8:27:29Z</time></trkpt>
<trkpt lat="46.1745105" lon="6.0937990"><ele></ele><time>2015-4-16T8:27:32Z</time></trkpt>
<trkpt lat="46.1745413" lon="6.0937915"><ele></ele><time>2015-4-16T8:27:35Z</time></trkpt>
<trkpt lat="46.1745746" lon="6.0937792"><ele></ele><time>2015-4-16T8:27:38Z</time></trkpt>
<trkpt lat="46.1746093" lon="6.0937714"><ele></ele><time>2015-4-16T8:27:41Z</time></trkpt>
<trkpt lat="46.1746476" lon="6.0937543"><ele></ele><time>2015-4-16T8:27:44Z</time></trkpt>
<trkpt lat="46.1747966" lon="6.0937240"><ele></ele><time>2015-4-16T8:27:47Z</time></trkpt>
<trkpt lat="46.1750210" lon="6.0936925"><ele></ele><time>2015-4-16T8:27:50Z</time></trkpt>
<trkpt lat="46.1750520" lon="6.0936735"><ele></ele><time>2015-4-16T8:27:53Z</time></trkpt>
<trkpt lat="46.1750904" lon="6.0936537"><ele></ele><time>2015-4-16T8:27:56Z</time></trkpt>
<trkpt lat="46.1751378" lon="6.0936157"><ele></ele><time>2015-4-16T8:27:59Z</time></trkpt>
<trkpt lat="46.1752019" lon="6.0935794"><ele></ele><time>2015-4-16T8:28:2Z</time></trkpt>
<trkpt lat="46.1754310" lon="6.0934153"><ele></ele><time>2015-4-16T8:28:5Z</time></trkpt>
<trkpt lat="46.1757026" lon="6.0932157"><ele></ele><time>2015-4-16T8:28:8Z</time></trkpt>
<trkpt lat="46.1758306" lon="6.0931225"><ele></ele><time>2015-4-16T8:28:11Z</time></trkpt>
<trkpt lat="46.1758621" lon="6.0930985"><ele></ele><time>2015-4-16T8:28:14Z</time></trkpt>
<trkpt lat="46.1758928" lon="6.0930738"><ele></ele><time>2015-4-16T8:28:17Z</time></trkpt>
<trkpt lat="46.1759201" lon="6.0930497"><ele></ele><time>2015-4-16T8:28:20Z</time></trkpt>
<trkpt lat="46.1759495" lon="6.0930287"><ele></ele><time>2015-4-16T8:28:23Z</time></trkpt>
<trkpt lat="46.1760359" lon="6.0929674"><ele></ele><time>2015-4-16T8:28:26Z</time></trkpt>
<trkpt lat="46.1760861" lon="6.0929313"><ele></ele><time>2015-4-16T8:28:29Z</time></trkpt>
<trkpt lat="46.1761118" lon="6.0929092"><ele></ele><time>2015-4-16T8:28:32Z</time></trkpt>
<trkpt lat="46.1761368" lon="6.0928915"><ele></ele><time>2015-4-16T8:28:35Z</time></trkpt>
<trkpt lat="46.1761663" lon="6.0928731"><ele></ele><time>2015-4-16T8:28:38Z</time></trkpt>
<trkpt lat="46.1761935" lon="6.0928520"><ele></ele><time>2015-4-16T8:28:41Z</time></trkpt>
<trkpt lat="46.1762202" lon="6.0928280"><ele></ele><time>2015-4-16T8:28:44Z</time></trkpt>
<trkpt lat="46.1764294" lon="6.0926475"><ele></ele><time>2015-4-16T8:28:47Z</time></trkpt>
<trkpt lat="46.1764589" lon="6.0926315"><ele></ele><time>2015-4-16T8:28:50Z</time></trkpt>
<trkpt lat="46.1764872" lon="6.0926118"><ele></ele><time>2015-4-16T8:28:53Z</time></trkpt>
<trkpt lat="46.1765108" lon="6.0925927"><ele></ele><time>2015-4-16T8:28:56Z</time></trkpt>
<trkpt lat="46.1765332" lon="6.0925753"><ele></ele><time>2015-4-16T8:28:59Z</time></trkpt>
<trkpt lat="46.1765816" lon="6.0925353"><ele></ele><time>2015-4-16T8:29:2Z</time></trkpt>
<trkpt lat="46.1766474" lon="6.0924692"><ele></ele><time>2015-4-16T8:29:5Z</time></trkpt>
<trkpt lat="46.1768019" lon="6.0923556"><ele></ele><time>2015-4-16T8:29:8Z</time></trkpt>
<trkpt lat="46.1768296" lon="6.0923379"><ele></ele><time>2015-4-16T8:29:11Z</time></trkpt>
<trkpt lat="46.1768582" lon="6.0923196"><ele></ele><time>2015-4-16T8:29:14Z</time></trkpt>
<trkpt lat="46.1768911" lon="6.0922911"><ele></ele><time>2015-4-16T8:29:17Z</time></trkpt>
<trkpt lat="46.1769188" lon="6.0922699"><ele></ele><time>2015-4-16T8:29:20Z</time></trkpt>
<trkpt lat="46.1770402" lon="6.0921672"><ele></ele><time>2015-4-16T8:29:23Z</time></trkpt>
<trkpt lat="46.1770623" lon="6.0921429"><ele></ele><time>2015-4-16T8:29:26Z</time></trkpt>
<trkpt lat="46.1770837" lon="6.0921173"><ele></ele><time>2015-4-16T8:29:29Z</time></trkpt>
<trkpt lat="46.1771127" lon="6.0921005"><ele></ele><time>2015-4-16T8:29:32Z</time></trkpt>
<trkpt lat="46.1771411" lon="6.0920800"><ele></ele><time>2015-4-16T8:29:35Z</time></trkpt>
<trkpt lat="46.1772031" lon="6.0919075"><ele></ele><time>2015-4-16T8:29:38Z</time></trkpt>
<trkpt lat="46.1771984" lon="6.0918634"><ele></ele><time>2015-4-16T8:29:41Z</time></trkpt>
<trkpt lat="46.1771968" lon="6.0918245"><ele></ele><time>2015-4-16T8:29:44Z</time></trkpt>
<trkpt lat="46.1771958" lon="6.0917848"><ele></ele><time>2015-4-16T8:29:47Z</time></trkpt>
<trkpt lat="46.1771913" lon="6.0917410"><ele></ele><time>2015-4-16T8:29:50Z</time></trkpt>
<trkpt lat="46.1771662" lon="6.0916516"><ele></ele><time>2015-4-16T8:29:53Z</time></trkpt>
<trkpt lat="46.1771574" lon="6.0916091"><ele></ele><time>2015-4-16T8:29:56Z</time></trkpt>
<trkpt lat="46.1771304" lon="6.0914429"><ele></ele><time>2015-4-16T8:29:59Z</time></trkpt>
<trkpt lat="46.1771268" lon="6.0914033"><ele></ele><time>2015-4-16T8:30:2Z</time></trkpt>
<trkpt lat="46.1771255" lon="6.0913691"><ele></ele><time>2015-4-16T8:30:5Z</time></trkpt>
<trkpt lat="46.1771224" lon="6.0913225"><ele></ele><time>2015-4-16T8:30:8Z</time></trkpt>
<trkpt lat="46.1771194" lon="6.0912726"><ele></ele><time>2015-4-16T8:30:11Z</time></trkpt>
<trkpt lat="46.1771232" lon="6.0912053"><ele></ele><time>2015-4-16T8:30:14Z</time></trkpt>
<trkpt lat="46.1771205" lon="6.0909932"><ele></ele><time>2015-4-16T8:30:17Z</time></trkpt>
<trkpt lat="46.1771236" lon="6.0909531"><ele></ele><time>2015-4-16T8:30:20Z</time></trkpt>
<trkpt lat="46.1771292" lon="6.0909084"><ele></ele><time>2015-4-16T8:30:23Z</time></trkpt>
<trkpt lat="46.1771274" lon="6.0908645"><ele></ele><time>2015-4-16T8:30:26Z</time></trkpt>
<trkpt lat="46.1771280" lon="6.0908337"><ele></ele><time>2015-4-16T8:30:29Z</time></trkpt>
<trkpt lat="46.1771186" lon="6.0907183"><ele></ele><time>2015-4-16T8:30:32Z</time></trkpt>
<trkpt lat="46.1770947" lon="6.0905844"><ele></ele><time>2015-4-16T8:30:35Z</time></trkpt>
<trkpt lat="46.1770888" lon="6.0905381"><ele></ele><time>2015-4-16T8:30:38Z</time></trkpt>
<trkpt lat="46.1770818" lon="6.0904943"><ele></ele><time>2015-4-16T8:30:41Z</time></trkpt>
<trkpt lat="46.1770783" lon="6.0904558"><ele></ele><time>2015-4-16T8:30:44Z</time></trkpt>
<trkpt lat="46.1770700" lon="6.0904074"><ele></ele><time>2015-4-16T8:30:47Z</time></trkpt>
<trkpt lat="46.1770644" lon="6.0903662"><ele></ele><time>2015-4-16T8:30:50Z</time></trkpt>
<trkpt lat="46.1770744" lon="6.0900945"><ele></ele><time>2015-4-16T8:30:53Z</time></trkpt>
<trkpt lat="46.1770764" lon="6.0900588"><ele></ele><time>2015-4-16T8:30:56Z</time></trkpt>
<trkpt lat="46.1770767" lon="6.0900201"><ele></ele><time>2015-4-16T8:30:59Z</time></trkpt>
<trkpt lat="46.1770795" lon="6.0899823"><ele></ele><time>2015-4-16T8:31:2Z</time></trkpt>
<trkpt lat="46.1770739" lon="6.0898914"><ele></ele><time>2015-4-16T8:31:5Z</time></trkpt>
<trkpt lat="46.1770801" lon="6.0897617"><ele></ele><time>2015-4-16T8:31:8Z</time></trkpt>
<trkpt lat="46.1772178" lon="6.0894722"><ele></ele><time>2015-4-16T8:31:11Z</time></trkpt>
<trkpt lat="46.1772944" lon="6.0893348"><ele></ele><time>2015-4-16T8:31:14Z</time></trkpt>
<trkpt lat="46.1775045" lon="6.0890104"><ele></ele><time>2015-4-16T8:31:17Z</time></trkpt>
<trkpt lat="46.1775774" lon="6.0888789"><ele></ele><time>2015-4-16T8:31:20Z</time></trkpt>
<trkpt lat="46.1775962" lon="6.0888452"><ele></ele><time>2015-4-16T8:31:23Z</time></trkpt>
<trkpt lat="46.1776122" lon="6.0888121"><ele></ele><time>2015-4-16T8:31:26Z</time></trkpt>
<trkpt lat="46.1776312" lon="6.0887765"><ele></ele><time>2015-4-16T8:31:29Z</time></trkpt>
<trkpt lat="46.1776544" lon="6.0887434"><ele></ele><time>2015-4-16T8:31:32Z</time></trkpt>
<trkpt lat="46.1777851" lon="6.0885644"><ele></ele><time>2015-4-16T8:31:35Z</time></trkpt>
<trkpt lat="46.1779353" lon="6.0885441"><ele></ele><time>2015-4-16T8:31:38Z</time></trkpt>
<trkpt lat="46.1781444" lon="6.0886617"><ele></ele><time>2015-4-16T8:31:41Z</time></trkpt>
<trkpt lat="46.1782768" lon="6.0887406"><ele></ele><time>2015-4-16T8:31:44Z</time></trkpt>
<trkpt lat="46.1783738" lon="6.0887752"><ele></ele><time>2015-4-16T8:31:47Z</time></trkpt>
<trkpt lat="46.1784093" lon="6.0887869"><ele></ele><time>2015-4-16T8:31:50Z</time></trkpt>
<trkpt lat="46.1784110" lon="6.0887867"><ele></ele><time>2015-4-16T8:31:53Z</time></trkpt>
<trkpt lat="46.1784112" lon="6.0887866"><ele></ele><time>2015-4-16T8:31:56Z</time></trkpt>
<trkpt lat="46.1784112" lon="6.0887866"><ele></ele><time>2015-4-16T8:31:59Z</time></trkpt>
<trkpt lat="46.1784112" lon="6.0887866"><ele></ele><time>2015-4-16T8:32:2Z</time></trkpt>
<trkpt lat="46.1784109" lon="6.0887867"><ele></ele><time>2015-4-16T8:32:5Z</time></trkpt>
<trkpt lat="46.1784109" lon="6.0887866"><ele></ele><time>2015-4-16T8:32:8Z</time></trkpt>
<trkpt lat="46.1784720" lon="6.0887807"><ele></ele><time>2015-4-16T8:32:11Z</time></trkpt>
<trkpt lat="46.1785558" lon="6.0887508"><ele></ele><time>2015-4-16T8:32:14Z</time></trkpt>
<trkpt lat="46.1786298" lon="6.0886463"><ele></ele><time>2015-4-16T8:32:17Z</time></trkpt>
<trkpt lat="46.1786166" lon="6.0884313"><ele></ele><time>2015-4-16T8:32:20Z</time></trkpt>
<trkpt lat="46.1785965" lon="6.0877147"><ele></ele><time>2015-4-16T8:32:23Z</time></trkpt>
<trkpt lat="46.1786095" lon="6.0871016"><ele></ele><time>2015-4-16T8:32:26Z</time></trkpt>
<trkpt lat="46.1786284" lon="6.0869730"><ele></ele><time>2015-4-16T8:32:29Z</time></trkpt>
<trkpt lat="46.1786628" lon="6.0867675"><ele></ele><time>2015-4-16T8:32:32Z</time></trkpt>
<trkpt lat="46.1787185" lon="6.0863028"><ele></ele><time>2015-4-16T8:32:35Z</time></trkpt>
<trkpt lat="46.1787791" lon="6.0860489"><ele></ele><time>2015-4-16T8:32:38Z</time></trkpt>
<trkpt lat="46.1788294" lon="6.0858527"><ele></ele><time>2015-4-16T8:32:41Z</time></trkpt>
<trkpt lat="46.1789125" lon="6.0853867"><ele></ele><time>2015-4-16T8:32:44Z</time></trkpt>
<trkpt lat="46.1789497" lon="6.0852104"><ele></ele><time>2015-4-16T8:32:47Z</time></trkpt>
<trkpt lat="46.1789682" lon="6.0851121"><ele></ele><time>2015-4-16T8:32:50Z</time></trkpt>
<trkpt lat="46.1789873" lon="6.0850173"><ele></ele><time>2015-4-16T8:32:53Z</time></trkpt>
<trkpt lat="46.1790070" lon="6.0849131"><ele></ele><time>2015-4-16T8:32:56Z</time></trkpt>
<trkpt lat="46.1790378" lon="6.0848180"><ele></ele><time>2015-4-16T8:32:59Z</time></trkpt>
<trkpt lat="46.1790828" lon="6.0847269"><ele></ele><time>2015-4-16T8:33:2Z</time></trkpt>
<trkpt lat="46.1791331" lon="6.0846519"><ele></ele><time>2015-4-16T8:33:5Z</time></trkpt>
<trkpt lat="46.1791845" lon="6.0845808"><ele></ele><time>2015-4-16T8:33:8Z</time></trkpt>
<trkpt lat="46.1792876" lon="6.0844505"><ele></ele><time>2015-4-16T8:33:11Z</time></trkpt>
<trkpt lat="46.1793785" lon="6.0842067"><ele></ele><time>2015-4-16T8:33:14Z</time></trkpt>
<trkpt lat="46.1793817" lon="6.0841047"><ele></ele><time>2015-4-16T8:33:17Z</time></trkpt>
<trkpt lat="46.1793669" lon="6.0840178"><ele></ele><time>2015-4-16T8:33:20Z</time></trkpt>
<trkpt lat="46.1793540" lon="6.0839360"><ele></ele><time>2015-4-16T8:33:23Z</time></trkpt>
<trkpt lat="46.1792945" lon="6.0836992"><ele></ele><time>2015-4-16T8:33:26Z</time></trkpt>
<trkpt lat="46.1792904" lon="6.0834603"><ele></ele><time>2015-4-16T8:33:29Z</time></trkpt>
<trkpt lat="46.1793158" lon="6.0831828"><ele></ele><time>2015-4-16T8:33:32Z</time></trkpt>
<trkpt lat="46.1793230" lon="6.0831196"><ele></ele><time>2015-4-16T8:33:35Z</time></trkpt>
<trkpt lat="46.1793315" lon="6.0830521"><ele></ele><time>2015-4-16T8:33:38Z</time></trkpt>
<trkpt lat="46.1793385" lon="6.0829784"><ele></ele><time>2015-4-16T8:33:41Z</time></trkpt>
<trkpt lat="46.1793466" lon="6.0829180"><ele></ele><time>2015-4-16T8:33:44Z</time></trkpt>
<trkpt lat="46.1793719" lon="6.0827148"><ele></ele><time>2015-4-16T8:33:47Z</time></trkpt>
<trkpt lat="46.1793870" lon="6.0826466"><ele></ele><time>2015-4-16T8:33:50Z</time></trkpt>
<trkpt lat="46.1793974" lon="6.0825899"><ele></ele><time>2015-4-16T8:33:53Z</time></trkpt>
<trkpt lat="46.1794062" lon="6.0825258"><ele></ele><time>2015-4-16T8:33:56Z</time></trkpt>
<trkpt lat="46.1794132" lon="6.0824621"><ele></ele><time>2015-4-16T8:33:59Z</time></trkpt>
<trkpt lat="46.1794218" lon="6.0823959"><ele></ele><time>2015-4-16T8:34:2Z</time></trkpt>
<trkpt lat="46.1794444" lon="6.0822643"><ele></ele><time>2015-4-16T8:34:5Z</time></trkpt>
<trkpt lat="46.1795087" lon="6.0819017"><ele></ele><time>2015-4-16T8:34:8Z</time></trkpt>
<trkpt lat="46.1796191" lon="6.0811707"><ele></ele><time>2015-4-16T8:34:11Z</time></trkpt>
<trkpt lat="46.1796765" lon="6.0806113"><ele></ele><time>2015-4-16T8:34:14Z</time></trkpt>
<trkpt lat="46.1797231" lon="6.0799599"><ele></ele><time>2015-4-16T8:34:17Z</time></trkpt>
<trkpt lat="46.1797487" lon="6.0794049"><ele></ele><time>2015-4-16T8:34:20Z</time></trkpt>
<trkpt lat="46.1797592" lon="6.0790013"><ele></ele><time>2015-4-16T8:34:23Z</time></trkpt>
<trkpt lat="46.1797840" lon="6.0788609"><ele></ele><time>2015-4-16T8:34:26Z</time></trkpt>
<trkpt lat="46.1797591" lon="6.0785438"><ele></ele><time>2015-4-16T8:34:29Z</time></trkpt>
<trkpt lat="46.1796975" lon="6.0783705"><ele></ele><time>2015-4-16T8:34:32Z</time></trkpt>
<trkpt lat="46.1796928" lon="6.0783020"><ele></ele><time>2015-4-16T8:34:35Z</time></trkpt>
<trkpt lat="46.1796818" lon="6.0781587"><ele></ele><time>2015-4-16T8:34:38Z</time></trkpt>
<trkpt lat="46.1796740" lon="6.0780842"><ele></ele><time>2015-4-16T8:34:41Z</time></trkpt>
<trkpt lat="46.1796669" lon="6.0780129"><ele></ele><time>2015-4-16T8:34:44Z</time></trkpt>
<trkpt lat="46.1796615" lon="6.0779397"><ele></ele><time>2015-4-16T8:34:47Z</time></trkpt>
<trkpt lat="46.1796551" lon="6.0778691"><ele></ele><time>2015-4-16T8:34:50Z</time></trkpt>
<trkpt lat="46.1796324" lon="6.0777146"><ele></ele><time>2015-4-16T8:34:53Z</time></trkpt>
<trkpt lat="46.1795663" lon="6.0770367"><ele></ele><time>2015-4-16T8:34:56Z</time></trkpt>
<trkpt lat="46.1795444" lon="6.0768880"><ele></ele><time>2015-4-16T8:34:59Z</time></trkpt>
<trkpt lat="46.1794025" lon="6.0761612"><ele></ele><time>2015-4-16T8:35:2Z</time></trkpt>
<trkpt lat="46.1791888" lon="6.0754695"><ele></ele><time>2015-4-16T8:35:5Z</time></trkpt>
<trkpt lat="46.1789211" lon="6.0747158"><ele></ele><time>2015-4-16T8:35:8Z</time></trkpt>
<trkpt lat="46.1786574" lon="6.0739872"><ele></ele><time>2015-4-16T8:35:11Z</time></trkpt>
<trkpt lat="46.1786308" lon="6.0739135"><ele></ele><time>2015-4-16T8:35:14Z</time></trkpt>
<trkpt lat="46.1784736" lon="6.0734838"><ele></ele><time>2015-4-16T8:35:17Z</time></trkpt>
<trkpt lat="46.1784491" lon="6.0734205"><ele></ele><time>2015-4-16T8:35:20Z</time></trkpt>
<trkpt lat="46.1784219" lon="6.0733503"><ele></ele><time>2015-4-16T8:35:23Z</time></trkpt>
<trkpt lat="46.1783953" lon="6.0732798"><ele></ele><time>2015-4-16T8:35:26Z</time></trkpt>
<trkpt lat="46.1783655" lon="6.0732076"><ele></ele><time>2015-4-16T8:35:29Z</time></trkpt>
<trkpt lat="46.1781939" lon="6.0726910"><ele></ele><time>2015-4-16T8:35:32Z</time></trkpt>
<trkpt lat="46.1781957" lon="6.0724267"><ele></ele><time>2015-4-16T8:35:35Z</time></trkpt>
<trkpt lat="46.1781073" lon="6.0722720"><ele></ele><time>2015-4-16T8:35:38Z</time></trkpt>
<trkpt lat="46.1780763" lon="6.0722375"><ele></ele><time>2015-4-16T8:35:41Z</time></trkpt>
<trkpt lat="46.1779185" lon="6.0718994"><ele></ele><time>2015-4-16T8:35:44Z</time></trkpt>
<trkpt lat="46.1777120" lon="6.0713336"><ele></ele><time>2015-4-16T8:35:47Z</time></trkpt>
<trkpt lat="46.1776580" lon="6.0711992"><ele></ele><time>2015-4-16T8:35:50Z</time></trkpt>
<trkpt lat="46.1774087" lon="6.0705094"><ele></ele><time>2015-4-16T8:35:53Z</time></trkpt>
<trkpt lat="46.1773106" lon="6.0702434"><ele></ele><time>2015-4-16T8:35:56Z</time></trkpt>
<trkpt lat="46.1770593" lon="6.0695171"><ele></ele><time>2015-4-16T8:35:59Z</time></trkpt>
<trkpt lat="46.1770407" lon="6.0694597"><ele></ele><time>2015-4-16T8:36:2Z</time></trkpt>
<trkpt lat="46.1769324" lon="6.0691712"><ele></ele><time>2015-4-16T8:36:5Z</time></trkpt>
<trkpt lat="46.1770504" lon="6.0689035"><ele></ele><time>2015-4-16T8:36:8Z</time></trkpt>
<trkpt lat="46.1771316" lon="6.0687582"><ele></ele><time>2015-4-16T8:36:11Z</time></trkpt>
<trkpt lat="46.1771919" lon="6.0686557"><ele></ele><time>2015-4-16T8:36:14Z</time></trkpt>
<trkpt lat="46.1772225" lon="6.0686060"><ele></ele><time>2015-4-16T8:36:17Z</time></trkpt>
<trkpt lat="46.1772546" lon="6.0685527"><ele></ele><time>2015-4-16T8:36:20Z</time></trkpt>
<trkpt lat="46.1772860" lon="6.0685008"><ele></ele><time>2015-4-16T8:36:23Z</time></trkpt>
<trkpt lat="46.1774112" lon="6.0682956"><ele></ele><time>2015-4-16T8:36:26Z</time></trkpt>
<trkpt lat="46.1776852" lon="6.0677859"><ele></ele><time>2015-4-16T8:36:29Z</time></trkpt>
<trkpt lat="46.1779304" lon="6.0672953"><ele></ele><time>2015-4-16T8:36:32Z</time></trkpt>
<trkpt lat="46.1781336" lon="6.0668695"><ele></ele><time>2015-4-16T8:36:35Z</time></trkpt>
<trkpt lat="46.1781837" lon="6.0667675"><ele></ele><time>2015-4-16T8:36:38Z</time></trkpt>
<trkpt lat="46.1782349" lon="6.0666575"><ele></ele><time>2015-4-16T8:36:41Z</time></trkpt>
<trkpt lat="46.1782880" lon="6.0665388"><ele></ele><time>2015-4-16T8:36:44Z</time></trkpt>
<trkpt lat="46.1783418" lon="6.0664191"><ele></ele><time>2015-4-16T8:36:47Z</time></trkpt>
<trkpt lat="46.1783984" lon="6.0662931"><ele></ele><time>2015-4-16T8:36:50Z</time></trkpt>
<trkpt lat="46.1784548" lon="6.0661655"><ele></ele><time>2015-4-16T8:36:53Z</time></trkpt>
<trkpt lat="46.1785115" lon="6.0660410"><ele></ele><time>2015-4-16T8:36:56Z</time></trkpt>
<trkpt lat="46.1785691" lon="6.0659127"><ele></ele><time>2015-4-16T8:36:59Z</time></trkpt>
<trkpt lat="46.1786244" lon="6.0657810"><ele></ele><time>2015-4-16T8:37:2Z</time></trkpt>
<trkpt lat="46.1786745" lon="6.0656532"><ele></ele><time>2015-4-16T8:37:5Z</time></trkpt>
<trkpt lat="46.1787201" lon="6.0655379"><ele></ele><time>2015-4-16T8:37:8Z</time></trkpt>
<trkpt lat="46.1787654" lon="6.0654216"><ele></ele><time>2015-4-16T8:37:11Z</time></trkpt>
<trkpt lat="46.1788076" lon="6.0653155"><ele></ele><time>2015-4-16T8:37:14Z</time></trkpt>
<trkpt lat="46.1788526" lon="6.0652088"><ele></ele><time>2015-4-16T8:37:17Z</time></trkpt>
<trkpt lat="46.1788936" lon="6.0651110"><ele></ele><time>2015-4-16T8:37:20Z</time></trkpt>
<trkpt lat="46.1789318" lon="6.0650182"><ele></ele><time>2015-4-16T8:37:23Z</time></trkpt>
<trkpt lat="46.1789662" lon="6.0649341"><ele></ele><time>2015-4-16T8:37:26Z</time></trkpt>
<trkpt lat="46.1789955" lon="6.0648602"><ele></ele><time>2015-4-16T8:37:29Z</time></trkpt>
<trkpt lat="46.1791195" lon="6.0645476"><ele></ele><time>2015-4-16T8:37:32Z</time></trkpt>
<trkpt lat="46.1791552" lon="6.0644599"><ele></ele><time>2015-4-16T8:37:35Z</time></trkpt>
<trkpt lat="46.1791771" lon="6.0644099"><ele></ele><time>2015-4-16T8:37:38Z</time></trkpt>
<trkpt lat="46.1792015" lon="6.0643551"><ele></ele><time>2015-4-16T8:37:41Z</time></trkpt>
<trkpt lat="46.1792251" lon="6.0642959"><ele></ele><time>2015-4-16T8:37:44Z</time></trkpt>
<trkpt lat="46.1792497" lon="6.0642320"><ele></ele><time>2015-4-16T8:37:47Z</time></trkpt>
<trkpt lat="46.1792759" lon="6.0641629"><ele></ele><time>2015-4-16T8:37:50Z</time></trkpt>
<trkpt lat="46.1793179" lon="6.0640194"><ele></ele><time>2015-4-16T8:37:53Z</time></trkpt>
<trkpt lat="46.1793402" lon="6.0639448"><ele></ele><time>2015-4-16T8:37:56Z</time></trkpt>
<trkpt lat="46.1793608" lon="6.0638687"><ele></ele><time>2015-4-16T8:37:59Z</time></trkpt>
<trkpt lat="46.1793834" lon="6.0637868"><ele></ele><time>2015-4-16T8:38:2Z</time></trkpt>
<trkpt lat="46.1794048" lon="6.0637031"><ele></ele><time>2015-4-16T8:38:5Z</time></trkpt>
<trkpt lat="46.1794256" lon="6.0636177"><ele></ele><time>2015-4-16T8:38:8Z</time></trkpt>
<trkpt lat="46.1796203" lon="6.0628818"><ele></ele><time>2015-4-16T8:38:11Z</time></trkpt>
<trkpt lat="46.1798244" lon="6.0621504"><ele></ele><time>2015-4-16T8:38:14Z</time></trkpt>
<trkpt lat="46.1799415" lon="6.0617377"><ele></ele><time>2015-4-16T8:38:17Z</time></trkpt>
<trkpt lat="46.1800332" lon="6.0614355"><ele></ele><time>2015-4-16T8:38:20Z</time></trkpt>
<trkpt lat="46.1801365" lon="6.0610403"><ele></ele><time>2015-4-16T8:38:23Z</time></trkpt>
<trkpt lat="46.1801620" lon="6.0609432"><ele></ele><time>2015-4-16T8:38:26Z</time></trkpt>
<trkpt lat="46.1801866" lon="6.0608484"><ele></ele><time>2015-4-16T8:38:29Z</time></trkpt>
<trkpt lat="46.1802136" lon="6.0607552"><ele></ele><time>2015-4-16T8:38:32Z</time></trkpt>
<trkpt lat="46.1802420" lon="6.0606528"><ele></ele><time>2015-4-16T8:38:35Z</time></trkpt>
<trkpt lat="46.1803846" lon="6.0601434"><ele></ele><time>2015-4-16T8:38:38Z</time></trkpt>
<trkpt lat="46.1805556" lon="6.0595301"><ele></ele><time>2015-4-16T8:38:41Z</time></trkpt>
<trkpt lat="46.1805864" lon="6.0594205"><ele></ele><time>2015-4-16T8:38:44Z</time></trkpt>
<trkpt lat="46.1806192" lon="6.0593146"><ele></ele><time>2015-4-16T8:38:47Z</time></trkpt>
<trkpt lat="46.1806502" lon="6.0592010"><ele></ele><time>2015-4-16T8:38:50Z</time></trkpt>
<trkpt lat="46.1806826" lon="6.0590890"><ele></ele><time>2015-4-16T8:38:53Z</time></trkpt>
<trkpt lat="46.1807149" lon="6.0589744"><ele></ele><time>2015-4-16T8:38:56Z</time></trkpt>
<trkpt lat="46.1807481" lon="6.0588562"><ele></ele><time>2015-4-16T8:38:59Z</time></trkpt>
<trkpt lat="46.1807844" lon="6.0587422"><ele></ele><time>2015-4-16T8:39:2Z</time></trkpt>
<trkpt lat="46.1808195" lon="6.0586243"><ele></ele><time>2015-4-16T8:39:5Z</time></trkpt>
<trkpt lat="46.1808514" lon="6.0585061"><ele></ele><time>2015-4-16T8:39:8Z</time></trkpt>
<trkpt lat="46.1808812" lon="6.0583890"><ele></ele><time>2015-4-16T8:39:11Z</time></trkpt>
<trkpt lat="46.1809119" lon="6.0582711"><ele></ele><time>2015-4-16T8:39:14Z</time></trkpt>
<trkpt lat="46.1809423" lon="6.0581617"><ele></ele><time>2015-4-16T8:39:17Z</time></trkpt>
<trkpt lat="46.1809729" lon="6.0580535"><ele></ele><time>2015-4-16T8:39:20Z</time></trkpt>
<trkpt lat="46.1810024" lon="6.0579431"><ele></ele><time>2015-4-16T8:39:23Z</time></trkpt>
<trkpt lat="46.1811425" lon="6.0574459"><ele></ele><time>2015-4-16T8:39:26Z</time></trkpt>
<trkpt lat="46.1813124" lon="6.0568103"><ele></ele><time>2015-4-16T8:39:29Z</time></trkpt>
<trkpt lat="46.1813822" lon="6.0566126"><ele></ele><time>2015-4-16T8:39:32Z</time></trkpt>
<trkpt lat="46.1814215" lon="6.0565144"><ele></ele><time>2015-4-16T8:39:35Z</time></trkpt>
<trkpt lat="46.1814625" lon="6.0564185"><ele></ele><time>2015-4-16T8:39:38Z</time></trkpt>
<trkpt lat="46.1815064" lon="6.0563273"><ele></ele><time>2015-4-16T8:39:41Z</time></trkpt>
<trkpt lat="46.1815547" lon="6.0562390"><ele></ele><time>2015-4-16T8:39:44Z</time></trkpt>
<trkpt lat="46.1817948" lon="6.0558197"><ele></ele><time>2015-4-16T8:39:47Z</time></trkpt>
<trkpt lat="46.1819230" lon="6.0555734"><ele></ele><time>2015-4-16T8:39:50Z</time></trkpt>
<trkpt lat="46.1819666" lon="6.0554920"><ele></ele><time>2015-4-16T8:39:53Z</time></trkpt>
<trkpt lat="46.1820087" lon="6.0554197"><ele></ele><time>2015-4-16T8:39:56Z</time></trkpt>
<trkpt lat="46.1820478" lon="6.0553557"><ele></ele><time>2015-4-16T8:39:59Z</time></trkpt>
<trkpt lat="46.1820908" lon="6.0552863"><ele></ele><time>2015-4-16T8:40:2Z</time></trkpt>
<trkpt lat="46.1821355" lon="6.0552245"><ele></ele><time>2015-4-16T8:40:5Z</time></trkpt>
<trkpt lat="46.1824007" lon="6.0548639"><ele></ele><time>2015-4-16T8:40:8Z</time></trkpt>
<trkpt lat="46.1825958" lon="6.0545979"><ele></ele><time>2015-4-16T8:40:11Z</time></trkpt>
<trkpt lat="46.1828194" lon="6.0542668"><ele></ele><time>2015-4-16T8:40:14Z</time></trkpt>
<trkpt lat="46.1830666" lon="6.0538597"><ele></ele><time>2015-4-16T8:40:17Z</time></trkpt>
<trkpt lat="46.1832357" lon="6.0535687"><ele></ele><time>2015-4-16T8:40:20Z</time></trkpt>
<trkpt lat="46.1832674" lon="6.0534906"><ele></ele><time>2015-4-16T8:40:23Z</time></trkpt>
<trkpt lat="46.1834305" lon="6.0531107"><ele></ele><time>2015-4-16T8:40:26Z</time></trkpt>
<trkpt lat="46.1837106" lon="6.0524187"><ele></ele><time>2015-4-16T8:40:29Z</time></trkpt>
<trkpt lat="46.1840027" lon="6.0517011"><ele></ele><time>2015-4-16T8:40:32Z</time></trkpt>
<trkpt lat="46.1840686" lon="6.0515468"><ele></ele><time>2015-4-16T8:40:35Z</time></trkpt>
<trkpt lat="46.1844084" lon="6.0509331"><ele></ele><time>2015-4-16T8:40:38Z</time></trkpt>
<trkpt lat="46.1847784" lon="6.0503450"><ele></ele><time>2015-4-16T8:40:41Z</time></trkpt>
<trkpt lat="46.1848575" lon="6.0502185"><ele></ele><time>2015-4-16T8:40:44Z</time></trkpt>
<trkpt lat="46.1851744" lon="6.0497147"><ele></ele><time>2015-4-16T8:40:47Z</time></trkpt>
<trkpt lat="46.1852131" lon="6.0496526"><ele></ele><time>2015-4-16T8:40:50Z</time></trkpt>
<trkpt lat="46.1852506" lon="6.0495954"><ele></ele><time>2015-4-16T8:40:53Z</time></trkpt>
<trkpt lat="46.1852883" lon="6.0495406"><ele></ele><time>2015-4-16T8:40:56Z</time></trkpt>
<trkpt lat="46.1853278" lon="6.0494878"><ele></ele><time>2015-4-16T8:40:59Z</time></trkpt>
<trkpt lat="46.1855028" lon="6.0492456"><ele></ele><time>2015-4-16T8:41:2Z</time></trkpt>
<trkpt lat="46.1855524" lon="6.0491717"><ele></ele><time>2015-4-16T8:41:5Z</time></trkpt>
<trkpt lat="46.1856404" lon="6.0490329"><ele></ele><time>2015-4-16T8:41:8Z</time></trkpt>
<trkpt lat="46.1856961" lon="6.0489523"><ele></ele><time>2015-4-16T8:41:11Z</time></trkpt>
<trkpt lat="46.1857525" lon="6.0488706"><ele></ele><time>2015-4-16T8:41:14Z</time></trkpt>
<trkpt lat="46.1858078" lon="6.0487896"><ele></ele><time>2015-4-16T8:41:17Z</time></trkpt>
<trkpt lat="46.1858655" lon="6.0487042"><ele></ele><time>2015-4-16T8:41:20Z</time></trkpt>
<trkpt lat="46.1859260" lon="6.0486138"><ele></ele><time>2015-4-16T8:41:23Z</time></trkpt>
<trkpt lat="46.1859849" lon="6.0485328"><ele></ele><time>2015-4-16T8:41:26Z</time></trkpt>
<trkpt lat="46.1861084" lon="6.0483854"><ele></ele><time>2015-4-16T8:41:29Z</time></trkpt>
<trkpt lat="46.1861696" lon="6.0483144"><ele></ele><time>2015-4-16T8:41:32Z</time></trkpt>
<trkpt lat="46.1862367" lon="6.0482403"><ele></ele><time>2015-4-16T8:41:35Z</time></trkpt>
<trkpt lat="46.1863021" lon="6.0481702"><ele></ele><time>2015-4-16T8:41:38Z</time></trkpt>
<trkpt lat="46.1863655" lon="6.0480981"><ele></ele><time>2015-4-16T8:41:41Z</time></trkpt>
<trkpt lat="46.1864321" lon="6.0480226"><ele></ele><time>2015-4-16T8:41:44Z</time></trkpt>
<trkpt lat="46.1864929" lon="6.0479545"><ele></ele><time>2015-4-16T8:41:47Z</time></trkpt>
<trkpt lat="46.1865519" lon="6.0478916"><ele></ele><time>2015-4-16T8:41:50Z</time></trkpt>
<trkpt lat="46.1866076" lon="6.0478332"><ele></ele><time>2015-4-16T8:41:53Z</time></trkpt>
<trkpt lat="46.1866660" lon="6.0477800"><ele></ele><time>2015-4-16T8:41:56Z</time></trkpt>
<trkpt lat="46.1867257" lon="6.0477206"><ele></ele><time>2015-4-16T8:41:59Z</time></trkpt>
<trkpt lat="46.1867724" lon="6.0476517"><ele></ele><time>2015-4-16T8:42:2Z</time></trkpt>
<trkpt lat="46.1868311" lon="6.0475724"><ele></ele><time>2015-4-16T8:42:5Z</time></trkpt>
<trkpt lat="46.1868943" lon="6.0474878"><ele></ele><time>2015-4-16T8:42:8Z</time></trkpt>
<trkpt lat="46.1869599" lon="6.0474025"><ele></ele><time>2015-4-16T8:42:11Z</time></trkpt>
<trkpt lat="46.1870246" lon="6.0473186"><ele></ele><time>2015-4-16T8:42:14Z</time></trkpt>
<trkpt lat="46.1870973" lon="6.0472447"><ele></ele><time>2015-4-16T8:42:17Z</time></trkpt>
<trkpt lat="46.1871702" lon="6.0471731"><ele></ele><time>2015-4-16T8:42:20Z</time></trkpt>
<trkpt lat="46.1872451" lon="6.0471045"><ele></ele><time>2015-4-16T8:42:23Z</time></trkpt>
<trkpt lat="46.1873188" lon="6.0470361"><ele></ele><time>2015-4-16T8:42:26Z</time></trkpt>
<trkpt lat="46.1873913" lon="6.0469696"><ele></ele><time>2015-4-16T8:42:29Z</time></trkpt>
<trkpt lat="46.1875396" lon="6.0468413"><ele></ele><time>2015-4-16T8:42:32Z</time></trkpt>
<trkpt lat="46.1876126" lon="6.0467745"><ele></ele><time>2015-4-16T8:42:35Z</time></trkpt>
<trkpt lat="46.1877485" lon="6.0466490"><ele></ele><time>2015-4-16T8:42:38Z</time></trkpt>
<trkpt lat="46.1878054" lon="6.0465895"><ele></ele><time>2015-4-16T8:42:41Z</time></trkpt>
<trkpt lat="46.1878581" lon="6.0465361"><ele></ele><time>2015-4-16T8:42:44Z</time></trkpt>
<trkpt lat="46.1878992" lon="6.0464919"><ele></ele><time>2015-4-16T8:42:47Z</time></trkpt>
<trkpt lat="46.1879385" lon="6.0464610"><ele></ele><time>2015-4-16T8:42:50Z</time></trkpt>
<trkpt lat="46.1879933" lon="6.0464263"><ele></ele><time>2015-4-16T8:42:53Z</time></trkpt>
<trkpt lat="46.1881447" lon="6.0462878"><ele></ele><time>2015-4-16T8:42:56Z</time></trkpt>
<trkpt lat="46.1883193" lon="6.0459751"><ele></ele><time>2015-4-16T8:42:59Z</time></trkpt>
<trkpt lat="46.1885725" lon="6.0455923"><ele></ele><time>2015-4-16T8:43:2Z</time></trkpt>
<trkpt lat="46.1886142" lon="6.0455275"><ele></ele><time>2015-4-16T8:43:5Z</time></trkpt>
<trkpt lat="46.1886582" lon="6.0454642"><ele></ele><time>2015-4-16T8:43:8Z</time></trkpt>
<trkpt lat="46.1887013" lon="6.0454004"><ele></ele><time>2015-4-16T8:43:11Z</time></trkpt>
<trkpt lat="46.1887432" lon="6.0453260"><ele></ele><time>2015-4-16T8:43:14Z</time></trkpt>
<trkpt lat="46.1888717" lon="6.0451277"><ele></ele><time>2015-4-16T8:43:17Z</time></trkpt>
<trkpt lat="46.1890063" lon="6.0449177"><ele></ele><time>2015-4-16T8:43:20Z</time></trkpt>
<trkpt lat="46.1890479" lon="6.0448498"><ele></ele><time>2015-4-16T8:43:23Z</time></trkpt>
<trkpt lat="46.1890904" lon="6.0447813"><ele></ele><time>2015-4-16T8:43:26Z</time></trkpt>
<trkpt lat="46.1891341" lon="6.0447082"><ele></ele><time>2015-4-16T8:43:29Z</time></trkpt>
<trkpt lat="46.1891728" lon="6.0446371"><ele></ele><time>2015-4-16T8:43:32Z</time></trkpt>
<trkpt lat="46.1892524" lon="6.0445023"><ele></ele><time>2015-4-16T8:43:35Z</time></trkpt>
<trkpt lat="46.1893386" lon="6.0443839"><ele></ele><time>2015-4-16T8:43:38Z</time></trkpt>
<trkpt lat="46.1895230" lon="6.0441575"><ele></ele><time>2015-4-16T8:43:41Z</time></trkpt>
<trkpt lat="46.1898771" lon="6.0436980"><ele></ele><time>2015-4-16T8:43:44Z</time></trkpt>
<trkpt lat="46.1902600" lon="6.0432042"><ele></ele><time>2015-4-16T8:43:47Z</time></trkpt>
<trkpt lat="46.1903063" lon="6.0431410"><ele></ele><time>2015-4-16T8:43:50Z</time></trkpt>
<trkpt lat="46.1903549" lon="6.0430803"><ele></ele><time>2015-4-16T8:43:53Z</time></trkpt>
<trkpt lat="46.1903995" lon="6.0430233"><ele></ele><time>2015-4-16T8:43:56Z</time></trkpt>
<trkpt lat="46.1904448" lon="6.0429704"><ele></ele><time>2015-4-16T8:43:59Z</time></trkpt>
<trkpt lat="46.1905216" lon="6.0428889"><ele></ele><time>2015-4-16T8:44:2Z</time></trkpt>
<trkpt lat="46.1904870" lon="6.0426920"><ele></ele><time>2015-4-16T8:44:5Z</time></trkpt>
<trkpt lat="46.1902828" lon="6.0424522"><ele></ele><time>2015-4-16T8:44:8Z</time></trkpt>
<trkpt lat="46.1902452" lon="6.0424092"><ele></ele><time>2015-4-16T8:44:11Z</time></trkpt>
<trkpt lat="46.1902015" lon="6.0423702"><ele></ele><time>2015-4-16T8:44:14Z</time></trkpt>
<trkpt lat="46.1900117" lon="6.0422148"><ele></ele><time>2015-4-16T8:44:17Z</time></trkpt>
<trkpt lat="46.1899689" lon="6.0421672"><ele></ele><time>2015-4-16T8:44:20Z</time></trkpt>
<trkpt lat="46.1898755" lon="6.0419828"><ele></ele><time>2015-4-16T8:44:23Z</time></trkpt>
<trkpt lat="46.1898475" lon="6.0419147"><ele></ele><time>2015-4-16T8:44:26Z</time></trkpt>
<trkpt lat="46.1898241" lon="6.0418504"><ele></ele><time>2015-4-16T8:44:29Z</time></trkpt>
<trkpt lat="46.1897646" lon="6.0416561"><ele></ele><time>2015-4-16T8:44:32Z</time></trkpt>
<trkpt lat="46.1897598" lon="6.0415908"><ele></ele><time>2015-4-16T8:44:35Z</time></trkpt>
<trkpt lat="46.1897677" lon="6.0415228"><ele></ele><time>2015-4-16T8:44:38Z</time></trkpt>
<trkpt lat="46.1898612" lon="6.0412716"><ele></ele><time>2015-4-16T8:44:41Z</time></trkpt>
<trkpt lat="46.1900552" lon="6.0408146"><ele></ele><time>2015-4-16T8:44:44Z</time></trkpt>
<trkpt lat="46.1901660" lon="6.0405501"><ele></ele><time>2015-4-16T8:44:47Z</time></trkpt>
<trkpt lat="46.1902541" lon="6.0403427"><ele></ele><time>2015-4-16T8:44:50Z</time></trkpt>
<trkpt lat="46.1904551" lon="6.0398640"><ele></ele><time>2015-4-16T8:44:53Z</time></trkpt>
<trkpt lat="46.1906676" lon="6.0394346"><ele></ele><time>2015-4-16T8:44:56Z</time></trkpt>
<trkpt lat="46.1907949" lon="6.0391990"><ele></ele><time>2015-4-16T8:44:59Z</time></trkpt>
<trkpt lat="46.1909204" lon="6.0390508"><ele></ele><time>2015-4-16T8:45:2Z</time></trkpt>
<trkpt lat="46.1912068" lon="6.0387261"><ele></ele><time>2015-4-16T8:45:5Z</time></trkpt>
<trkpt lat="46.1914818" lon="6.0384078"><ele></ele><time>2015-4-16T8:45:8Z</time></trkpt>
<trkpt lat="46.1915348" lon="6.0383447"><ele></ele><time>2015-4-16T8:45:11Z</time></trkpt>
<trkpt lat="46.1915886" lon="6.0382803"><ele></ele><time>2015-4-16T8:45:14Z</time></trkpt>
<trkpt lat="46.1916408" lon="6.0382173"><ele></ele><time>2015-4-16T8:45:17Z</time></trkpt>
<trkpt lat="46.1916949" lon="6.0381562"><ele></ele><time>2015-4-16T8:45:20Z</time></trkpt>
<trkpt lat="46.1917502" lon="6.0380967"><ele></ele><time>2015-4-16T8:45:23Z</time></trkpt>
<trkpt lat="46.1919005" lon="6.0379338"><ele></ele><time>2015-4-16T8:45:26Z</time></trkpt>
<trkpt lat="46.1922658" lon="6.0375141"><ele></ele><time>2015-4-16T8:45:29Z</time></trkpt>
<trkpt lat="46.1926548" lon="6.0370823"><ele></ele><time>2015-4-16T8:45:32Z</time></trkpt>
<trkpt lat="46.1929648" lon="6.0367429"><ele></ele><time>2015-4-16T8:45:35Z</time></trkpt>
<trkpt lat="46.1931235" lon="6.0365368"><ele></ele><time>2015-4-16T8:45:38Z</time></trkpt>
<trkpt lat="46.1931510" lon="6.0363414"><ele></ele><time>2015-4-16T8:45:41Z</time></trkpt>
<trkpt lat="46.1931503" lon="6.0361760"><ele></ele><time>2015-4-16T8:45:44Z</time></trkpt>
<trkpt lat="46.1931526" lon="6.0361178"><ele></ele><time>2015-4-16T8:45:47Z</time></trkpt>
<trkpt lat="46.1931523" lon="6.0360601"><ele></ele><time>2015-4-16T8:45:50Z</time></trkpt>
<trkpt lat="46.1931529" lon="6.0360008"><ele></ele><time>2015-4-16T8:45:53Z</time></trkpt>
<trkpt lat="46.1931555" lon="6.0359422"><ele></ele><time>2015-4-16T8:45:56Z</time></trkpt>
<trkpt lat="46.1931760" lon="6.0353325"><ele></ele><time>2015-4-16T8:45:59Z</time></trkpt>
<trkpt lat="46.1932046" lon="6.0345167"><ele></ele><time>2015-4-16T8:46:2Z</time></trkpt>
<trkpt lat="46.1932220" lon="6.0340439"><ele></ele><time>2015-4-16T8:46:5Z</time></trkpt>
<trkpt lat="46.1932288" lon="6.0339654"><ele></ele><time>2015-4-16T8:46:8Z</time></trkpt>
<trkpt lat="46.1932364" lon="6.0338819"><ele></ele><time>2015-4-16T8:46:11Z</time></trkpt>
<trkpt lat="46.1932448" lon="6.0338004"><ele></ele><time>2015-4-16T8:46:14Z</time></trkpt>
<trkpt lat="46.1932556" lon="6.0337215"><ele></ele><time>2015-4-16T8:46:17Z</time></trkpt>
<trkpt lat="46.1933927" lon="6.0330573"><ele></ele><time>2015-4-16T8:46:20Z</time></trkpt>
<trkpt lat="46.1934357" lon="6.0328876"><ele></ele><time>2015-4-16T8:46:23Z</time></trkpt>
<trkpt lat="46.1934830" lon="6.0327202"><ele></ele><time>2015-4-16T8:46:26Z</time></trkpt>
<trkpt lat="46.1935242" lon="6.0325590"><ele></ele><time>2015-4-16T8:46:29Z</time></trkpt>
<trkpt lat="46.1935920" lon="6.0323134"><ele></ele><time>2015-4-16T8:46:32Z</time></trkpt>
<trkpt lat="46.1936949" lon="6.0317755"><ele></ele><time>2015-4-16T8:46:35Z</time></trkpt>
<trkpt lat="46.1937080" lon="6.0312705"><ele></ele><time>2015-4-16T8:46:38Z</time></trkpt>
<trkpt lat="46.1937202" lon="6.0311475"><ele></ele><time>2015-4-16T8:46:41Z</time></trkpt>
<trkpt lat="46.1937429" lon="6.0309573"><ele></ele><time>2015-4-16T8:46:44Z</time></trkpt>
<trkpt lat="46.1936329" lon="6.0305010"><ele></ele><time>2015-4-16T8:46:47Z</time></trkpt>
<trkpt lat="46.1934894" lon="6.0301349"><ele></ele><time>2015-4-16T8:46:50Z</time></trkpt>
<trkpt lat="46.1934648" lon="6.0300764"><ele></ele><time>2015-4-16T8:46:53Z</time></trkpt>
<trkpt lat="46.1934421" lon="6.0300191"><ele></ele><time>2015-4-16T8:46:56Z</time></trkpt>
<trkpt lat="46.1934171" lon="6.0299507"><ele></ele><time>2015-4-16T8:46:59Z</time></trkpt>
<trkpt lat="46.1933934" lon="6.0298853"><ele></ele><time>2015-4-16T8:47:2Z</time></trkpt>
<trkpt lat="46.1933704" lon="6.0298178"><ele></ele><time>2015-4-16T8:47:5Z</time></trkpt>
<trkpt lat="46.1933207" lon="6.0296807"><ele></ele><time>2015-4-16T8:47:8Z</time></trkpt>
<trkpt lat="46.1931466" lon="6.0292216"><ele></ele><time>2015-4-16T8:47:11Z</time></trkpt>
<trkpt lat="46.1928841" lon="6.0285109"><ele></ele><time>2015-4-16T8:47:14Z</time></trkpt>
<trkpt lat="46.1926763" lon="6.0279341"><ele></ele><time>2015-4-16T8:47:17Z</time></trkpt>
<trkpt lat="46.1925669" lon="6.0276277"><ele></ele><time>2015-4-16T8:47:20Z</time></trkpt>
<trkpt lat="46.1925343" lon="6.0274944"><ele></ele><time>2015-4-16T8:47:23Z</time></trkpt>
<trkpt lat="46.1925175" lon="6.0273427"><ele></ele><time>2015-4-16T8:47:26Z</time></trkpt>
<trkpt lat="46.1925122" lon="6.0271415"><ele></ele><time>2015-4-16T8:47:29Z</time></trkpt>
<trkpt lat="46.1925534" lon="6.0267000"><ele></ele><time>2015-4-16T8:47:32Z</time></trkpt>
<trkpt lat="46.1926389" lon="6.0262966"><ele></ele><time>2015-4-16T8:47:35Z</time></trkpt>
<trkpt lat="46.1927286" lon="6.0259113"><ele></ele><time>2015-4-16T8:47:38Z</time></trkpt>
<trkpt lat="46.1927865" lon="6.0256959"><ele></ele><time>2015-4-16T8:47:41Z</time></trkpt>
<trkpt lat="46.1927964" lon="6.0256550"><ele></ele><time>2015-4-16T8:47:44Z</time></trkpt>
<trkpt lat="46.1928085" lon="6.0256121"><ele></ele><time>2015-4-16T8:47:47Z</time></trkpt>
<trkpt lat="46.1928177" lon="6.0255719"><ele></ele><time>2015-4-16T8:47:50Z</time></trkpt>
<trkpt lat="46.1928269" lon="6.0255327"><ele></ele><time>2015-4-16T8:47:53Z</time></trkpt>
<trkpt lat="46.1929151" lon="6.0251189"><ele></ele><time>2015-4-16T8:47:56Z</time></trkpt>
<trkpt lat="46.1929549" lon="6.0249775"><ele></ele><time>2015-4-16T8:47:59Z</time></trkpt>
<trkpt lat="46.1929700" lon="6.0249314"><ele></ele><time>2015-4-16T8:48:2Z</time></trkpt>
<trkpt lat="46.1929844" lon="6.0248860"><ele></ele><time>2015-4-16T8:48:5Z</time></trkpt>
<trkpt lat="46.1929975" lon="6.0248387"><ele></ele><time>2015-4-16T8:48:8Z</time></trkpt>
<trkpt lat="46.1930098" lon="6.0247910"><ele></ele><time>2015-4-16T8:48:11Z</time></trkpt>
<trkpt lat="46.1930421" lon="6.0246412"><ele></ele><time>2015-4-16T8:48:14Z</time></trkpt>
<trkpt lat="46.1931074" lon="6.0243409"><ele></ele><time>2015-4-16T8:48:17Z</time></trkpt>
<trkpt lat="46.1931172" lon="6.0242922"><ele></ele><time>2015-4-16T8:48:20Z</time></trkpt>
<trkpt lat="46.1931270" lon="6.0242455"><ele></ele><time>2015-4-16T8:48:23Z</time></trkpt>
<trkpt lat="46.1931394" lon="6.0241961"><ele></ele><time>2015-4-16T8:48:26Z</time></trkpt>
<trkpt lat="46.1931515" lon="6.0241508"><ele></ele><time>2015-4-16T8:48:29Z</time></trkpt>
<trkpt lat="46.1931630" lon="6.0241045"><ele></ele><time>2015-4-16T8:48:32Z</time></trkpt>
<trkpt lat="46.1931952" lon="6.0239664"><ele></ele><time>2015-4-16T8:48:35Z</time></trkpt>
<trkpt lat="46.1932061" lon="6.0239186"><ele></ele><time>2015-4-16T8:48:38Z</time></trkpt>
<trkpt lat="46.1932144" lon="6.0238718"><ele></ele><time>2015-4-16T8:48:41Z</time></trkpt>
<trkpt lat="46.1932204" lon="6.0238238"><ele></ele><time>2015-4-16T8:48:44Z</time></trkpt>
<trkpt lat="46.1932135" lon="6.0237721"><ele></ele><time>2015-4-16T8:48:47Z</time></trkpt>
<trkpt lat="46.1932135" lon="6.0236769"><ele></ele><time>2015-4-16T8:48:50Z</time></trkpt>
<trkpt lat="46.1931489" lon="6.0234407"><ele></ele><time>2015-4-16T8:48:53Z</time></trkpt>
<trkpt lat="46.1931117" lon="6.0233510"><ele></ele><time>2015-4-16T8:48:56Z</time></trkpt>
<trkpt lat="46.1930938" lon="6.0233161"><ele></ele><time>2015-4-16T8:48:59Z</time></trkpt>
<trkpt lat="46.1930604" lon="6.0232788"><ele></ele><time>2015-4-16T8:49:2Z</time></trkpt>
<trkpt lat="46.1930356" lon="6.0232455"><ele></ele><time>2015-4-16T8:49:5Z</time></trkpt>
<trkpt lat="46.1930045" lon="6.0232140"><ele></ele><time>2015-4-16T8:49:8Z</time></trkpt>
<trkpt lat="46.1928837" lon="6.0231224"><ele></ele><time>2015-4-16T8:49:11Z</time></trkpt>
<trkpt lat="46.1928550" lon="6.0231034"><ele></ele><time>2015-4-16T8:49:14Z</time></trkpt>
<trkpt lat="46.1928239" lon="6.0230863"><ele></ele><time>2015-4-16T8:49:17Z</time></trkpt>
<trkpt lat="46.1927900" lon="6.0230693"><ele></ele><time>2015-4-16T8:49:20Z</time></trkpt>
<trkpt lat="46.1927587" lon="6.0230542"><ele></ele><time>2015-4-16T8:49:23Z</time></trkpt>
<trkpt lat="46.1925723" lon="6.0229560"><ele></ele><time>2015-4-16T8:49:26Z</time></trkpt>
<trkpt lat="46.1925427" lon="6.0229371"><ele></ele><time>2015-4-16T8:49:29Z</time></trkpt>
<trkpt lat="46.1925126" lon="6.0229179"><ele></ele><time>2015-4-16T8:49:32Z</time></trkpt>
<trkpt lat="46.1924800" lon="6.0229003"><ele></ele><time>2015-4-16T8:49:35Z</time></trkpt>
<trkpt lat="46.1924471" lon="6.0228862"><ele></ele><time>2015-4-16T8:49:38Z</time></trkpt>
<trkpt lat="46.1924168" lon="6.0228666"><ele></ele><time>2015-4-16T8:49:41Z</time></trkpt>
<trkpt lat="46.1922979" lon="6.0228081"><ele></ele><time>2015-4-16T8:49:44Z</time></trkpt>
<trkpt lat="46.1922713" lon="6.0227805"><ele></ele><time>2015-4-16T8:49:47Z</time></trkpt>
<trkpt lat="46.1922492" lon="6.0227508"><ele></ele><time>2015-4-16T8:49:50Z</time></trkpt>
<trkpt lat="46.1922238" lon="6.0227137"><ele></ele><time>2015-4-16T8:49:53Z</time></trkpt>
<trkpt lat="46.1922041" lon="6.0226768"><ele></ele><time>2015-4-16T8:49:56Z</time></trkpt>
<trkpt lat="46.1921871" lon="6.0226379"><ele></ele><time>2015-4-16T8:49:59Z</time></trkpt>
<trkpt lat="46.1921080" lon="6.0223450"><ele></ele><time>2015-4-16T8:50:2Z</time></trkpt>
<trkpt lat="46.1921060" lon="6.0222988"><ele></ele><time>2015-4-16T8:50:5Z</time></trkpt>
<trkpt lat="46.1921046" lon="6.0222528"><ele></ele><time>2015-4-16T8:50:8Z</time></trkpt>
<trkpt lat="46.1921065" lon="6.0222088"><ele></ele><time>2015-4-16T8:50:11Z</time></trkpt>
<trkpt lat="46.1921117" lon="6.0221646"><ele></ele><time>2015-4-16T8:50:14Z</time></trkpt>
<trkpt lat="46.1921189" lon="6.0221183"><ele></ele><time>2015-4-16T8:50:17Z</time></trkpt>
<trkpt lat="46.1921421" lon="6.0220298"><ele></ele><time>2015-4-16T8:50:20Z</time></trkpt>
<trkpt lat="46.1921694" lon="6.0219445"><ele></ele><time>2015-4-16T8:50:23Z</time></trkpt>
<trkpt lat="46.1921875" lon="6.0219058"><ele></ele><time>2015-4-16T8:50:26Z</time></trkpt>
<trkpt lat="46.1922057" lon="6.0218700"><ele></ele><time>2015-4-16T8:50:29Z</time></trkpt>
<trkpt lat="46.1922272" lon="6.0218350"><ele></ele><time>2015-4-16T8:50:32Z</time></trkpt>
<trkpt lat="46.1922510" lon="6.0218033"><ele></ele><time>2015-4-16T8:50:35Z</time></trkpt>
<trkpt lat="46.1922745" lon="6.0217730"><ele></ele><time>2015-4-16T8:50:38Z</time></trkpt>
<trkpt lat="46.1924422" lon="6.0216322"><ele></ele><time>2015-4-16T8:50:41Z</time></trkpt>
<trkpt lat="46.1924699" lon="6.0216081"><ele></ele><time>2015-4-16T8:50:44Z</time></trkpt>
<trkpt lat="46.1924933" lon="6.0215906"><ele></ele><time>2015-4-16T8:50:47Z</time></trkpt>
<trkpt lat="46.1925188" lon="6.0215724"><ele></ele><time>2015-4-16T8:50:50Z</time></trkpt>
<trkpt lat="46.1925463" lon="6.0215538"><ele></ele><time>2015-4-16T8:50:53Z</time></trkpt>
<trkpt lat="46.1926530" lon="6.0214665"><ele></ele><time>2015-4-16T8:50:56Z</time></trkpt>
<trkpt lat="46.1927058" lon="6.0214235"><ele></ele><time>2015-4-16T8:50:59Z</time></trkpt>
<trkpt lat="46.1927334" lon="6.0214017"><ele></ele><time>2015-4-16T8:51:2Z</time></trkpt>
<trkpt lat="46.1927612" lon="6.0213792"><ele></ele><time>2015-4-16T8:51:5Z</time></trkpt>
<trkpt lat="46.1927887" lon="6.0213596"><ele></ele><time>2015-4-16T8:51:8Z</time></trkpt>
<trkpt lat="46.1928193" lon="6.0213398"><ele></ele><time>2015-4-16T8:51:11Z</time></trkpt>
<trkpt lat="46.1929326" lon="6.0212513"><ele></ele><time>2015-4-16T8:51:14Z</time></trkpt>
<trkpt lat="46.1930106" lon="6.0211839"><ele></ele><time>2015-4-16T8:51:17Z</time></trkpt>
<trkpt lat="46.1930572" lon="6.0211415"><ele></ele><time>2015-4-16T8:51:20Z</time></trkpt>
<trkpt lat="46.1930781" lon="6.0211121"><ele></ele><time>2015-4-16T8:51:23Z</time></trkpt>
<trkpt lat="46.1930959" lon="6.0210836"><ele></ele><time>2015-4-16T8:51:26Z</time></trkpt>
<trkpt lat="46.1931156" lon="6.0210487"><ele></ele><time>2015-4-16T8:51:29Z</time></trkpt>
<trkpt lat="46.1931340" lon="6.0210112"><ele></ele><time>2015-4-16T8:51:32Z</time></trkpt>
<trkpt lat="46.1931891" lon="6.0208015"><ele></ele><time>2015-4-16T8:51:35Z</time></trkpt>
<trkpt lat="46.1931907" lon="6.0207583"><ele></ele><time>2015-4-16T8:51:38Z</time></trkpt>
<trkpt lat="46.1931881" lon="6.0207132"><ele></ele><time>2015-4-16T8:51:41Z</time></trkpt>
<trkpt lat="46.1931859" lon="6.0206696"><ele></ele><time>2015-4-16T8:51:44Z</time></trkpt>
<trkpt lat="46.1931811" lon="6.0206255"><ele></ele><time>2015-4-16T8:51:47Z</time></trkpt>
<trkpt lat="46.1931200" lon="6.0204278"><ele></ele><time>2015-4-16T8:51:50Z</time></trkpt>
<trkpt lat="46.1930636" lon="6.0203192"><ele></ele><time>2015-4-16T8:51:53Z</time></trkpt>
<trkpt lat="46.1930407" lon="6.0202909"><ele></ele><time>2015-4-16T8:51:56Z</time></trkpt>
<trkpt lat="46.1929872" lon="6.0202458"><ele></ele><time>2015-4-16T8:51:59Z</time></trkpt>
<trkpt lat="46.1929596" lon="6.0202255"><ele></ele><time>2015-4-16T8:52:2Z</time></trkpt>
<trkpt lat="46.1929303" lon="6.0202082"><ele></ele><time>2015-4-16T8:52:5Z</time></trkpt>
<trkpt lat="46.1927732" lon="6.0201804"><ele></ele><time>2015-4-16T8:52:8Z</time></trkpt>
<trkpt lat="46.1927417" lon="6.0201822"><ele></ele><time>2015-4-16T8:52:11Z</time></trkpt>
<trkpt lat="46.1927089" lon="6.0201877"><ele></ele><time>2015-4-16T8:52:14Z</time></trkpt>
<trkpt lat="46.1926768" lon="6.0201898"><ele></ele><time>2015-4-16T8:52:17Z</time></trkpt>
<trkpt lat="46.1926455" lon="6.0201939"><ele></ele><time>2015-4-16T8:52:20Z</time></trkpt>
<trkpt lat="46.1926141" lon="6.0201967"><ele></ele><time>2015-4-16T8:52:23Z</time></trkpt>
<trkpt lat="46.1923956" lon="6.0202056"><ele></ele><time>2015-4-16T8:52:26Z</time></trkpt>
<trkpt lat="46.1923639" lon="6.0202026"><ele></ele><time>2015-4-16T8:52:29Z</time></trkpt>
<trkpt lat="46.1923339" lon="6.0201866"><ele></ele><time>2015-4-16T8:52:32Z</time></trkpt>
<trkpt lat="46.1923049" lon="6.0201674"><ele></ele><time>2015-4-16T8:52:35Z</time></trkpt>
<trkpt lat="46.1922773" lon="6.0201472"><ele></ele><time>2015-4-16T8:52:38Z</time></trkpt>
<trkpt lat="46.1921766" lon="6.0200313"><ele></ele><time>2015-4-16T8:52:41Z</time></trkpt>
<trkpt lat="46.1921389" lon="6.0199570"><ele></ele><time>2015-4-16T8:52:44Z</time></trkpt>
<trkpt lat="46.1921238" lon="6.0199122"><ele></ele><time>2015-4-16T8:52:47Z</time></trkpt>
<trkpt lat="46.1921147" lon="6.0198661"><ele></ele><time>2015-4-16T8:52:50Z</time></trkpt>
<trkpt lat="46.1921094" lon="6.0198203"><ele></ele><time>2015-4-16T8:52:53Z</time></trkpt>
<trkpt lat="46.1921052" lon="6.0197713"><ele></ele><time>2015-4-16T8:52:56Z</time></trkpt>
<trkpt lat="46.1921192" lon="6.0195891"><ele></ele><time>2015-4-16T8:52:59Z</time></trkpt>
<trkpt lat="46.1921270" lon="6.0195408"><ele></ele><time>2015-4-16T8:53:2Z</time></trkpt>
<trkpt lat="46.1921370" lon="6.0194968"><ele></ele><time>2015-4-16T8:53:5Z</time></trkpt>
<trkpt lat="46.1921471" lon="6.0194503"><ele></ele><time>2015-4-16T8:53:8Z</time></trkpt>
<trkpt lat="46.1921590" lon="6.0194072"><ele></ele><time>2015-4-16T8:53:11Z</time></trkpt>
<trkpt lat="46.1922041" lon="6.0192810"><ele></ele><time>2015-4-16T8:53:14Z</time></trkpt>
<trkpt lat="46.1923090" lon="6.0189934"><ele></ele><time>2015-4-16T8:53:17Z</time></trkpt>
<trkpt lat="46.1923255" lon="6.0189561"><ele></ele><time>2015-4-16T8:53:20Z</time></trkpt>
<trkpt lat="46.1923401" lon="6.0189149"><ele></ele><time>2015-4-16T8:53:23Z</time></trkpt>
<trkpt lat="46.1923572" lon="6.0188774"><ele></ele><time>2015-4-16T8:53:26Z</time></trkpt>
<trkpt lat="46.1923753" lon="6.0188355"><ele></ele><time>2015-4-16T8:53:29Z</time></trkpt>
<trkpt lat="46.1924317" lon="6.0186646"><ele></ele><time>2015-4-16T8:53:32Z</time></trkpt>
<trkpt lat="46.1924475" lon="6.0186245"><ele></ele><time>2015-4-16T8:53:35Z</time></trkpt>
<trkpt lat="46.1924646" lon="6.0185870"><ele></ele><time>2015-4-16T8:53:38Z</time></trkpt>
<trkpt lat="46.1924812" lon="6.0185467"><ele></ele><time>2015-4-16T8:53:41Z</time></trkpt>
<trkpt lat="46.1924967" lon="6.0185065"><ele></ele><time>2015-4-16T8:53:44Z</time></trkpt>
<trkpt lat="46.1925242" lon="6.0184186"><ele></ele><time>2015-4-16T8:53:47Z</time></trkpt>
<trkpt lat="46.1926509" lon="6.0180623"><ele></ele><time>2015-4-16T8:53:50Z</time></trkpt>
<trkpt lat="46.1926696" lon="6.0180151"><ele></ele><time>2015-4-16T8:53:53Z</time></trkpt>
<trkpt lat="46.1926856" lon="6.0179626"><ele></ele><time>2015-4-16T8:53:56Z</time></trkpt>
<trkpt lat="46.1927008" lon="6.0179128"><ele></ele><time>2015-4-16T8:53:59Z</time></trkpt>
<trkpt lat="46.1927174" lon="6.0178606"><ele></ele><time>2015-4-16T8:54:2Z</time></trkpt>
<trkpt lat="46.1927950" lon="6.0176462"><ele></ele><time>2015-4-16T8:54:5Z</time></trkpt>
<trkpt lat="46.1930287" lon="6.0170193"><ele></ele><time>2015-4-16T8:54:8Z</time></trkpt>
<trkpt lat="46.1931934" lon="6.0166002"><ele></ele><time>2015-4-16T8:54:11Z</time></trkpt>
<trkpt lat="46.1932896" lon="6.0165104"><ele></ele><time>2015-4-16T8:54:14Z</time></trkpt>
<trkpt lat="46.1933246" lon="6.0164876"><ele></ele><time>2015-4-16T8:54:17Z</time></trkpt>
<trkpt lat="46.1933608" lon="6.0164638"><ele></ele><time>2015-4-16T8:54:20Z</time></trkpt>
<trkpt lat="46.1933989" lon="6.0164436"><ele></ele><time>2015-4-16T8:54:23Z</time></trkpt>
<trkpt lat="46.1934379" lon="6.0164370"><ele></ele><time>2015-4-16T8:54:26Z</time></trkpt>
<trkpt lat="46.1935199" lon="6.0164544"><ele></ele><time>2015-4-16T8:54:29Z</time></trkpt>
<trkpt lat="46.1936726" lon="6.0165261"><ele></ele><time>2015-4-16T8:54:32Z</time></trkpt>
<trkpt lat="46.1937875" lon="6.0165836"><ele></ele><time>2015-4-16T8:54:35Z</time></trkpt>
<trkpt lat="46.1941794" lon="6.0167411"><ele></ele><time>2015-4-16T8:54:38Z</time></trkpt>
<trkpt lat="46.1943431" lon="6.0167899"><ele></ele><time>2015-4-16T8:54:41Z</time></trkpt>
<trkpt lat="46.1943840" lon="6.0167828"><ele></ele><time>2015-4-16T8:54:44Z</time></trkpt>
<trkpt lat="46.1945734" lon="6.0166350"><ele></ele><time>2015-4-16T8:54:47Z</time></trkpt>
<trkpt lat="46.1948960" lon="6.0162576"><ele></ele><time>2015-4-16T8:54:50Z</time></trkpt>
<trkpt lat="46.1953421" lon="6.0157093"><ele></ele><time>2015-4-16T8:54:53Z</time></trkpt>
<trkpt lat="46.1953787" lon="6.0156656"><ele></ele><time>2015-4-16T8:54:56Z</time></trkpt>
<trkpt lat="46.1958026" lon="6.0151435"><ele></ele><time>2015-4-16T8:54:59Z</time></trkpt>
<trkpt lat="46.1958709" lon="6.0150457"><ele></ele><time>2015-4-16T8:55:2Z</time></trkpt>
<trkpt lat="46.1961705" lon="6.0145111"><ele></ele><time>2015-4-16T8:55:5Z</time></trkpt>
<trkpt lat="46.1965055" lon="6.0138346"><ele></ele><time>2015-4-16T8:55:8Z</time></trkpt>
<trkpt lat="46.1968179" lon="6.0133826"><ele></ele><time>2015-4-16T8:55:11Z</time></trkpt>
<trkpt lat="46.1970970" lon="6.0129861"><ele></ele><time>2015-4-16T8:55:14Z</time></trkpt>
<trkpt lat="46.1971166" lon="6.0129255"><ele></ele><time>2015-4-16T8:55:17Z</time></trkpt>
<trkpt lat="46.1970752" lon="6.0127277"><ele></ele><time>2015-4-16T8:55:20Z</time></trkpt>
<trkpt lat="46.1970057" lon="6.0126198"><ele></ele><time>2015-4-16T8:55:23Z</time></trkpt>
<trkpt lat="46.1968276" lon="6.0123450"><ele></ele><time>2015-4-16T8:55:26Z</time></trkpt>
<trkpt lat="46.1964417" lon="6.0117224"><ele></ele><time>2015-4-16T8:55:29Z</time></trkpt>
<trkpt lat="46.1964089" lon="6.0116644"><ele></ele><time>2015-4-16T8:55:32Z</time></trkpt>
<trkpt lat="46.1963215" lon="6.0115120"><ele></ele><time>2015-4-16T8:55:35Z</time></trkpt>
<trkpt lat="46.1963225" lon="6.0114110"><ele></ele><time>2015-4-16T8:55:38Z</time></trkpt>
<trkpt lat="46.1964386" lon="6.0113234"><ele></ele><time>2015-4-16T8:55:41Z</time></trkpt>
<trkpt lat="46.1967118" lon="6.0111823"><ele></ele><time>2015-4-16T8:55:44Z</time></trkpt>
<trkpt lat="46.1967605" lon="6.0111587"><ele></ele><time>2015-4-16T8:55:47Z</time></trkpt>
<trkpt lat="46.1968039" lon="6.0111360"><ele></ele><time>2015-4-16T8:55:50Z</time></trkpt>
<trkpt lat="46.1968500" lon="6.0111120"><ele></ele><time>2015-4-16T8:55:53Z</time></trkpt>
<trkpt lat="46.1968982" lon="6.0110874"><ele></ele><time>2015-4-16T8:55:56Z</time></trkpt>
<trkpt lat="46.1969469" lon="6.0110648"><ele></ele><time>2015-4-16T8:55:59Z</time></trkpt>
<trkpt lat="46.1974734" lon="6.0108380"><ele></ele><time>2015-4-16T8:56:2Z</time></trkpt>
<trkpt lat="46.1975153" lon="6.0108239"><ele></ele><time>2015-4-16T8:56:5Z</time></trkpt>
<trkpt lat="46.1978656" lon="6.0107027"><ele></ele><time>2015-4-16T8:56:8Z</time></trkpt>
<trkpt lat="46.1984138" lon="6.0105941"><ele></ele><time>2015-4-16T8:56:11Z</time></trkpt>
<trkpt lat="46.1988909" lon="6.0104037"><ele></ele><time>2015-4-16T8:56:14Z</time></trkpt>
<trkpt lat="46.1994306" lon="6.0101151"><ele></ele><time>2015-4-16T8:56:17Z</time></trkpt>
<trkpt lat="46.1994774" lon="6.0100934"><ele></ele><time>2015-4-16T8:56:20Z</time></trkpt>
<trkpt lat="46.1996912" lon="6.0099417"><ele></ele><time>2015-4-16T8:56:23Z</time></trkpt>
<trkpt lat="46.1997539" lon="6.0098416"><ele></ele><time>2015-4-16T8:56:26Z</time></trkpt>
<trkpt lat="46.1999321" lon="6.0093734"><ele></ele><time>2015-4-16T8:56:29Z</time></trkpt>
<trkpt lat="46.2000853" lon="6.0089591"><ele></ele><time>2015-4-16T8:56:32Z</time></trkpt>
<trkpt lat="46.2001077" lon="6.0088988"><ele></ele><time>2015-4-16T8:56:35Z</time></trkpt>
<trkpt lat="46.2001325" lon="6.0088394"><ele></ele><time>2015-4-16T8:56:38Z</time></trkpt>
<trkpt lat="46.2001549" lon="6.0087790"><ele></ele><time>2015-4-16T8:56:41Z</time></trkpt>
<trkpt lat="46.2001765" lon="6.0087193"><ele></ele><time>2015-4-16T8:56:44Z</time></trkpt>
<trkpt lat="46.2004340" lon="6.0080401"><ele></ele><time>2015-4-16T8:56:47Z</time></trkpt>
<trkpt lat="46.2004519" lon="6.0079871"><ele></ele><time>2015-4-16T8:56:50Z</time></trkpt>
<trkpt lat="46.2004727" lon="6.0079320"><ele></ele><time>2015-4-16T8:56:53Z</time></trkpt>
<trkpt lat="46.2004939" lon="6.0078813"><ele></ele><time>2015-4-16T8:56:56Z</time></trkpt>
<trkpt lat="46.2005145" lon="6.0078284"><ele></ele><time>2015-4-16T8:56:59Z</time></trkpt>
<trkpt lat="46.2006334" lon="6.0075139"><ele></ele><time>2015-4-16T8:57:2Z</time></trkpt>
<trkpt lat="46.2006708" lon="6.0074092"><ele></ele><time>2015-4-16T8:57:5Z</time></trkpt>
<trkpt lat="46.2006909" lon="6.0073540"><ele></ele><time>2015-4-16T8:57:8Z</time></trkpt>
<trkpt lat="46.2007093" lon="6.0073049"><ele></ele><time>2015-4-16T8:57:11Z</time></trkpt>
<trkpt lat="46.2007288" lon="6.0072523"><ele></ele><time>2015-4-16T8:57:14Z</time></trkpt>
<trkpt lat="46.2007482" lon="6.0071991"><ele></ele><time>2015-4-16T8:57:17Z</time></trkpt>
<trkpt lat="46.2008807" lon="6.0068527"><ele></ele><time>2015-4-16T8:57:20Z</time></trkpt>
<trkpt lat="46.2008993" lon="6.0068052"><ele></ele><time>2015-4-16T8:57:23Z</time></trkpt>
<trkpt lat="46.2009202" lon="6.0067526"><ele></ele><time>2015-4-16T8:57:26Z</time></trkpt>
<trkpt lat="46.2009393" lon="6.0066995"><ele></ele><time>2015-4-16T8:57:29Z</time></trkpt>
<trkpt lat="46.2009579" lon="6.0066437"><ele></ele><time>2015-4-16T8:57:32Z</time></trkpt>
<trkpt lat="46.2010181" lon="6.0064877"><ele></ele><time>2015-4-16T8:57:35Z</time></trkpt>
<trkpt lat="46.2010789" lon="6.0063293"><ele></ele><time>2015-4-16T8:57:38Z</time></trkpt>
<trkpt lat="46.2011760" lon="6.0060778"><ele></ele><time>2015-4-16T8:57:41Z</time></trkpt>
<trkpt lat="46.2011967" lon="6.0060315"><ele></ele><time>2015-4-16T8:57:44Z</time></trkpt>
<trkpt lat="46.2012177" lon="6.0059835"><ele></ele><time>2015-4-16T8:57:47Z</time></trkpt>
<trkpt lat="46.2012395" lon="6.0059376"><ele></ele><time>2015-4-16T8:57:50Z</time></trkpt>
<trkpt lat="46.2012605" lon="6.0058893"><ele></ele><time>2015-4-16T8:57:53Z</time></trkpt>
<trkpt lat="46.2012987" lon="6.0057873"><ele></ele><time>2015-4-16T8:57:56Z</time></trkpt>
<trkpt lat="46.2014145" lon="6.0054838"><ele></ele><time>2015-4-16T8:57:59Z</time></trkpt>
<trkpt lat="46.2014683" lon="6.0053328"><ele></ele><time>2015-4-16T8:58:2Z</time></trkpt>
<trkpt lat="46.2014861" lon="6.0052829"><ele></ele><time>2015-4-16T8:58:5Z</time></trkpt>
<trkpt lat="46.2015047" lon="6.0052341"><ele></ele><time>2015-4-16T8:58:8Z</time></trkpt>
<trkpt lat="46.2015243" lon="6.0051852"><ele></ele><time>2015-4-16T8:58:11Z</time></trkpt>
<trkpt lat="46.2015433" lon="6.0051367"><ele></ele><time>2015-4-16T8:58:14Z</time></trkpt>
<trkpt lat="46.2016180" lon="6.0049421"><ele></ele><time>2015-4-16T8:58:17Z</time></trkpt>
<trkpt lat="46.2018414" lon="6.0044489"><ele></ele><time>2015-4-16T8:58:20Z</time></trkpt>
<trkpt lat="46.2018663" lon="6.0044005"><ele></ele><time>2015-4-16T8:58:23Z</time></trkpt>
<trkpt lat="46.2018907" lon="6.0043585"><ele></ele><time>2015-4-16T8:58:26Z</time></trkpt>
<trkpt lat="46.2019164" lon="6.0043172"><ele></ele><time>2015-4-16T8:58:29Z</time></trkpt>
<trkpt lat="46.2019438" lon="6.0042769"><ele></ele><time>2015-4-16T8:58:32Z</time></trkpt>
<trkpt lat="46.2021175" lon="6.0040514"><ele></ele><time>2015-4-16T8:58:35Z</time></trkpt>
<trkpt lat="46.2023216" lon="6.0038924"><ele></ele><time>2015-4-16T8:58:38Z</time></trkpt>
<trkpt lat="46.2024299" lon="6.0038349"><ele></ele><time>2015-4-16T8:58:41Z</time></trkpt>
<trkpt lat="46.2024661" lon="6.0038145"><ele></ele><time>2015-4-16T8:58:44Z</time></trkpt>
<trkpt lat="46.2025343" lon="6.0037686"><ele></ele><time>2015-4-16T8:58:47Z</time></trkpt>
<trkpt lat="46.2025708" lon="6.0037488"><ele></ele><time>2015-4-16T8:58:50Z</time></trkpt>
<trkpt lat="46.2026086" lon="6.0037329"><ele></ele><time>2015-4-16T8:58:53Z</time></trkpt>
<trkpt lat="46.2028578" lon="6.0035922"><ele></ele><time>2015-4-16T8:58:56Z</time></trkpt>
<trkpt lat="46.2031602" lon="6.0034499"><ele></ele><time>2015-4-16T8:58:59Z</time></trkpt>
<trkpt lat="46.2031960" lon="6.0034325"><ele></ele><time>2015-4-16T8:59:2Z</time></trkpt>
<trkpt lat="46.2032337" lon="6.0034146"><ele></ele><time>2015-4-16T8:59:5Z</time></trkpt>
<trkpt lat="46.2032715" lon="6.0033987"><ele></ele><time>2015-4-16T8:59:8Z</time></trkpt>
<trkpt lat="46.2033089" lon="6.0033816"><ele></ele><time>2015-4-16T8:59:11Z</time></trkpt>
<trkpt lat="46.2037589" lon="6.0031570"><ele></ele><time>2015-4-16T8:59:14Z</time></trkpt>
<trkpt lat="46.2040756" lon="6.0029565"><ele></ele><time>2015-4-16T8:59:17Z</time></trkpt>
<trkpt lat="46.2041093" lon="6.0029265"><ele></ele><time>2015-4-16T8:59:20Z</time></trkpt>
<trkpt lat="46.2041425" lon="6.0028937"><ele></ele><time>2015-4-16T8:59:23Z</time></trkpt>
<trkpt lat="46.2041753" lon="6.0028600"><ele></ele><time>2015-4-16T8:59:26Z</time></trkpt>
<trkpt lat="46.2042085" lon="6.0028238"><ele></ele><time>2015-4-16T8:59:29Z</time></trkpt>
<trkpt lat="46.2044403" lon="6.0025552"><ele></ele><time>2015-4-16T8:59:32Z</time></trkpt>
<trkpt lat="46.2047328" lon="6.0022016"><ele></ele><time>2015-4-16T8:59:35Z</time></trkpt>
<trkpt lat="46.2047593" lon="6.0021628"><ele></ele><time>2015-4-16T8:59:38Z</time></trkpt>
<trkpt lat="46.2049458" lon="6.0019216"><ele></ele><time>2015-4-16T8:59:41Z</time></trkpt>
<trkpt lat="46.2051028" lon="6.0017130"><ele></ele><time>2015-4-16T8:59:44Z</time></trkpt>
<trkpt lat="46.2051665" lon="6.0016301"><ele></ele><time>2015-4-16T8:59:47Z</time></trkpt>
<trkpt lat="46.2053593" lon="6.0013939"><ele></ele><time>2015-4-16T8:59:50Z</time></trkpt>
<trkpt lat="46.2056860" lon="6.0009943"><ele></ele><time>2015-4-16T8:59:53Z</time></trkpt>
<trkpt lat="46.2059728" lon="6.0006368"><ele></ele><time>2015-4-16T8:59:56Z</time></trkpt>
<trkpt lat="46.2060271" lon="6.0005852"><ele></ele><time>2015-4-16T8:59:59Z</time></trkpt>
<trkpt lat="46.2060834" lon="6.0005387"><ele></ele><time>2015-4-16T9:0:2Z</time></trkpt>
<trkpt lat="46.2061406" lon="6.0004959"><ele></ele><time>2015-4-16T9:0:5Z</time></trkpt>
<trkpt lat="46.2061993" lon="6.0004577"><ele></ele><time>2015-4-16T9:0:8Z</time></trkpt>
<trkpt lat="46.2065820" lon="6.0002775"><ele></ele><time>2015-4-16T9:0:11Z</time></trkpt>
<trkpt lat="46.2066508" lon="6.0002499"><ele></ele><time>2015-4-16T9:0:14Z</time></trkpt>
<trkpt lat="46.2067182" lon="6.0002209"><ele></ele><time>2015-4-16T9:0:17Z</time></trkpt>
<trkpt lat="46.2067884" lon="6.0001897"><ele></ele><time>2015-4-16T9:0:20Z</time></trkpt>
<trkpt lat="46.2068570" lon="6.0001592"><ele></ele><time>2015-4-16T9:0:23Z</time></trkpt>
<trkpt lat="46.2070688" lon="6.0000554"><ele></ele><time>2015-4-16T9:0:26Z</time></trkpt>
<trkpt lat="46.2071387" lon="6.0000110"><ele></ele><time>2015-4-16T9:0:29Z</time></trkpt>
<trkpt lat="46.2072107" lon="5.9999652"><ele></ele><time>2015-4-16T9:0:32Z</time></trkpt>
<trkpt lat="46.2072777" lon="5.9999208"><ele></ele><time>2015-4-16T9:0:35Z</time></trkpt>
<trkpt lat="46.2073404" lon="5.9998526"><ele></ele><time>2015-4-16T9:0:38Z</time></trkpt>
<trkpt lat="46.2073970" lon="5.9997763"><ele></ele><time>2015-4-16T9:0:41Z</time></trkpt>
<trkpt lat="46.2074333" lon="5.9996662"><ele></ele><time>2015-4-16T9:0:44Z</time></trkpt>
<trkpt lat="46.2074650" lon="5.9995558"><ele></ele><time>2015-4-16T9:0:47Z</time></trkpt>
<trkpt lat="46.2074829" lon="5.9994381"><ele></ele><time>2015-4-16T9:0:50Z</time></trkpt>
<trkpt lat="46.2074934" lon="5.9993241"><ele></ele><time>2015-4-16T9:0:53Z</time></trkpt>
<trkpt lat="46.2075077" lon="5.9992080"><ele></ele><time>2015-4-16T9:0:56Z</time></trkpt>
<trkpt lat="46.2075720" lon="5.9985610"><ele></ele><time>2015-4-16T9:0:59Z</time></trkpt>
<trkpt lat="46.2075746" lon="5.9981824"><ele></ele><time>2015-4-16T9:1:2Z</time></trkpt>
<trkpt lat="46.2075311" lon="5.9979954"><ele></ele><time>2015-4-16T9:1:5Z</time></trkpt>
<trkpt lat="46.2074148" lon="5.9977489"><ele></ele><time>2015-4-16T9:1:8Z</time></trkpt>
<trkpt lat="46.2073733" lon="5.9976784"><ele></ele><time>2015-4-16T9:1:11Z</time></trkpt>
<trkpt lat="46.2073271" lon="5.9976043"><ele></ele><time>2015-4-16T9:1:14Z</time></trkpt>
<trkpt lat="46.2072837" lon="5.9975365"><ele></ele><time>2015-4-16T9:1:17Z</time></trkpt>
<trkpt lat="46.2072412" lon="5.9974645"><ele></ele><time>2015-4-16T9:1:20Z</time></trkpt>
<trkpt lat="46.2072047" lon="5.9973911"><ele></ele><time>2015-4-16T9:1:23Z</time></trkpt>
<trkpt lat="46.2071303" lon="5.9972406"><ele></ele><time>2015-4-16T9:1:26Z</time></trkpt>
<trkpt lat="46.2071082" lon="5.9971597"><ele></ele><time>2015-4-16T9:1:29Z</time></trkpt>
<trkpt lat="46.2071024" lon="5.9970697"><ele></ele><time>2015-4-16T9:1:32Z</time></trkpt>
<trkpt lat="46.2071136" lon="5.9969855"><ele></ele><time>2015-4-16T9:1:35Z</time></trkpt>
<trkpt lat="46.2071322" lon="5.9969055"><ele></ele><time>2015-4-16T9:1:38Z</time></trkpt>
<trkpt lat="46.2071685" lon="5.9968255"><ele></ele><time>2015-4-16T9:1:41Z</time></trkpt>
<trkpt lat="46.2072124" lon="5.9967615"><ele></ele><time>2015-4-16T9:1:44Z</time></trkpt>
<trkpt lat="46.2072831" lon="5.9967182"><ele></ele><time>2015-4-16T9:1:47Z</time></trkpt>
<trkpt lat="46.2073583" lon="5.9966849"><ele></ele><time>2015-4-16T9:1:50Z</time></trkpt>
<trkpt lat="46.2074259" lon="5.9966444"><ele></ele><time>2015-4-16T9:1:53Z</time></trkpt>
<trkpt lat="46.2074955" lon="5.9965968"><ele></ele><time>2015-4-16T9:1:56Z</time></trkpt>
<trkpt lat="46.2075648" lon="5.9965409"><ele></ele><time>2015-4-16T9:1:59Z</time></trkpt>
<trkpt lat="46.2076263" lon="5.9964798"><ele></ele><time>2015-4-16T9:2:2Z</time></trkpt>
<trkpt lat="46.2076897" lon="5.9964220"><ele></ele><time>2015-4-16T9:2:5Z</time></trkpt>
<trkpt lat="46.2077514" lon="5.9963578"><ele></ele><time>2015-4-16T9:2:8Z</time></trkpt>
<trkpt lat="46.2078071" lon="5.9962824"><ele></ele><time>2015-4-16T9:2:11Z</time></trkpt>
<trkpt lat="46.2078548" lon="5.9962186"><ele></ele><time>2015-4-16T9:2:14Z</time></trkpt>
<trkpt lat="46.2078919" lon="5.9961618"><ele></ele><time>2015-4-16T9:2:17Z</time></trkpt>
<trkpt lat="46.2079221" lon="5.9960933"><ele></ele><time>2015-4-16T9:2:20Z</time></trkpt>
<trkpt lat="46.2079001" lon="5.9960085"><ele></ele><time>2015-4-16T9:2:23Z</time></trkpt>
<trkpt lat="46.2078662" lon="5.9959437"><ele></ele><time>2015-4-16T9:2:26Z</time></trkpt>
<trkpt lat="46.2078093" lon="5.9959235"><ele></ele><time>2015-4-16T9:2:29Z</time></trkpt>
<trkpt lat="46.2077348" lon="5.9959557"><ele></ele><time>2015-4-16T9:2:32Z</time></trkpt>
<trkpt lat="46.2076683" lon="5.9960183"><ele></ele><time>2015-4-16T9:2:35Z</time></trkpt>
<trkpt lat="46.2076036" lon="5.9960845"><ele></ele><time>2015-4-16T9:2:38Z</time></trkpt>
<trkpt lat="46.2075380" lon="5.9961534"><ele></ele><time>2015-4-16T9:2:41Z</time></trkpt>
<trkpt lat="46.2074727" lon="5.9962170"><ele></ele><time>2015-4-16T9:2:44Z</time></trkpt>
<trkpt lat="46.2074142" lon="5.9962676"><ele></ele><time>2015-4-16T9:2:47Z</time></trkpt>
<trkpt lat="46.2073546" lon="5.9962798"><ele></ele><time>2015-4-16T9:2:50Z</time></trkpt>
<trkpt lat="46.2072975" lon="5.9962411"><ele></ele><time>2015-4-16T9:2:53Z</time></trkpt>
<trkpt lat="46.2072567" lon="5.9961885"><ele></ele><time>2015-4-16T9:2:56Z</time></trkpt>
<trkpt lat="46.2072370" lon="5.9961190"><ele></ele><time>2015-4-16T9:2:59Z</time></trkpt>
<trkpt lat="46.2072286" lon="5.9960394"><ele></ele><time>2015-4-16T9:3:2Z</time></trkpt>
<trkpt lat="46.2072769" lon="5.9959457"><ele></ele><time>2015-4-16T9:3:5Z</time></trkpt>
<trkpt lat="46.2073185" lon="5.9958623"><ele></ele><time>2015-4-16T9:3:8Z</time></trkpt>
<trkpt lat="46.2073663" lon="5.9957642"><ele></ele><time>2015-4-16T9:3:11Z</time></trkpt>
<trkpt lat="46.2074152" lon="5.9956668"><ele></ele><time>2015-4-16T9:3:14Z</time></trkpt>
<trkpt lat="46.2074657" lon="5.9955623"><ele></ele><time>2015-4-16T9:3:17Z</time></trkpt>
<trkpt lat="46.2075139" lon="5.9954603"><ele></ele><time>2015-4-16T9:3:20Z</time></trkpt>
<trkpt lat="46.2075603" lon="5.9953611"><ele></ele><time>2015-4-16T9:3:23Z</time></trkpt>
<trkpt lat="46.2076025" lon="5.9952614"><ele></ele><time>2015-4-16T9:3:26Z</time></trkpt>
<trkpt lat="46.2076417" lon="5.9951600"><ele></ele><time>2015-4-16T9:3:29Z</time></trkpt>
<trkpt lat="46.2076835" lon="5.9950617"><ele></ele><time>2015-4-16T9:3:32Z</time></trkpt>
<trkpt lat="46.2077250" lon="5.9949721"><ele></ele><time>2015-4-16T9:3:35Z</time></trkpt>
<trkpt lat="46.2077718" lon="5.9948796"><ele></ele><time>2015-4-16T9:3:38Z</time></trkpt>
<trkpt lat="46.2078136" lon="5.9948007"><ele></ele><time>2015-4-16T9:3:41Z</time></trkpt>
<trkpt lat="46.2078573" lon="5.9947190"><ele></ele><time>2015-4-16T9:3:44Z</time></trkpt>
<trkpt lat="46.2079004" lon="5.9946464"><ele></ele><time>2015-4-16T9:3:47Z</time></trkpt>
<trkpt lat="46.2079514" lon="5.9945568"><ele></ele><time>2015-4-16T9:3:50Z</time></trkpt>
<trkpt lat="46.2079976" lon="5.9944609"><ele></ele><time>2015-4-16T9:3:53Z</time></trkpt>
<trkpt lat="46.2080445" lon="5.9943649"><ele></ele><time>2015-4-16T9:3:56Z</time></trkpt>
<trkpt lat="46.2080965" lon="5.9942707"><ele></ele><time>2015-4-16T9:3:59Z</time></trkpt>
<trkpt lat="46.2081513" lon="5.9941819"><ele></ele><time>2015-4-16T9:4:2Z</time></trkpt>
<trkpt lat="46.2082038" lon="5.9941032"><ele></ele><time>2015-4-16T9:4:5Z</time></trkpt>
<trkpt lat="46.2082623" lon="5.9940148"><ele></ele><time>2015-4-16T9:4:8Z</time></trkpt>
<trkpt lat="46.2083192" lon="5.9939304"><ele></ele><time>2015-4-16T9:4:11Z</time></trkpt>
<trkpt lat="46.2083774" lon="5.9938574"><ele></ele><time>2015-4-16T9:4:14Z</time></trkpt>
<trkpt lat="46.2084476" lon="5.9937975"><ele></ele><time>2015-4-16T9:4:17Z</time></trkpt>
<trkpt lat="46.2085147" lon="5.9937491"><ele></ele><time>2015-4-16T9:4:20Z</time></trkpt>
<trkpt lat="46.2085893" lon="5.9937249"><ele></ele><time>2015-4-16T9:4:23Z</time></trkpt>
<trkpt lat="46.2086890" lon="5.9937215"><ele></ele><time>2015-4-16T9:4:26Z</time></trkpt>
<trkpt lat="46.2087809" lon="5.9937000"><ele></ele><time>2015-4-16T9:4:29Z</time></trkpt>
<trkpt lat="46.2088839" lon="5.9936674"><ele></ele><time>2015-4-16T9:4:32Z</time></trkpt>
<trkpt lat="46.2089823" lon="5.9936214"><ele></ele><time>2015-4-16T9:4:35Z</time></trkpt>
<trkpt lat="46.2090805" lon="5.9935757"><ele></ele><time>2015-4-16T9:4:38Z</time></trkpt>
<trkpt lat="46.2091760" lon="5.9935328"><ele></ele><time>2015-4-16T9:4:41Z</time></trkpt>
<trkpt lat="46.2092724" lon="5.9934863"><ele></ele><time>2015-4-16T9:4:44Z</time></trkpt>
<trkpt lat="46.2094622" lon="5.9934001"><ele></ele><time>2015-4-16T9:4:47Z</time></trkpt>
<trkpt lat="46.2095567" lon="5.9933605"><ele></ele><time>2015-4-16T9:4:50Z</time></trkpt>
<trkpt lat="46.2096550" lon="5.9933257"><ele></ele><time>2015-4-16T9:4:53Z</time></trkpt>
<trkpt lat="46.2097496" lon="5.9932869"><ele></ele><time>2015-4-16T9:4:56Z</time></trkpt>
<trkpt lat="46.2098468" lon="5.9932432"><ele></ele><time>2015-4-16T9:4:59Z</time></trkpt>
<trkpt lat="46.2099361" lon="5.9931961"><ele></ele><time>2015-4-16T9:5:2Z</time></trkpt>
<trkpt lat="46.2100338" lon="5.9931432"><ele></ele><time>2015-4-16T9:5:5Z</time></trkpt>
<trkpt lat="46.2101044" lon="5.9931052"><ele></ele><time>2015-4-16T9:5:8Z</time></trkpt>
<trkpt lat="46.2101659" lon="5.9930727"><ele></ele><time>2015-4-16T9:5:11Z</time></trkpt>
<trkpt lat="46.2102319" lon="5.9930401"><ele></ele><time>2015-4-16T9:5:14Z</time></trkpt>
<trkpt lat="46.2102836" lon="5.9930082"><ele></ele><time>2015-4-16T9:5:17Z</time></trkpt>
<trkpt lat="46.2103316" lon="5.9929804"><ele></ele><time>2015-4-16T9:5:20Z</time></trkpt>
<trkpt lat="46.2103733" lon="5.9929605"><ele></ele><time>2015-4-16T9:5:23Z</time></trkpt>
<trkpt lat="46.2104106" lon="5.9929432"><ele></ele><time>2015-4-16T9:5:26Z</time></trkpt>
<trkpt lat="46.2104449" lon="5.9929262"><ele></ele><time>2015-4-16T9:5:29Z</time></trkpt>
<trkpt lat="46.2104774" lon="5.9929094"><ele></ele><time>2015-4-16T9:5:32Z</time></trkpt>
<trkpt lat="46.2105121" lon="5.9928909"><ele></ele><time>2015-4-16T9:5:35Z</time></trkpt>
<trkpt lat="46.2105436" lon="5.9928737"><ele></ele><time>2015-4-16T9:5:38Z</time></trkpt>
<trkpt lat="46.2105729" lon="5.9928533"><ele></ele><time>2015-4-16T9:5:41Z</time></trkpt>
<trkpt lat="46.2106028" lon="5.9928360"><ele></ele><time>2015-4-16T9:5:44Z</time></trkpt>
<trkpt lat="46.2106330" lon="5.9928210"><ele></ele><time>2015-4-16T9:5:47Z</time></trkpt>
<trkpt lat="46.2106939" lon="5.9927876"><ele></ele><time>2015-4-16T9:5:50Z</time></trkpt>
<trkpt lat="46.2107243" lon="5.9927682"><ele></ele><time>2015-4-16T9:5:53Z</time></trkpt>
<trkpt lat="46.2107533" lon="5.9927459"><ele></ele><time>2015-4-16T9:5:56Z</time></trkpt>
<trkpt lat="46.2107834" lon="5.9927256"><ele></ele><time>2015-4-16T9:5:59Z</time></trkpt>
<trkpt lat="46.2108133" lon="5.9927073"><ele></ele><time>2015-4-16T9:6:2Z</time></trkpt>
<trkpt lat="46.2109707" lon="5.9926196"><ele></ele><time>2015-4-16T9:6:5Z</time></trkpt>
<trkpt lat="46.2110031" lon="5.9926017"><ele></ele><time>2015-4-16T9:6:8Z</time></trkpt>
<trkpt lat="46.2110348" lon="5.9925852"><ele></ele><time>2015-4-16T9:6:11Z</time></trkpt>
<trkpt lat="46.2110667" lon="5.9925697"><ele></ele><time>2015-4-16T9:6:14Z</time></trkpt>
<trkpt lat="46.2110977" lon="5.9925537"><ele></ele><time>2015-4-16T9:6:17Z</time></trkpt>
<trkpt lat="46.2111915" lon="5.9925037"><ele></ele><time>2015-4-16T9:6:20Z</time></trkpt>
<trkpt lat="46.2112233" lon="5.9924887"><ele></ele><time>2015-4-16T9:6:23Z</time></trkpt>
<trkpt lat="46.2112562" lon="5.9924768"><ele></ele><time>2015-4-16T9:6:26Z</time></trkpt>
<trkpt lat="46.2112887" lon="5.9924643"><ele></ele><time>2015-4-16T9:6:29Z</time></trkpt>
<trkpt lat="46.2113183" lon="5.9924525"><ele></ele><time>2015-4-16T9:6:32Z</time></trkpt>
<trkpt lat="46.2113492" lon="5.9924491"><ele></ele><time>2015-4-16T9:6:35Z</time></trkpt>
<trkpt lat="46.2114414" lon="5.9924613"><ele></ele><time>2015-4-16T9:6:38Z</time></trkpt>
<trkpt lat="46.2114743" lon="5.9924704"><ele></ele><time>2015-4-16T9:6:41Z</time></trkpt>
<trkpt lat="46.2114997" lon="5.9924869"><ele></ele><time>2015-4-16T9:6:44Z</time></trkpt>
<trkpt lat="46.2115275" lon="5.9925072"><ele></ele><time>2015-4-16T9:6:47Z</time></trkpt>
<trkpt lat="46.2115524" lon="5.9925278"><ele></ele><time>2015-4-16T9:6:50Z</time></trkpt>
<trkpt lat="46.2116052" lon="5.9925696"><ele></ele><time>2015-4-16T9:6:53Z</time></trkpt>
<trkpt lat="46.2116256" lon="5.9925914"><ele></ele><time>2015-4-16T9:6:56Z</time></trkpt>
<trkpt lat="46.2116474" lon="5.9926145"><ele></ele><time>2015-4-16T9:6:59Z</time></trkpt>
<trkpt lat="46.2116643" lon="5.9926361"><ele></ele><time>2015-4-16T9:7:2Z</time></trkpt>
<trkpt lat="46.2116838" lon="5.9926561"><ele></ele><time>2015-4-16T9:7:5Z</time></trkpt>
<trkpt lat="46.2116973" lon="5.9926722"><ele></ele><time>2015-4-16T9:7:8Z</time></trkpt>
<trkpt lat="46.2117189" lon="5.9926938"><ele></ele><time>2015-4-16T9:7:11Z</time></trkpt>
<trkpt lat="46.2117781" lon="5.9927458"><ele></ele><time>2015-4-16T9:7:14Z</time></trkpt>
<trkpt lat="46.2118012" lon="5.9927641"><ele></ele><time>2015-4-16T9:7:17Z</time></trkpt>
<trkpt lat="46.2118206" lon="5.9927775"><ele></ele><time>2015-4-16T9:7:20Z</time></trkpt>
<trkpt lat="46.2118370" lon="5.9927918"><ele></ele><time>2015-4-16T9:7:23Z</time></trkpt>
<trkpt lat="46.2118501" lon="5.9928003"><ele></ele><time>2015-4-16T9:7:26Z</time></trkpt>
<trkpt lat="46.2119431" lon="5.9928082"><ele></ele><time>2015-4-16T9:7:29Z</time></trkpt>
<trkpt lat="46.2119740" lon="5.9928041"><ele></ele><time>2015-4-16T9:7:32Z</time></trkpt>
<trkpt lat="46.2120076" lon="5.9927893"><ele></ele><time>2015-4-16T9:7:35Z</time></trkpt>
<trkpt lat="46.2120433" lon="5.9927575"><ele></ele><time>2015-4-16T9:7:38Z</time></trkpt>
<trkpt lat="46.2120793" lon="5.9927269"><ele></ele><time>2015-4-16T9:7:41Z</time></trkpt>
<trkpt lat="46.2121098" lon="5.9926055"><ele></ele><time>2015-4-16T9:7:44Z</time></trkpt>
<trkpt lat="46.2121044" lon="5.9925716"><ele></ele><time>2015-4-16T9:7:47Z</time></trkpt>
<trkpt lat="46.2120975" lon="5.9925442"><ele></ele><time>2015-4-16T9:7:50Z</time></trkpt>
<trkpt lat="46.2120898" lon="5.9925201"><ele></ele><time>2015-4-16T9:7:53Z</time></trkpt>
<trkpt lat="46.2120836" lon="5.9925087"><ele></ele><time>2015-4-16T9:7:56Z</time></trkpt>
<trkpt lat="46.2120711" lon="5.9924793"><ele></ele><time>2015-4-16T9:7:59Z</time></trkpt>
<trkpt lat="46.2120587" lon="5.9924503"><ele></ele><time>2015-4-16T9:8:2Z</time></trkpt>
<trkpt lat="46.2120522" lon="5.9924373"><ele></ele><time>2015-4-16T9:8:5Z</time></trkpt>
<trkpt lat="46.2120403" lon="5.9924077"><ele></ele><time>2015-4-16T9:8:8Z</time></trkpt>
<trkpt lat="46.2120223" lon="5.9923837"><ele></ele><time>2015-4-16T9:8:11Z</time></trkpt>
<trkpt lat="46.2120076" lon="5.9923719"><ele></ele><time>2015-4-16T9:8:14Z</time></trkpt>
<trkpt lat="46.2119937" lon="5.9923363"><ele></ele><time>2015-4-16T9:8:17Z</time></trkpt>
<trkpt lat="46.2119258" lon="5.9922676"><ele></ele><time>2015-4-16T9:8:20Z</time></trkpt>
<trkpt lat="46.2119060" lon="5.9922506"><ele></ele><time>2015-4-16T9:8:23Z</time></trkpt>
<trkpt lat="46.2118753" lon="5.9922087"><ele></ele><time>2015-4-16T9:8:26Z</time></trkpt>
<trkpt lat="46.2118491" lon="5.9921731"><ele></ele><time>2015-4-16T9:8:29Z</time></trkpt>
<trkpt lat="46.2118047" lon="5.9920825"><ele></ele><time>2015-4-16T9:8:32Z</time></trkpt>
<trkpt lat="46.2117415" lon="5.9919323"><ele></ele><time>2015-4-16T9:8:35Z</time></trkpt>
<trkpt lat="46.2117211" lon="5.9918899"><ele></ele><time>2015-4-16T9:8:38Z</time></trkpt>
<trkpt lat="46.2116890" lon="5.9918258"><ele></ele><time>2015-4-16T9:8:41Z</time></trkpt>
<trkpt lat="46.2116574" lon="5.9917683"><ele></ele><time>2015-4-16T9:8:44Z</time></trkpt>
<trkpt lat="46.2116381" lon="5.9917230"><ele></ele><time>2015-4-16T9:8:47Z</time></trkpt>
<trkpt lat="46.2115480" lon="5.9915252"><ele></ele><time>2015-4-16T9:8:50Z</time></trkpt>
<trkpt lat="46.2115329" lon="5.9914868"><ele></ele><time>2015-4-16T9:8:53Z</time></trkpt>
<trkpt lat="46.2115312" lon="5.9913952"><ele></ele><time>2015-4-16T9:8:56Z</time></trkpt>
<trkpt lat="46.2115273" lon="5.9913485"><ele></ele><time>2015-4-16T9:8:59Z</time></trkpt>
<trkpt lat="46.2114667" lon="5.9911126"><ele></ele><time>2015-4-16T9:9:2Z</time></trkpt>
<trkpt lat="46.2114578" lon="5.9910661"><ele></ele><time>2015-4-16T9:9:5Z</time></trkpt>
<trkpt lat="46.2114520" lon="5.9910253"><ele></ele><time>2015-4-16T9:9:8Z</time></trkpt>
<trkpt lat="46.2114552" lon="5.9909817"><ele></ele><time>2015-4-16T9:9:11Z</time></trkpt>
<trkpt lat="46.2114512" lon="5.9909425"><ele></ele><time>2015-4-16T9:9:14Z</time></trkpt>
<trkpt lat="46.2114358" lon="5.9908674"><ele></ele><time>2015-4-16T9:9:17Z</time></trkpt>
<trkpt lat="46.2114204" lon="5.9907306"><ele></ele><time>2015-4-16T9:9:20Z</time></trkpt>
<trkpt lat="46.2114129" lon="5.9906822"><ele></ele><time>2015-4-16T9:9:23Z</time></trkpt>
<trkpt lat="46.2114040" lon="5.9906403"><ele></ele><time>2015-4-16T9:9:26Z</time></trkpt>
<trkpt lat="46.2113955" lon="5.9905993"><ele></ele><time>2015-4-16T9:9:29Z</time></trkpt>
<trkpt lat="46.2113870" lon="5.9905532"><ele></ele><time>2015-4-16T9:9:32Z</time></trkpt>
<trkpt lat="46.2113640" lon="5.9904558"><ele></ele><time>2015-4-16T9:9:35Z</time></trkpt>
<trkpt lat="46.2113019" lon="5.9902622"><ele></ele><time>2015-4-16T9:9:38Z</time></trkpt>
<trkpt lat="46.2112909" lon="5.9902198"><ele></ele><time>2015-4-16T9:9:41Z</time></trkpt>
<trkpt lat="46.2112795" lon="5.9901803"><ele></ele><time>2015-4-16T9:9:44Z</time></trkpt>
<trkpt lat="46.2112679" lon="5.9901408"><ele></ele><time>2015-4-16T9:9:47Z</time></trkpt>
<trkpt lat="46.2112525" lon="5.9901025"><ele></ele><time>2015-4-16T9:9:50Z</time></trkpt>
<trkpt lat="46.2112396" lon="5.9900633"><ele></ele><time>2015-4-16T9:9:53Z</time></trkpt>
<trkpt lat="46.2111134" lon="5.9897107"><ele></ele><time>2015-4-16T9:9:56Z</time></trkpt>
<trkpt lat="46.2111024" lon="5.9896705"><ele></ele><time>2015-4-16T9:9:59Z</time></trkpt>
<trkpt lat="46.2110874" lon="5.9896285"><ele></ele><time>2015-4-16T9:10:2Z</time></trkpt>
<trkpt lat="46.2110743" lon="5.9895896"><ele></ele><time>2015-4-16T9:10:5Z</time></trkpt>
<trkpt lat="46.2110626" lon="5.9895488"><ele></ele><time>2015-4-16T9:10:8Z</time></trkpt>
<trkpt lat="46.2110501" lon="5.9895083"><ele></ele><time>2015-4-16T9:10:11Z</time></trkpt>
<trkpt lat="46.2109850" lon="5.9893228"><ele></ele><time>2015-4-16T9:10:14Z</time></trkpt>
<trkpt lat="46.2109200" lon="5.9891405"><ele></ele><time>2015-4-16T9:10:17Z</time></trkpt>
<trkpt lat="46.2109076" lon="5.9891014"><ele></ele><time>2015-4-16T9:10:20Z</time></trkpt>
<trkpt lat="46.2108971" lon="5.9890678"><ele></ele><time>2015-4-16T9:10:23Z</time></trkpt>
<trkpt lat="46.2108872" lon="5.9890350"><ele></ele><time>2015-4-16T9:10:26Z</time></trkpt>
<trkpt lat="46.2108738" lon="5.9889992"><ele></ele><time>2015-4-16T9:10:29Z</time></trkpt>
<trkpt lat="46.2108095" lon="5.9888310"><ele></ele><time>2015-4-16T9:10:32Z</time></trkpt>
<trkpt lat="46.2107980" lon="5.9887964"><ele></ele><time>2015-4-16T9:10:35Z</time></trkpt>
<trkpt lat="46.2107864" lon="5.9887651"><ele></ele><time>2015-4-16T9:10:38Z</time></trkpt>
<trkpt lat="46.2107787" lon="5.9887386"><ele></ele><time>2015-4-16T9:10:41Z</time></trkpt>
<trkpt lat="46.2107637" lon="5.9887094"><ele></ele><time>2015-4-16T9:10:44Z</time></trkpt>
<trkpt lat="46.2107286" lon="5.9886036"><ele></ele><time>2015-4-16T9:10:47Z</time></trkpt>
<trkpt lat="46.2107257" lon="5.9885686"><ele></ele><time>2015-4-16T9:10:50Z</time></trkpt>
<trkpt lat="46.2107190" lon="5.9885386"><ele></ele><time>2015-4-16T9:10:53Z</time></trkpt>
<trkpt lat="46.2107052" lon="5.9885121"><ele></ele><time>2015-4-16T9:10:56Z</time></trkpt>
<trkpt lat="46.2106911" lon="5.9884866"><ele></ele><time>2015-4-16T9:10:59Z</time></trkpt>
<trkpt lat="46.2106136" lon="5.9883911"><ele></ele><time>2015-4-16T9:11:2Z</time></trkpt>
<trkpt lat="46.2105962" lon="5.9883724"><ele></ele><time>2015-4-16T9:11:5Z</time></trkpt>
<trkpt lat="46.2105794" lon="5.9883482"><ele></ele><time>2015-4-16T9:11:8Z</time></trkpt>
<trkpt lat="46.2105564" lon="5.9883153"><ele></ele><time>2015-4-16T9:11:11Z</time></trkpt>
<trkpt lat="46.2105349" lon="5.9882851"><ele></ele><time>2015-4-16T9:11:14Z</time></trkpt>
<trkpt lat="46.2105196" lon="5.9881677"><ele></ele><time>2015-4-16T9:11:17Z</time></trkpt>
<trkpt lat="46.2104529" lon="5.9880383"><ele></ele><time>2015-4-16T9:11:20Z</time></trkpt>
<trkpt lat="46.2104372" lon="5.9880046"><ele></ele><time>2015-4-16T9:11:23Z</time></trkpt>
<trkpt lat="46.2104209" lon="5.9879710"><ele></ele><time>2015-4-16T9:11:26Z</time></trkpt>
<trkpt lat="46.2104020" lon="5.9879370"><ele></ele><time>2015-4-16T9:11:29Z</time></trkpt>
<trkpt lat="46.2103841" lon="5.9879040"><ele></ele><time>2015-4-16T9:11:32Z</time></trkpt>
<trkpt lat="46.2103679" lon="5.9878726"><ele></ele><time>2015-4-16T9:11:35Z</time></trkpt>
<trkpt lat="46.2103280" lon="5.9877770"><ele></ele><time>2015-4-16T9:11:38Z</time></trkpt>
<trkpt lat="46.2103136" lon="5.9877437"><ele></ele><time>2015-4-16T9:11:41Z</time></trkpt>
<trkpt lat="46.2102968" lon="5.9877111"><ele></ele><time>2015-4-16T9:11:44Z</time></trkpt>
<trkpt lat="46.2102791" lon="5.9876795"><ele></ele><time>2015-4-16T9:11:47Z</time></trkpt>
<trkpt lat="46.2102606" lon="5.9876479"><ele></ele><time>2015-4-16T9:11:50Z</time></trkpt>
<trkpt lat="46.2102444" lon="5.9876190"><ele></ele><time>2015-4-16T9:11:53Z</time></trkpt>
<trkpt lat="46.2101624" lon="5.9875130"><ele></ele><time>2015-4-16T9:11:56Z</time></trkpt>
<trkpt lat="46.2101406" lon="5.9874975"><ele></ele><time>2015-4-16T9:11:59Z</time></trkpt>
<trkpt lat="46.2101210" lon="5.9874801"><ele></ele><time>2015-4-16T9:12:2Z</time></trkpt>
<trkpt lat="46.2101032" lon="5.9874623"><ele></ele><time>2015-4-16T9:12:5Z</time></trkpt>
<trkpt lat="46.2100866" lon="5.9874293"><ele></ele><time>2015-4-16T9:12:8Z</time></trkpt>
<trkpt lat="46.2100087" lon="5.9873397"><ele></ele><time>2015-4-16T9:12:11Z</time></trkpt>
<trkpt lat="46.2099826" lon="5.9873175"><ele></ele><time>2015-4-16T9:12:14Z</time></trkpt>
<trkpt lat="46.2099581" lon="5.9872983"><ele></ele><time>2015-4-16T9:12:17Z</time></trkpt>
<trkpt lat="46.2099322" lon="5.9872754"><ele></ele><time>2015-4-16T9:12:20Z</time></trkpt>
<trkpt lat="46.2099055" lon="5.9872507"><ele></ele><time>2015-4-16T9:12:23Z</time></trkpt>
<trkpt lat="46.2098155" lon="5.9870910"><ele></ele><time>2015-4-16T9:12:26Z</time></trkpt>
<trkpt lat="46.2098012" lon="5.9870060"><ele></ele><time>2015-4-16T9:12:29Z</time></trkpt>
<trkpt lat="46.2098011" lon="5.9869647"><ele></ele><time>2015-4-16T9:12:32Z</time></trkpt>
<trkpt lat="46.2098002" lon="5.9869192"><ele></ele><time>2015-4-16T9:12:35Z</time></trkpt>
<trkpt lat="46.2097981" lon="5.9868776"><ele></ele><time>2015-4-16T9:12:38Z</time></trkpt>
<trkpt lat="46.2097987" lon="5.9868341"><ele></ele><time>2015-4-16T9:12:41Z</time></trkpt>
<trkpt lat="46.2097785" lon="5.9863259"><ele></ele><time>2015-4-16T9:12:44Z</time></trkpt>
<trkpt lat="46.2097460" lon="5.9859300"><ele></ele><time>2015-4-16T9:12:47Z</time></trkpt>
<trkpt lat="46.2097188" lon="5.9854258"><ele></ele><time>2015-4-16T9:12:50Z</time></trkpt>
<trkpt lat="46.2097183" lon="5.9853762"><ele></ele><time>2015-4-16T9:12:53Z</time></trkpt>
<trkpt lat="46.2097193" lon="5.9853254"><ele></ele><time>2015-4-16T9:12:56Z</time></trkpt>
<trkpt lat="46.2097187" lon="5.9852762"><ele></ele><time>2015-4-16T9:12:59Z</time></trkpt>
<trkpt lat="46.2097175" lon="5.9852291"><ele></ele><time>2015-4-16T9:13:2Z</time></trkpt>
<trkpt lat="46.2097182" lon="5.9851812"><ele></ele><time>2015-4-16T9:13:5Z</time></trkpt>
<trkpt lat="46.2097199" lon="5.9851353"><ele></ele><time>2015-4-16T9:13:8Z</time></trkpt>
<trkpt lat="46.2097456" lon="5.9849048"><ele></ele><time>2015-4-16T9:13:11Z</time></trkpt>
<trkpt lat="46.2098156" lon="5.9843778"><ele></ele><time>2015-4-16T9:13:14Z</time></trkpt>
<trkpt lat="46.2098253" lon="5.9843231"><ele></ele><time>2015-4-16T9:13:17Z</time></trkpt>
<trkpt lat="46.2098359" lon="5.9842661"><ele></ele><time>2015-4-16T9:13:20Z</time></trkpt>
<trkpt lat="46.2098453" lon="5.9842118"><ele></ele><time>2015-4-16T9:13:23Z</time></trkpt>
<trkpt lat="46.2098540" lon="5.9841567"><ele></ele><time>2015-4-16T9:13:26Z</time></trkpt>
<trkpt lat="46.2098654" lon="5.9839177"><ele></ele><time>2015-4-16T9:13:29Z</time></trkpt>
<trkpt lat="46.2098303" lon="5.9837320"><ele></ele><time>2015-4-16T9:13:32Z</time></trkpt>
<trkpt lat="46.2097399" lon="5.9834927"><ele></ele><time>2015-4-16T9:13:35Z</time></trkpt>
<trkpt lat="46.2096867" lon="5.9833689"><ele></ele><time>2015-4-16T9:13:38Z</time></trkpt>
<trkpt lat="46.2094165" lon="5.9827997"><ele></ele><time>2015-4-16T9:13:41Z</time></trkpt>
<trkpt lat="46.2091037" lon="5.9821635"><ele></ele><time>2015-4-16T9:13:44Z</time></trkpt>
<trkpt lat="46.2090386" lon="5.9820253"><ele></ele><time>2015-4-16T9:13:47Z</time></trkpt>
<trkpt lat="46.2089387" lon="5.9818144"><ele></ele><time>2015-4-16T9:13:50Z</time></trkpt>
<trkpt lat="46.2089040" lon="5.9817432"><ele></ele><time>2015-4-16T9:13:53Z</time></trkpt>
<trkpt lat="46.2088719" lon="5.9816720"><ele></ele><time>2015-4-16T9:13:56Z</time></trkpt>
<trkpt lat="46.2088405" lon="5.9815980"><ele></ele><time>2015-4-16T9:13:59Z</time></trkpt>
<trkpt lat="46.2088093" lon="5.9815224"><ele></ele><time>2015-4-16T9:14:2Z</time></trkpt>
<trkpt lat="46.2086721" lon="5.9812233"><ele></ele><time>2015-4-16T9:14:5Z</time></trkpt>
<trkpt lat="46.2084795" lon="5.9808569"><ele></ele><time>2015-4-16T9:14:8Z</time></trkpt>
<trkpt lat="46.2083668" lon="5.9807690"><ele></ele><time>2015-4-16T9:14:11Z</time></trkpt>
<trkpt lat="46.2081104" lon="5.9806963"><ele></ele><time>2015-4-16T9:14:14Z</time></trkpt>
<trkpt lat="46.2079099" lon="5.9806923"><ele></ele><time>2015-4-16T9:14:17Z</time></trkpt>
<trkpt lat="46.2078509" lon="5.9806910"><ele></ele><time>2015-4-16T9:14:20Z</time></trkpt>
<trkpt lat="46.2077890" lon="5.9806901"><ele></ele><time>2015-4-16T9:14:23Z</time></trkpt>
<trkpt lat="46.2077224" lon="5.9806887"><ele></ele><time>2015-4-16T9:14:26Z</time></trkpt>
<trkpt lat="46.2076603" lon="5.9806837"><ele></ele><time>2015-4-16T9:14:29Z</time></trkpt>
<trkpt lat="46.2072442" lon="5.9806485"><ele></ele><time>2015-4-16T9:14:32Z</time></trkpt>
<trkpt lat="46.2068868" lon="5.9806156"><ele></ele><time>2015-4-16T9:14:35Z</time></trkpt>
<trkpt lat="46.2067711" lon="5.9806005"><ele></ele><time>2015-4-16T9:14:38Z</time></trkpt>
<trkpt lat="46.2067150" lon="5.9805941"><ele></ele><time>2015-4-16T9:14:41Z</time></trkpt>
<trkpt lat="46.2066585" lon="5.9805889"><ele></ele><time>2015-4-16T9:14:44Z</time></trkpt>
<trkpt lat="46.2064876" lon="5.9805673"><ele></ele><time>2015-4-16T9:14:47Z</time></trkpt>
<trkpt lat="46.2059477" lon="5.9805205"><ele></ele><time>2015-4-16T9:14:50Z</time></trkpt>
<trkpt lat="46.2058874" lon="5.9805147"><ele></ele><time>2015-4-16T9:14:53Z</time></trkpt>
<trkpt lat="46.2058284" lon="5.9805090"><ele></ele><time>2015-4-16T9:14:56Z</time></trkpt>
<trkpt lat="46.2057689" lon="5.9805038"><ele></ele><time>2015-4-16T9:14:59Z</time></trkpt>
<trkpt lat="46.2057098" lon="5.9804976"><ele></ele><time>2015-4-16T9:15:2Z</time></trkpt>
<trkpt lat="46.2056522" lon="5.9804913"><ele></ele><time>2015-4-16T9:15:5Z</time></trkpt>
<trkpt lat="46.2050901" lon="5.9804373"><ele></ele><time>2015-4-16T9:15:8Z</time></trkpt>
<trkpt lat="46.2047021" lon="5.9803960"><ele></ele><time>2015-4-16T9:15:11Z</time></trkpt>
<trkpt lat="46.2046522" lon="5.9803903"><ele></ele><time>2015-4-16T9:15:14Z</time></trkpt>
<trkpt lat="46.2046009" lon="5.9803857"><ele></ele><time>2015-4-16T9:15:17Z</time></trkpt>
<trkpt lat="46.2045509" lon="5.9803839"><ele></ele><time>2015-4-16T9:15:20Z</time></trkpt>
<trkpt lat="46.2045035" lon="5.9803824"><ele></ele><time>2015-4-16T9:15:23Z</time></trkpt>
<trkpt lat="46.2044585" lon="5.9803766"><ele></ele><time>2015-4-16T9:15:26Z</time></trkpt>
<trkpt lat="46.2043750" lon="5.9803460"><ele></ele><time>2015-4-16T9:15:29Z</time></trkpt>
<trkpt lat="46.2043163" lon="5.9802702"><ele></ele><time>2015-4-16T9:15:32Z</time></trkpt>
<trkpt lat="46.2042453" lon="5.9799793"><ele></ele><time>2015-4-16T9:15:35Z</time></trkpt>
<trkpt lat="46.2042398" lon="5.9799077"><ele></ele><time>2015-4-16T9:15:38Z</time></trkpt>
<trkpt lat="46.2041748" lon="5.9795351"><ele></ele><time>2015-4-16T9:15:41Z</time></trkpt>
<trkpt lat="46.2041585" lon="5.9794473"><ele></ele><time>2015-4-16T9:15:44Z</time></trkpt>
<trkpt lat="46.2041431" lon="5.9793603"><ele></ele><time>2015-4-16T9:15:47Z</time></trkpt>
<trkpt lat="46.2041250" lon="5.9792686"><ele></ele><time>2015-4-16T9:15:50Z</time></trkpt>
<trkpt lat="46.2041076" lon="5.9791723"><ele></ele><time>2015-4-16T9:15:53Z</time></trkpt>
<trkpt lat="46.2040891" lon="5.9790707"><ele></ele><time>2015-4-16T9:15:56Z</time></trkpt>
<trkpt lat="46.2040698" lon="5.9789672"><ele></ele><time>2015-4-16T9:15:59Z</time></trkpt>
<trkpt lat="46.2040500" lon="5.9788632"><ele></ele><time>2015-4-16T9:16:2Z</time></trkpt>
<trkpt lat="46.2040280" lon="5.9787576"><ele></ele><time>2015-4-16T9:16:5Z</time></trkpt>
<trkpt lat="46.2040100" lon="5.9786455"><ele></ele><time>2015-4-16T9:16:8Z</time></trkpt>
<trkpt lat="46.2039920" lon="5.9785319"><ele></ele><time>2015-4-16T9:16:11Z</time></trkpt>
<trkpt lat="46.2039777" lon="5.9784153"><ele></ele><time>2015-4-16T9:16:14Z</time></trkpt>
<trkpt lat="46.2039613" lon="5.9782851"><ele></ele><time>2015-4-16T9:16:17Z</time></trkpt>
<trkpt lat="46.2039463" lon="5.9781643"><ele></ele><time>2015-4-16T9:16:20Z</time></trkpt>
<trkpt lat="46.2039298" lon="5.9780417"><ele></ele><time>2015-4-16T9:16:23Z</time></trkpt>
<trkpt lat="46.2039109" lon="5.9779131"><ele></ele><time>2015-4-16T9:16:26Z</time></trkpt>
<trkpt lat="46.2038905" lon="5.9777868"><ele></ele><time>2015-4-16T9:16:29Z</time></trkpt>
<trkpt lat="46.2038702" lon="5.9776613"><ele></ele><time>2015-4-16T9:16:32Z</time></trkpt>
<trkpt lat="46.2038452" lon="5.9775320"><ele></ele><time>2015-4-16T9:16:35Z</time></trkpt>
<trkpt lat="46.2038192" lon="5.9774223"><ele></ele><time>2015-4-16T9:16:38Z</time></trkpt>
<trkpt lat="46.2037769" lon="5.9773370"><ele></ele><time>2015-4-16T9:16:41Z</time></trkpt>
<trkpt lat="46.2037144" lon="5.9772965"><ele></ele><time>2015-4-16T9:16:44Z</time></trkpt>
<trkpt lat="46.2036473" lon="5.9772610"><ele></ele><time>2015-4-16T9:16:47Z</time></trkpt>
<trkpt lat="46.2035685" lon="5.9772899"><ele></ele><time>2015-4-16T9:16:50Z</time></trkpt>
<trkpt lat="46.2034976" lon="5.9773511"><ele></ele><time>2015-4-16T9:16:53Z</time></trkpt>
<trkpt lat="46.2034450" lon="5.9774343"><ele></ele><time>2015-4-16T9:16:56Z</time></trkpt>
<trkpt lat="46.2034244" lon="5.9775679"><ele></ele><time>2015-4-16T9:16:59Z</time></trkpt>
<trkpt lat="46.2034071" lon="5.9777039"><ele></ele><time>2015-4-16T9:17:2Z</time></trkpt>
<trkpt lat="46.2033862" lon="5.9778344"><ele></ele><time>2015-4-16T9:17:5Z</time></trkpt>
<trkpt lat="46.2033695" lon="5.9779689"><ele></ele><time>2015-4-16T9:17:8Z</time></trkpt>
<trkpt lat="46.2033509" lon="5.9781045"><ele></ele><time>2015-4-16T9:17:11Z</time></trkpt>
<trkpt lat="46.2033285" lon="5.9782434"><ele></ele><time>2015-4-16T9:17:14Z</time></trkpt>
<trkpt lat="46.2032888" lon="5.9783692"><ele></ele><time>2015-4-16T9:17:17Z</time></trkpt>
<trkpt lat="46.2032288" lon="5.9784791"><ele></ele><time>2015-4-16T9:17:20Z</time></trkpt>
<trkpt lat="46.2031624" lon="5.9785778"><ele></ele><time>2015-4-16T9:17:23Z</time></trkpt>
<trkpt lat="46.2030606" lon="5.9786233"><ele></ele><time>2015-4-16T9:17:26Z</time></trkpt>
<trkpt lat="46.2029597" lon="5.9786615"><ele></ele><time>2015-4-16T9:17:29Z</time></trkpt>
<trkpt lat="46.2028623" lon="5.9787084"><ele></ele><time>2015-4-16T9:17:32Z</time></trkpt>
<trkpt lat="46.2027764" lon="5.9787564"><ele></ele><time>2015-4-16T9:17:35Z</time></trkpt>
<trkpt lat="46.2026991" lon="5.9788176"><ele></ele><time>2015-4-16T9:17:38Z</time></trkpt>
<trkpt lat="46.2025633" lon="5.9789857"><ele></ele><time>2015-4-16T9:17:41Z</time></trkpt>
<trkpt lat="46.2024219" lon="5.9792493"><ele></ele><time>2015-4-16T9:17:44Z</time></trkpt>
<trkpt lat="46.2023488" lon="5.9793357"><ele></ele><time>2015-4-16T9:17:47Z</time></trkpt>
<trkpt lat="46.2022918" lon="5.9794198"><ele></ele><time>2015-4-16T9:17:50Z</time></trkpt>
<trkpt lat="46.2022429" lon="5.9794974"><ele></ele><time>2015-4-16T9:17:53Z</time></trkpt>
<trkpt lat="46.2021989" lon="5.9795667"><ele></ele><time>2015-4-16T9:17:56Z</time></trkpt>
<trkpt lat="46.2021550" lon="5.9796414"><ele></ele><time>2015-4-16T9:17:59Z</time></trkpt>
<trkpt lat="46.2021155" lon="5.9797057"><ele></ele><time>2015-4-16T9:18:2Z</time></trkpt>
<trkpt lat="46.2020363" lon="5.9798350"><ele></ele><time>2015-4-16T9:18:5Z</time></trkpt>
<trkpt lat="46.2019943" lon="5.9799013"><ele></ele><time>2015-4-16T9:18:8Z</time></trkpt>
<trkpt lat="46.2019520" lon="5.9799711"><ele></ele><time>2015-4-16T9:18:11Z</time></trkpt>
<trkpt lat="46.2019106" lon="5.9800346"><ele></ele><time>2015-4-16T9:18:14Z</time></trkpt>
<trkpt lat="46.2018762" lon="5.9800974"><ele></ele><time>2015-4-16T9:18:17Z</time></trkpt>
<trkpt lat="46.2017384" lon="5.9803637"><ele></ele><time>2015-4-16T9:18:20Z</time></trkpt>
<trkpt lat="46.2017066" lon="5.9804220"><ele></ele><time>2015-4-16T9:18:23Z</time></trkpt>
<trkpt lat="46.2016719" lon="5.9804782"><ele></ele><time>2015-4-16T9:18:26Z</time></trkpt>
<trkpt lat="46.2016447" lon="5.9805290"><ele></ele><time>2015-4-16T9:18:29Z</time></trkpt>
<trkpt lat="46.2016247" lon="5.9805764"><ele></ele><time>2015-4-16T9:18:32Z</time></trkpt>
<trkpt lat="46.2016035" lon="5.9806224"><ele></ele><time>2015-4-16T9:18:35Z</time></trkpt>
<trkpt lat="46.2015564" lon="5.9807103"><ele></ele><time>2015-4-16T9:18:38Z</time></trkpt>
<trkpt lat="46.2015332" lon="5.9807563"><ele></ele><time>2015-4-16T9:18:41Z</time></trkpt>
<trkpt lat="46.2014933" lon="5.9808433"><ele></ele><time>2015-4-16T9:18:44Z</time></trkpt>
<trkpt lat="46.2014760" lon="5.9808855"><ele></ele><time>2015-4-16T9:18:47Z</time></trkpt>
<trkpt lat="46.2014656" lon="5.9809377"><ele></ele><time>2015-4-16T9:18:50Z</time></trkpt>
<trkpt lat="46.2013825" lon="5.9811566"><ele></ele><time>2015-4-16T9:18:53Z</time></trkpt>
<trkpt lat="46.2013693" lon="5.9811922"><ele></ele><time>2015-4-16T9:18:56Z</time></trkpt>
<trkpt lat="46.2013586" lon="5.9812539"><ele></ele><time>2015-4-16T9:18:59Z</time></trkpt>
<trkpt lat="46.2013488" lon="5.9813050"><ele></ele><time>2015-4-16T9:19:2Z</time></trkpt>
<trkpt lat="46.2013328" lon="5.9813523"><ele></ele><time>2015-4-16T9:19:5Z</time></trkpt>
<trkpt lat="46.2013198" lon="5.9814158"><ele></ele><time>2015-4-16T9:19:8Z</time></trkpt>
<trkpt lat="46.2012948" lon="5.9815098"><ele></ele><time>2015-4-16T9:19:11Z</time></trkpt>
<trkpt lat="46.2012556" lon="5.9815957"><ele></ele><time>2015-4-16T9:19:14Z</time></trkpt>
<trkpt lat="46.2012483" lon="5.9816569"><ele></ele><time>2015-4-16T9:19:17Z</time></trkpt>
<trkpt lat="46.2012369" lon="5.9817163"><ele></ele><time>2015-4-16T9:19:20Z</time></trkpt>
<trkpt lat="46.2012262" lon="5.9817704"><ele></ele><time>2015-4-16T9:19:23Z</time></trkpt>
<trkpt lat="46.2011446" lon="5.9820539"><ele></ele><time>2015-4-16T9:19:26Z</time></trkpt>
<trkpt lat="46.2011356" lon="5.9821232"><ele></ele><time>2015-4-16T9:19:29Z</time></trkpt>
<trkpt lat="46.2011219" lon="5.9821792"><ele></ele><time>2015-4-16T9:19:32Z</time></trkpt>
<trkpt lat="46.2011092" lon="5.9822334"><ele></ele><time>2015-4-16T9:19:35Z</time></trkpt>
<trkpt lat="46.2010992" lon="5.9822834"><ele></ele><time>2015-4-16T9:19:38Z</time></trkpt>
<trkpt lat="46.2010868" lon="5.9823350"><ele></ele><time>2015-4-16T9:19:41Z</time></trkpt>
<trkpt lat="46.2010734" lon="5.9823858"><ele></ele><time>2015-4-16T9:19:44Z</time></trkpt>
<trkpt lat="46.2010213" lon="5.9826547"><ele></ele><time>2015-4-16T9:19:47Z</time></trkpt>
<trkpt lat="46.2010069" lon="5.9827086"><ele></ele><time>2015-4-16T9:19:50Z</time></trkpt>
<trkpt lat="46.2009882" lon="5.9827680"><ele></ele><time>2015-4-16T9:19:53Z</time></trkpt>
<trkpt lat="46.2009768" lon="5.9828158"><ele></ele><time>2015-4-16T9:19:56Z</time></trkpt>
<trkpt lat="46.2009686" lon="5.9828578"><ele></ele><time>2015-4-16T9:19:59Z</time></trkpt>
<trkpt lat="46.2009165" lon="5.9830358"><ele></ele><time>2015-4-16T9:20:2Z</time></trkpt>
<trkpt lat="46.2008650" lon="5.9831366"><ele></ele><time>2015-4-16T9:20:5Z</time></trkpt>
<trkpt lat="46.2008483" lon="5.9831740"><ele></ele><time>2015-4-16T9:20:8Z</time></trkpt>
<trkpt lat="46.2008351" lon="5.9832059"><ele></ele><time>2015-4-16T9:20:11Z</time></trkpt>
<trkpt lat="46.2008206" lon="5.9832393"><ele></ele><time>2015-4-16T9:20:14Z</time></trkpt>
<trkpt lat="46.2008089" lon="5.9832664"><ele></ele><time>2015-4-16T9:20:17Z</time></trkpt>
<trkpt lat="46.2007231" lon="5.9834324"><ele></ele><time>2015-4-16T9:20:20Z</time></trkpt>
<trkpt lat="46.2006815" lon="5.9835338"><ele></ele><time>2015-4-16T9:20:23Z</time></trkpt>
<trkpt lat="46.2006635" lon="5.9835615"><ele></ele><time>2015-4-16T9:20:26Z</time></trkpt>
<trkpt lat="46.2006419" lon="5.9835906"><ele></ele><time>2015-4-16T9:20:29Z</time></trkpt>
<trkpt lat="46.2006203" lon="5.9836229"><ele></ele><time>2015-4-16T9:20:32Z</time></trkpt>
<trkpt lat="46.2005889" lon="5.9836616"><ele></ele><time>2015-4-16T9:20:35Z</time></trkpt>
<trkpt lat="46.2005223" lon="5.9837375"><ele></ele><time>2015-4-16T9:20:38Z</time></trkpt>
<trkpt lat="46.2003158" lon="5.9839368"><ele></ele><time>2015-4-16T9:20:41Z</time></trkpt>
<trkpt lat="46.2002774" lon="5.9839869"><ele></ele><time>2015-4-16T9:20:44Z</time></trkpt>
<trkpt lat="46.2002365" lon="5.9840326"><ele></ele><time>2015-4-16T9:20:47Z</time></trkpt>
<trkpt lat="46.2002007" lon="5.9840668"><ele></ele><time>2015-4-16T9:20:50Z</time></trkpt>
<trkpt lat="46.2001751" lon="5.9841008"><ele></ele><time>2015-4-16T9:20:53Z</time></trkpt>
<trkpt lat="46.2000431" lon="5.9843607"><ele></ele><time>2015-4-16T9:20:56Z</time></trkpt>
<trkpt lat="46.1998610" lon="5.9847383"><ele></ele><time>2015-4-16T9:20:59Z</time></trkpt>
<trkpt lat="46.1996001" lon="5.9852576"><ele></ele><time>2015-4-16T9:21:2Z</time></trkpt>
<trkpt lat="46.1994009" lon="5.9856398"><ele></ele><time>2015-4-16T9:21:5Z</time></trkpt>
<trkpt lat="46.1993685" lon="5.9857072"><ele></ele><time>2015-4-16T9:21:8Z</time></trkpt>
<trkpt lat="46.1993351" lon="5.9857702"><ele></ele><time>2015-4-16T9:21:11Z</time></trkpt>
<trkpt lat="46.1992967" lon="5.9858389"><ele></ele><time>2015-4-16T9:21:14Z</time></trkpt>
<trkpt lat="46.1992633" lon="5.9859023"><ele></ele><time>2015-4-16T9:21:17Z</time></trkpt>
<trkpt lat="46.1990629" lon="5.9863417"><ele></ele><time>2015-4-16T9:21:20Z</time></trkpt>
<trkpt lat="46.1990216" lon="5.9864138"><ele></ele><time>2015-4-16T9:21:23Z</time></trkpt>
<trkpt lat="46.1989844" lon="5.9864850"><ele></ele><time>2015-4-16T9:21:26Z</time></trkpt>
<trkpt lat="46.1989463" lon="5.9865584"><ele></ele><time>2015-4-16T9:21:29Z</time></trkpt>
<trkpt lat="46.1989064" lon="5.9866340"><ele></ele><time>2015-4-16T9:21:32Z</time></trkpt>
<trkpt lat="46.1987106" lon="5.9870190"><ele></ele><time>2015-4-16T9:21:35Z</time></trkpt>
<trkpt lat="46.1986699" lon="5.9871015"><ele></ele><time>2015-4-16T9:21:38Z</time></trkpt>
<trkpt lat="46.1985854" lon="5.9872620"><ele></ele><time>2015-4-16T9:21:41Z</time></trkpt>
<trkpt lat="46.1984988" lon="5.9874275"><ele></ele><time>2015-4-16T9:21:44Z</time></trkpt>
<trkpt lat="46.1982874" lon="5.9878591"><ele></ele><time>2015-4-16T9:21:47Z</time></trkpt>
<trkpt lat="46.1982428" lon="5.9879512"><ele></ele><time>2015-4-16T9:21:50Z</time></trkpt>
<trkpt lat="46.1981968" lon="5.9880406"><ele></ele><time>2015-4-16T9:21:53Z</time></trkpt>
<trkpt lat="46.1981501" lon="5.9881307"><ele></ele><time>2015-4-16T9:21:56Z</time></trkpt>
<trkpt lat="46.1981045" lon="5.9882250"><ele></ele><time>2015-4-16T9:21:59Z</time></trkpt>
<trkpt lat="46.1980580" lon="5.9883190"><ele></ele><time>2015-4-16T9:22:2Z</time></trkpt>
<trkpt lat="46.1978823" lon="5.9886655"><ele></ele><time>2015-4-16T9:22:5Z</time></trkpt>
<trkpt lat="46.1978357" lon="5.9887549"><ele></ele><time>2015-4-16T9:22:8Z</time></trkpt>
<trkpt lat="46.1977871" lon="5.9888481"><ele></ele><time>2015-4-16T9:22:11Z</time></trkpt>
<trkpt lat="46.1977374" lon="5.9889392"><ele></ele><time>2015-4-16T9:22:14Z</time></trkpt>
<trkpt lat="46.1976908" lon="5.9890274"><ele></ele><time>2015-4-16T9:22:17Z</time></trkpt>
<trkpt lat="46.1976461" lon="5.9891205"><ele></ele><time>2015-4-16T9:22:20Z</time></trkpt>
<trkpt lat="46.1973285" lon="5.9897696"><ele></ele><time>2015-4-16T9:22:23Z</time></trkpt>
<trkpt lat="46.1972802" lon="5.9898562"><ele></ele><time>2015-4-16T9:22:26Z</time></trkpt>
<trkpt lat="46.1972361" lon="5.9899469"><ele></ele><time>2015-4-16T9:22:29Z</time></trkpt>
<trkpt lat="46.1971914" lon="5.9900413"><ele></ele><time>2015-4-16T9:22:32Z</time></trkpt>
<trkpt lat="46.1971472" lon="5.9901398"><ele></ele><time>2015-4-16T9:22:35Z</time></trkpt>
<trkpt lat="46.1970141" lon="5.9904158"><ele></ele><time>2015-4-16T9:22:38Z</time></trkpt>
<trkpt lat="46.1969660" lon="5.9905064"><ele></ele><time>2015-4-16T9:22:41Z</time></trkpt>
<trkpt lat="46.1969169" lon="5.9906000"><ele></ele><time>2015-4-16T9:22:44Z</time></trkpt>
<trkpt lat="46.1968721" lon="5.9906934"><ele></ele><time>2015-4-16T9:22:47Z</time></trkpt>
<trkpt lat="46.1968258" lon="5.9907862"><ele></ele><time>2015-4-16T9:22:50Z</time></trkpt>
<trkpt lat="46.1966307" lon="5.9911458"><ele></ele><time>2015-4-16T9:22:53Z</time></trkpt>
<trkpt lat="46.1965809" lon="5.9912344"><ele></ele><time>2015-4-16T9:22:56Z</time></trkpt>
<trkpt lat="46.1965321" lon="5.9913264"><ele></ele><time>2015-4-16T9:22:59Z</time></trkpt>
<trkpt lat="46.1964863" lon="5.9914177"><ele></ele><time>2015-4-16T9:23:2Z</time></trkpt>
<trkpt lat="46.1964422" lon="5.9915117"><ele></ele><time>2015-4-16T9:23:5Z</time></trkpt>
<trkpt lat="46.1964008" lon="5.9916006"><ele></ele><time>2015-4-16T9:23:8Z</time></trkpt>
<trkpt lat="46.1963603" lon="5.9916875"><ele></ele><time>2015-4-16T9:23:11Z</time></trkpt>
<trkpt lat="46.1963197" lon="5.9917653"><ele></ele><time>2015-4-16T9:23:14Z</time></trkpt>
<trkpt lat="46.1962756" lon="5.9918425"><ele></ele><time>2015-4-16T9:23:17Z</time></trkpt>
<trkpt lat="46.1962314" lon="5.9919184"><ele></ele><time>2015-4-16T9:23:20Z</time></trkpt>
<trkpt lat="46.1961563" lon="5.9920875"><ele></ele><time>2015-4-16T9:23:23Z</time></trkpt>
<trkpt lat="46.1961019" lon="5.9922862"><ele></ele><time>2015-4-16T9:23:26Z</time></trkpt>
<trkpt lat="46.1960765" lon="5.9923880"><ele></ele><time>2015-4-16T9:23:29Z</time></trkpt>
<trkpt lat="46.1960498" lon="5.9924898"><ele></ele><time>2015-4-16T9:23:32Z</time></trkpt>
<trkpt lat="46.1960191" lon="5.9925972"><ele></ele><time>2015-4-16T9:23:35Z</time></trkpt>
<trkpt lat="46.1959857" lon="5.9927042"><ele></ele><time>2015-4-16T9:23:38Z</time></trkpt>
<trkpt lat="46.1959517" lon="5.9928187"><ele></ele><time>2015-4-16T9:23:41Z</time></trkpt>
<trkpt lat="46.1959191" lon="5.9929329"><ele></ele><time>2015-4-16T9:23:44Z</time></trkpt>
<trkpt lat="46.1958838" lon="5.9930546"><ele></ele><time>2015-4-16T9:23:47Z</time></trkpt>
<trkpt lat="46.1958507" lon="5.9931751"><ele></ele><time>2015-4-16T9:23:50Z</time></trkpt>
<trkpt lat="46.1958177" lon="5.9932981"><ele></ele><time>2015-4-16T9:23:53Z</time></trkpt>
<trkpt lat="46.1957833" lon="5.9934230"><ele></ele><time>2015-4-16T9:23:56Z</time></trkpt>
<trkpt lat="46.1957457" lon="5.9935472"><ele></ele><time>2015-4-16T9:23:59Z</time></trkpt>
<trkpt lat="46.1957068" lon="5.9936721"><ele></ele><time>2015-4-16T9:24:2Z</time></trkpt>
<trkpt lat="46.1956696" lon="5.9937830"><ele></ele><time>2015-4-16T9:24:5Z</time></trkpt>
<trkpt lat="46.1956226" lon="5.9938870"><ele></ele><time>2015-4-16T9:24:8Z</time></trkpt>
<trkpt lat="46.1955652" lon="5.9939771"><ele></ele><time>2015-4-16T9:24:11Z</time></trkpt>
<trkpt lat="46.1954993" lon="5.9940543"><ele></ele><time>2015-4-16T9:24:14Z</time></trkpt>
<trkpt lat="46.1954286" lon="5.9941308"><ele></ele><time>2015-4-16T9:24:17Z</time></trkpt>
<trkpt lat="46.1952985" lon="5.9942711"><ele></ele><time>2015-4-16T9:24:20Z</time></trkpt>
<trkpt lat="46.1948855" lon="5.9947081"><ele></ele><time>2015-4-16T9:24:23Z</time></trkpt>
<trkpt lat="46.1947040" lon="5.9949221"><ele></ele><time>2015-4-16T9:24:26Z</time></trkpt>
<trkpt lat="46.1946396" lon="5.9948986"><ele></ele><time>2015-4-16T9:24:29Z</time></trkpt>
<trkpt lat="46.1944420" lon="5.9947900"><ele></ele><time>2015-4-16T9:24:32Z</time></trkpt>
<trkpt lat="46.1943667" lon="5.9947760"><ele></ele><time>2015-4-16T9:24:35Z</time></trkpt>
<trkpt lat="46.1942895" lon="5.9947728"><ele></ele><time>2015-4-16T9:24:38Z</time></trkpt>
<trkpt lat="46.1942117" lon="5.9947896"><ele></ele><time>2015-4-16T9:24:41Z</time></trkpt>
<trkpt lat="46.1941334" lon="5.9948189"><ele></ele><time>2015-4-16T9:24:44Z</time></trkpt>
<trkpt lat="46.1940532" lon="5.9948547"><ele></ele><time>2015-4-16T9:24:47Z</time></trkpt>
<trkpt lat="46.1939734" lon="5.9948915"><ele></ele><time>2015-4-16T9:24:50Z</time></trkpt>
<trkpt lat="46.1938977" lon="5.9949373"><ele></ele><time>2015-4-16T9:24:53Z</time></trkpt>
<trkpt lat="46.1938268" lon="5.9949982"><ele></ele><time>2015-4-16T9:24:56Z</time></trkpt>
<trkpt lat="46.1937602" lon="5.9950747"><ele></ele><time>2015-4-16T9:24:59Z</time></trkpt>
<trkpt lat="46.1936904" lon="5.9951519"><ele></ele><time>2015-4-16T9:25:2Z</time></trkpt>
<trkpt lat="46.1936196" lon="5.9952220"><ele></ele><time>2015-4-16T9:25:5Z</time></trkpt>
<trkpt lat="46.1935467" lon="5.9952921"><ele></ele><time>2015-4-16T9:25:8Z</time></trkpt>
<trkpt lat="46.1932432" lon="5.9955354"><ele></ele><time>2015-4-16T9:25:11Z</time></trkpt>
<trkpt lat="46.1931646" lon="5.9955908"><ele></ele><time>2015-4-16T9:25:14Z</time></trkpt>
<trkpt lat="46.1930849" lon="5.9956432"><ele></ele><time>2015-4-16T9:25:17Z</time></trkpt>
<trkpt lat="46.1930048" lon="5.9956875"><ele></ele><time>2015-4-16T9:25:20Z</time></trkpt>
<trkpt lat="46.1929241" lon="5.9957310"><ele></ele><time>2015-4-16T9:25:23Z</time></trkpt>
<trkpt lat="46.1927659" lon="5.9958098"><ele></ele><time>2015-4-16T9:25:26Z</time></trkpt>
<trkpt lat="46.1923260" lon="5.9960662"><ele></ele><time>2015-4-16T9:25:29Z</time></trkpt>
<trkpt lat="46.1922553" lon="5.9961090"><ele></ele><time>2015-4-16T9:25:32Z</time></trkpt>
<trkpt lat="46.1921828" lon="5.9961481"><ele></ele><time>2015-4-16T9:25:35Z</time></trkpt>
<trkpt lat="46.1921166" lon="5.9961871"><ele></ele><time>2015-4-16T9:25:38Z</time></trkpt>
<trkpt lat="46.1920472" lon="5.9962306"><ele></ele><time>2015-4-16T9:25:41Z</time></trkpt>
<trkpt lat="46.1919816" lon="5.9962720"><ele></ele><time>2015-4-16T9:25:44Z</time></trkpt>
<trkpt lat="46.1917940" lon="5.9963940"><ele></ele><time>2015-4-16T9:25:47Z</time></trkpt>
<trkpt lat="46.1917403" lon="5.9964440"><ele></ele><time>2015-4-16T9:25:50Z</time></trkpt>
<trkpt lat="46.1916885" lon="5.9965012"><ele></ele><time>2015-4-16T9:25:53Z</time></trkpt>
<trkpt lat="46.1916448" lon="5.9965659"><ele></ele><time>2015-4-16T9:25:56Z</time></trkpt>
<trkpt lat="46.1916010" lon="5.9966360"><ele></ele><time>2015-4-16T9:25:59Z</time></trkpt>
<trkpt lat="46.1915595" lon="5.9967074"><ele></ele><time>2015-4-16T9:26:2Z</time></trkpt>
<trkpt lat="46.1915205" lon="5.9967820"><ele></ele><time>2015-4-16T9:26:5Z</time></trkpt>
<trkpt lat="46.1913609" lon="5.9970876"><ele></ele><time>2015-4-16T9:26:8Z</time></trkpt>
<trkpt lat="46.1913186" lon="5.9971619"><ele></ele><time>2015-4-16T9:26:11Z</time></trkpt>
<trkpt lat="46.1912715" lon="5.9972393"><ele></ele><time>2015-4-16T9:26:14Z</time></trkpt>
<trkpt lat="46.1912366" lon="5.9973157"><ele></ele><time>2015-4-16T9:26:17Z</time></trkpt>
<trkpt lat="46.1912051" lon="5.9973956"><ele></ele><time>2015-4-16T9:26:20Z</time></trkpt>
<trkpt lat="46.1911708" lon="5.9974709"><ele></ele><time>2015-4-16T9:26:23Z</time></trkpt>
<trkpt lat="46.1911340" lon="5.9975374"><ele></ele><time>2015-4-16T9:26:26Z</time></trkpt>
<trkpt lat="46.1910936" lon="5.9976044"><ele></ele><time>2015-4-16T9:26:29Z</time></trkpt>
<trkpt lat="46.1910462" lon="5.9976591"><ele></ele><time>2015-4-16T9:26:32Z</time></trkpt>
<trkpt lat="46.1909342" lon="5.9977415"><ele></ele><time>2015-4-16T9:26:35Z</time></trkpt>
<trkpt lat="46.1906128" lon="5.9980381"><ele></ele><time>2015-4-16T9:26:38Z</time></trkpt>
<trkpt lat="46.1905584" lon="5.9980961"><ele></ele><time>2015-4-16T9:26:41Z</time></trkpt>
<trkpt lat="46.1905124" lon="5.9981552"><ele></ele><time>2015-4-16T9:26:44Z</time></trkpt>
<trkpt lat="46.1904599" lon="5.9982156"><ele></ele><time>2015-4-16T9:26:47Z</time></trkpt>
<trkpt lat="46.1904072" lon="5.9982735"><ele></ele><time>2015-4-16T9:26:50Z</time></trkpt>
<trkpt lat="46.1901350" lon="5.9985333"><ele></ele><time>2015-4-16T9:26:53Z</time></trkpt>
<trkpt lat="46.1896393" lon="5.9989898"><ele></ele><time>2015-4-16T9:26:56Z</time></trkpt>
<trkpt lat="46.1895318" lon="5.9990897"><ele></ele><time>2015-4-16T9:26:59Z</time></trkpt>
<trkpt lat="46.1890517" lon="5.9994836"><ele></ele><time>2015-4-16T9:27:2Z</time></trkpt>
<trkpt lat="46.1889302" lon="5.9995843"><ele></ele><time>2015-4-16T9:27:5Z</time></trkpt>
<trkpt lat="46.1888789" lon="5.9996085"><ele></ele><time>2015-4-16T9:27:8Z</time></trkpt>
<trkpt lat="46.1887185" lon="5.9996888"><ele></ele><time>2015-4-16T9:27:11Z</time></trkpt>
<trkpt lat="46.1886642" lon="5.9997175"><ele></ele><time>2015-4-16T9:27:14Z</time></trkpt>
<trkpt lat="46.1886086" lon="5.9997453"><ele></ele><time>2015-4-16T9:27:17Z</time></trkpt>
<trkpt lat="46.1885514" lon="5.9997742"><ele></ele><time>2015-4-16T9:27:20Z</time></trkpt>
<trkpt lat="46.1884959" lon="5.9998017"><ele></ele><time>2015-4-16T9:27:23Z</time></trkpt>
<trkpt lat="46.1884396" lon="5.9998302"><ele></ele><time>2015-4-16T9:27:26Z</time></trkpt>
<trkpt lat="46.1878895" lon="6.0001003"><ele></ele><time>2015-4-16T9:27:29Z</time></trkpt>
<trkpt lat="46.1873621" lon="6.0004663"><ele></ele><time>2015-4-16T9:27:32Z</time></trkpt>
<trkpt lat="46.1869219" lon="6.0007428"><ele></ele><time>2015-4-16T9:27:35Z</time></trkpt>
<trkpt lat="46.1865399" lon="6.0009241"><ele></ele><time>2015-4-16T9:27:38Z</time></trkpt>
<trkpt lat="46.1860566" lon="6.0012237"><ele></ele><time>2015-4-16T9:27:41Z</time></trkpt>
<trkpt lat="46.1858469" lon="6.0013807"><ele></ele><time>2015-4-16T9:27:44Z</time></trkpt>
<trkpt lat="46.1857966" lon="6.0014165"><ele></ele><time>2015-4-16T9:27:47Z</time></trkpt>
<trkpt lat="46.1857446" lon="6.0014506"><ele></ele><time>2015-4-16T9:27:50Z</time></trkpt>
<trkpt lat="46.1856937" lon="6.0014798"><ele></ele><time>2015-4-16T9:27:53Z</time></trkpt>
<trkpt lat="46.1856373" lon="6.0014840"><ele></ele><time>2015-4-16T9:27:56Z</time></trkpt>
<trkpt lat="46.1855817" lon="6.0014779"><ele></ele><time>2015-4-16T9:27:59Z</time></trkpt>
<trkpt lat="46.1853661" lon="6.0013428"><ele></ele><time>2015-4-16T9:28:2Z</time></trkpt>
<trkpt lat="46.1852377" lon="6.0011491"><ele></ele><time>2015-4-16T9:28:5Z</time></trkpt>
<trkpt lat="46.1851982" lon="6.0010812"><ele></ele><time>2015-4-16T9:28:8Z</time></trkpt>
<trkpt lat="46.1851077" lon="6.0009664"><ele></ele><time>2015-4-16T9:28:11Z</time></trkpt>
<trkpt lat="46.1849964" lon="6.0008978"><ele></ele><time>2015-4-16T9:28:14Z</time></trkpt>
<trkpt lat="46.1848772" lon="6.0008481"><ele></ele><time>2015-4-16T9:28:17Z</time></trkpt>
<trkpt lat="46.1846218" lon="6.0007583"><ele></ele><time>2015-4-16T9:28:20Z</time></trkpt>
<trkpt lat="46.1844744" lon="6.0007088"><ele></ele><time>2015-4-16T9:28:23Z</time></trkpt>
<trkpt lat="46.1843957" lon="6.0006741"><ele></ele><time>2015-4-16T9:28:26Z</time></trkpt>
<trkpt lat="46.1843215" lon="6.0006352"><ele></ele><time>2015-4-16T9:28:29Z</time></trkpt>
<trkpt lat="46.1842459" lon="6.0005921"><ele></ele><time>2015-4-16T9:28:32Z</time></trkpt>
<trkpt lat="46.1841729" lon="6.0005476"><ele></ele><time>2015-4-16T9:28:35Z</time></trkpt>
<trkpt lat="46.1841021" lon="6.0005037"><ele></ele><time>2015-4-16T9:28:38Z</time></trkpt>
<trkpt lat="46.1835848" lon="6.0001472"><ele></ele><time>2015-4-16T9:28:41Z</time></trkpt>
<trkpt lat="46.1833821" lon="6.0000986"><ele></ele><time>2015-4-16T9:28:44Z</time></trkpt>
<trkpt lat="46.1832511" lon="6.0001149"><ele></ele><time>2015-4-16T9:28:47Z</time></trkpt>
<trkpt lat="46.1830488" lon="6.0001831"><ele></ele><time>2015-4-16T9:28:50Z</time></trkpt>
<trkpt lat="46.1829103" lon="6.0002303"><ele></ele><time>2015-4-16T9:28:53Z</time></trkpt>
<trkpt lat="46.1825672" lon="6.0003524"><ele></ele><time>2015-4-16T9:28:56Z</time></trkpt>
<trkpt lat="46.1822086" lon="6.0004474"><ele></ele><time>2015-4-16T9:28:59Z</time></trkpt>
<trkpt lat="46.1821355" lon="6.0004358"><ele></ele><time>2015-4-16T9:29:2Z</time></trkpt>
<trkpt lat="46.1820582" lon="6.0004108"><ele></ele><time>2015-4-16T9:29:5Z</time></trkpt>
<trkpt lat="46.1819825" lon="6.0003769"><ele></ele><time>2015-4-16T9:29:8Z</time></trkpt>
<trkpt lat="46.1819137" lon="6.0003384"><ele></ele><time>2015-4-16T9:29:11Z</time></trkpt>
<trkpt lat="46.1818463" lon="6.0002954"><ele></ele><time>2015-4-16T9:29:14Z</time></trkpt>
<trkpt lat="46.1817789" lon="6.0002488"><ele></ele><time>2015-4-16T9:29:17Z</time></trkpt>
<trkpt lat="46.1815143" lon="6.0000563"><ele></ele><time>2015-4-16T9:29:20Z</time></trkpt>
<trkpt lat="46.1811573" lon="5.9997276"><ele></ele><time>2015-4-16T9:29:23Z</time></trkpt>
<trkpt lat="46.1811133" lon="5.9996506"><ele></ele><time>2015-4-16T9:29:26Z</time></trkpt>
<trkpt lat="46.1809864" lon="5.9993100"><ele></ele><time>2015-4-16T9:29:29Z</time></trkpt>
<trkpt lat="46.1808927" lon="5.9987582"><ele></ele><time>2015-4-16T9:29:32Z</time></trkpt>
<trkpt lat="46.1807966" lon="5.9981065"><ele></ele><time>2015-4-16T9:29:35Z</time></trkpt>
<trkpt lat="46.1806676" lon="5.9975505"><ele></ele><time>2015-4-16T9:29:38Z</time></trkpt>
<trkpt lat="46.1804960" lon="5.9969681"><ele></ele><time>2015-4-16T9:29:41Z</time></trkpt>
<trkpt lat="46.1802561" lon="5.9964007"><ele></ele><time>2015-4-16T9:29:44Z</time></trkpt>
<trkpt lat="46.1802527" lon="5.9963129"><ele></ele><time>2015-4-16T9:29:47Z</time></trkpt>
<trkpt lat="46.1802601" lon="5.9958847"><ele></ele><time>2015-4-16T9:29:50Z</time></trkpt>
<trkpt lat="46.1802596" lon="5.9957960"><ele></ele><time>2015-4-16T9:29:53Z</time></trkpt>
<trkpt lat="46.1802566" lon="5.9957073"><ele></ele><time>2015-4-16T9:29:56Z</time></trkpt>
<trkpt lat="46.1802499" lon="5.9956183"><ele></ele><time>2015-4-16T9:29:59Z</time></trkpt>
<trkpt lat="46.1802264" lon="5.9955202"><ele></ele><time>2015-4-16T9:30:2Z</time></trkpt>
<trkpt lat="46.1801958" lon="5.9954214"><ele></ele><time>2015-4-16T9:30:5Z</time></trkpt>
<trkpt lat="46.1801565" lon="5.9953318"><ele></ele><time>2015-4-16T9:30:8Z</time></trkpt>
<trkpt lat="46.1801184" lon="5.9952544"><ele></ele><time>2015-4-16T9:30:11Z</time></trkpt>
<trkpt lat="46.1800825" lon="5.9951739"><ele></ele><time>2015-4-16T9:30:14Z</time></trkpt>
<trkpt lat="46.1800517" lon="5.9950996"><ele></ele><time>2015-4-16T9:30:17Z</time></trkpt>
<trkpt lat="46.1800240" lon="5.9950330"><ele></ele><time>2015-4-16T9:30:20Z</time></trkpt>
<trkpt lat="46.1799996" lon="5.9949767"><ele></ele><time>2015-4-16T9:30:23Z</time></trkpt>
<trkpt lat="46.1799786" lon="5.9949260"><ele></ele><time>2015-4-16T9:30:26Z</time></trkpt>
<trkpt lat="46.1799528" lon="5.9948900"><ele></ele><time>2015-4-16T9:30:29Z</time></trkpt>
<trkpt lat="46.1799212" lon="5.9948693"><ele></ele><time>2015-4-16T9:30:32Z</time></trkpt>
<trkpt lat="46.1798828" lon="5.9948692"><ele></ele><time>2015-4-16T9:30:35Z</time></trkpt>
<trkpt lat="46.1798478" lon="5.9949046"><ele></ele><time>2015-4-16T9:30:38Z</time></trkpt>
<trkpt lat="46.1798245" lon="5.9949533"><ele></ele><time>2015-4-16T9:30:41Z</time></trkpt>
<trkpt lat="46.1798168" lon="5.9950407"><ele></ele><time>2015-4-16T9:30:44Z</time></trkpt>
<trkpt lat="46.1797975" lon="5.9952243"><ele></ele><time>2015-4-16T9:30:47Z</time></trkpt>
<trkpt lat="46.1797820" lon="5.9953197"><ele></ele><time>2015-4-16T9:30:50Z</time></trkpt>
<trkpt lat="46.1797622" lon="5.9954259"><ele></ele><time>2015-4-16T9:30:53Z</time></trkpt>
<trkpt lat="46.1797374" lon="5.9955276"><ele></ele><time>2015-4-16T9:30:56Z</time></trkpt>
<trkpt lat="46.1797108" lon="5.9956334"><ele></ele><time>2015-4-16T9:30:59Z</time></trkpt>
<trkpt lat="46.1796970" lon="5.9957433"><ele></ele><time>2015-4-16T9:31:2Z</time></trkpt>
<trkpt lat="46.1796995" lon="5.9958603"><ele></ele><time>2015-4-16T9:31:5Z</time></trkpt>
<trkpt lat="46.1797184" lon="5.9959777"><ele></ele><time>2015-4-16T9:31:8Z</time></trkpt>
<trkpt lat="46.1797478" lon="5.9960912"><ele></ele><time>2015-4-16T9:31:11Z</time></trkpt>
<trkpt lat="46.1797784" lon="5.9962103"><ele></ele><time>2015-4-16T9:31:14Z</time></trkpt>
<trkpt lat="46.1798047" lon="5.9963295"><ele></ele><time>2015-4-16T9:31:17Z</time></trkpt>
<trkpt lat="46.1798383" lon="5.9965715"><ele></ele><time>2015-4-16T9:31:20Z</time></trkpt>
<trkpt lat="46.1798493" lon="5.9966980"><ele></ele><time>2015-4-16T9:31:23Z</time></trkpt>
<trkpt lat="46.1798590" lon="5.9968277"><ele></ele><time>2015-4-16T9:31:26Z</time></trkpt>
<trkpt lat="46.1798691" lon="5.9969610"><ele></ele><time>2015-4-16T9:31:29Z</time></trkpt>
<trkpt lat="46.1798832" lon="5.9970889"><ele></ele><time>2015-4-16T9:31:32Z</time></trkpt>
<trkpt lat="46.1799129" lon="5.9972085"><ele></ele><time>2015-4-16T9:31:35Z</time></trkpt>
<trkpt lat="46.1799510" lon="5.9973326"><ele></ele><time>2015-4-16T9:31:38Z</time></trkpt>
<trkpt lat="46.1799889" lon="5.9974570"><ele></ele><time>2015-4-16T9:31:41Z</time></trkpt>
<trkpt lat="46.1800255" lon="5.9975802"><ele></ele><time>2015-4-16T9:31:44Z</time></trkpt>
<trkpt lat="46.1800621" lon="5.9977005"><ele></ele><time>2015-4-16T9:31:47Z</time></trkpt>
<trkpt lat="46.1800960" lon="5.9978120"><ele></ele><time>2015-4-16T9:31:50Z</time></trkpt>
<trkpt lat="46.1801213" lon="5.9979190"><ele></ele><time>2015-4-16T9:31:53Z</time></trkpt>
<trkpt lat="46.1801294" lon="5.9980369"><ele></ele><time>2015-4-16T9:31:56Z</time></trkpt>
<trkpt lat="46.1801197" lon="5.9981588"><ele></ele><time>2015-4-16T9:31:59Z</time></trkpt>
<trkpt lat="46.1801040" lon="5.9982820"><ele></ele><time>2015-4-16T9:32:2Z</time></trkpt>
<trkpt lat="46.1800924" lon="5.9984088"><ele></ele><time>2015-4-16T9:32:5Z</time></trkpt>
<trkpt lat="46.1800824" lon="5.9985360"><ele></ele><time>2015-4-16T9:32:8Z</time></trkpt>
<trkpt lat="46.1800754" lon="5.9986657"><ele></ele><time>2015-4-16T9:32:11Z</time></trkpt>
<trkpt lat="46.1800726" lon="5.9987915"><ele></ele><time>2015-4-16T9:32:14Z</time></trkpt>
<trkpt lat="46.1800741" lon="5.9989279"><ele></ele><time>2015-4-16T9:32:17Z</time></trkpt>
<trkpt lat="46.1800797" lon="5.9990605"><ele></ele><time>2015-4-16T9:32:20Z</time></trkpt>
<trkpt lat="46.1800866" lon="5.9991767"><ele></ele><time>2015-4-16T9:32:23Z</time></trkpt>
<trkpt lat="46.1800797" lon="5.9992953"><ele></ele><time>2015-4-16T9:32:26Z</time></trkpt>
<trkpt lat="46.1800652" lon="5.9994242"><ele></ele><time>2015-4-16T9:32:29Z</time></trkpt>
<trkpt lat="46.1800527" lon="5.9995545"><ele></ele><time>2015-4-16T9:32:32Z</time></trkpt>
<trkpt lat="46.1800410" lon="5.9996756"><ele></ele><time>2015-4-16T9:32:35Z</time></trkpt>
<trkpt lat="46.1800291" lon="5.9997931"><ele></ele><time>2015-4-16T9:32:38Z</time></trkpt>
<trkpt lat="46.1800225" lon="5.9999157"><ele></ele><time>2015-4-16T9:32:41Z</time></trkpt>
<trkpt lat="46.1800161" lon="6.0000416"><ele></ele><time>2015-4-16T9:32:44Z</time></trkpt>
<trkpt lat="46.1800069" lon="6.0001650"><ele></ele><time>2015-4-16T9:32:47Z</time></trkpt>
<trkpt lat="46.1799951" lon="6.0002892"><ele></ele><time>2015-4-16T9:32:50Z</time></trkpt>
<trkpt lat="46.1799805" lon="6.0004097"><ele></ele><time>2015-4-16T9:32:53Z</time></trkpt>
<trkpt lat="46.1799446" lon="6.0005212"><ele></ele><time>2015-4-16T9:32:56Z</time></trkpt>
<trkpt lat="46.1799123" lon="6.0006426"><ele></ele><time>2015-4-16T9:32:59Z</time></trkpt>
<trkpt lat="46.1798798" lon="6.0007480"><ele></ele><time>2015-4-16T9:33:2Z</time></trkpt>
<trkpt lat="46.1798436" lon="6.0008632"><ele></ele><time>2015-4-16T9:33:5Z</time></trkpt>
<trkpt lat="46.1797670" lon="6.0011911"><ele></ele><time>2015-4-16T9:33:8Z</time></trkpt>
<trkpt lat="46.1797499" lon="6.0012992"><ele></ele><time>2015-4-16T9:33:11Z</time></trkpt>
<trkpt lat="46.1797454" lon="6.0014096"><ele></ele><time>2015-4-16T9:33:14Z</time></trkpt>
<trkpt lat="46.1797552" lon="6.0015249"><ele></ele><time>2015-4-16T9:33:17Z</time></trkpt>
<trkpt lat="46.1797786" lon="6.0016403"><ele></ele><time>2015-4-16T9:33:20Z</time></trkpt>
<trkpt lat="46.1798026" lon="6.0017553"><ele></ele><time>2015-4-16T9:33:23Z</time></trkpt>
<trkpt lat="46.1799208" lon="6.0022887"><ele></ele><time>2015-4-16T9:33:26Z</time></trkpt>
<trkpt lat="46.1799505" lon="6.0024933"><ele></ele><time>2015-4-16T9:33:29Z</time></trkpt>
<trkpt lat="46.1799529" lon="6.0025949"><ele></ele><time>2015-4-16T9:33:32Z</time></trkpt>
<trkpt lat="46.1799355" lon="6.0029144"><ele></ele><time>2015-4-16T9:33:35Z</time></trkpt>
<trkpt lat="46.1798673" lon="6.0034363"><ele></ele><time>2015-4-16T9:33:38Z</time></trkpt>
<trkpt lat="46.1798318" lon="6.0035203"><ele></ele><time>2015-4-16T9:33:41Z</time></trkpt>
<trkpt lat="46.1796434" lon="6.0039349"><ele></ele><time>2015-4-16T9:33:44Z</time></trkpt>
<trkpt lat="46.1795347" lon="6.0042566"><ele></ele><time>2015-4-16T9:33:47Z</time></trkpt>
<trkpt lat="46.1795015" lon="6.0044272"><ele></ele><time>2015-4-16T9:33:50Z</time></trkpt>
<trkpt lat="46.1794896" lon="6.0049579"><ele></ele><time>2015-4-16T9:33:53Z</time></trkpt>
<trkpt lat="46.1796140" lon="6.0051818"><ele></ele><time>2015-4-16T9:33:56Z</time></trkpt>
<trkpt lat="46.1797203" lon="6.0052937"><ele></ele><time>2015-4-16T9:33:59Z</time></trkpt>
<trkpt lat="46.1797786" lon="6.0053453"><ele></ele><time>2015-4-16T9:34:2Z</time></trkpt>
<trkpt lat="46.1798391" lon="6.0053813"><ele></ele><time>2015-4-16T9:34:5Z</time></trkpt>
<trkpt lat="46.1799026" lon="6.0054166"><ele></ele><time>2015-4-16T9:34:8Z</time></trkpt>
<trkpt lat="46.1799662" lon="6.0054460"><ele></ele><time>2015-4-16T9:34:11Z</time></trkpt>
<trkpt lat="46.1803141" lon="6.0055667"><ele></ele><time>2015-4-16T9:34:14Z</time></trkpt>
<trkpt lat="46.1807737" lon="6.0056775"><ele></ele><time>2015-4-16T9:34:17Z</time></trkpt>
<trkpt lat="46.1808475" lon="6.0056951"><ele></ele><time>2015-4-16T9:34:20Z</time></trkpt>
<trkpt lat="46.1809186" lon="6.0057118"><ele></ele><time>2015-4-16T9:34:23Z</time></trkpt>
<trkpt lat="46.1809905" lon="6.0057262"><ele></ele><time>2015-4-16T9:34:26Z</time></trkpt>
<trkpt lat="46.1810604" lon="6.0057422"><ele></ele><time>2015-4-16T9:34:29Z</time></trkpt>
<trkpt lat="46.1815748" lon="6.0058456"><ele></ele><time>2015-4-16T9:34:32Z</time></trkpt>
<trkpt lat="46.1821411" lon="6.0059349"><ele></ele><time>2015-4-16T9:34:35Z</time></trkpt>
<trkpt lat="46.1826352" lon="6.0060688"><ele></ele><time>2015-4-16T9:34:38Z</time></trkpt>
<trkpt lat="46.1826979" lon="6.0060673"><ele></ele><time>2015-4-16T9:34:41Z</time></trkpt>
<trkpt lat="46.1831737" lon="6.0060529"><ele></ele><time>2015-4-16T9:34:44Z</time></trkpt>
<trkpt lat="46.1832361" lon="6.0060468"><ele></ele><time>2015-4-16T9:34:47Z</time></trkpt>
<trkpt lat="46.1833670" lon="6.0060320"><ele></ele><time>2015-4-16T9:34:50Z</time></trkpt>
<trkpt lat="46.1834337" lon="6.0060370"><ele></ele><time>2015-4-16T9:34:53Z</time></trkpt>
<trkpt lat="46.1835000" lon="6.0060557"><ele></ele><time>2015-4-16T9:34:56Z</time></trkpt>
<trkpt lat="46.1835674" lon="6.0060914"><ele></ele><time>2015-4-16T9:34:59Z</time></trkpt>
<trkpt lat="46.1836324" lon="6.0061362"><ele></ele><time>2015-4-16T9:35:2Z</time></trkpt>
<trkpt lat="46.1838315" lon="6.0062432"><ele></ele><time>2015-4-16T9:35:5Z</time></trkpt>
<trkpt lat="46.1839026" lon="6.0062573"><ele></ele><time>2015-4-16T9:35:8Z</time></trkpt>
<trkpt lat="46.1839758" lon="6.0062659"><ele></ele><time>2015-4-16T9:35:11Z</time></trkpt>
<trkpt lat="46.1840382" lon="6.0062706"><ele></ele><time>2015-4-16T9:35:14Z</time></trkpt>
<trkpt lat="46.1840903" lon="6.0062728"><ele></ele><time>2015-4-16T9:35:17Z</time></trkpt>
<trkpt lat="46.1841321" lon="6.0062834"><ele></ele><time>2015-4-16T9:35:20Z</time></trkpt>
<trkpt lat="46.1841789" lon="6.0064097"><ele></ele><time>2015-4-16T9:35:23Z</time></trkpt>
<trkpt lat="46.1841493" lon="6.0065212"><ele></ele><time>2015-4-16T9:35:26Z</time></trkpt>
<trkpt lat="46.1841167" lon="6.0065663"><ele></ele><time>2015-4-16T9:35:29Z</time></trkpt>
<trkpt lat="46.1840825" lon="6.0066172"><ele></ele><time>2015-4-16T9:35:32Z</time></trkpt>
<trkpt lat="46.1840524" lon="6.0066778"><ele></ele><time>2015-4-16T9:35:35Z</time></trkpt>
<trkpt lat="46.1840290" lon="6.0067503"><ele></ele><time>2015-4-16T9:35:38Z</time></trkpt>
<trkpt lat="46.1840066" lon="6.0069246"><ele></ele><time>2015-4-16T9:35:41Z</time></trkpt>
<trkpt lat="46.1840066" lon="6.0070326"><ele></ele><time>2015-4-16T9:35:44Z</time></trkpt>
<trkpt lat="46.1840261" lon="6.0071310"><ele></ele><time>2015-4-16T9:35:47Z</time></trkpt>
<trkpt lat="46.1840581" lon="6.0072248"><ele></ele><time>2015-4-16T9:35:50Z</time></trkpt>
<trkpt lat="46.1840988" lon="6.0073153"><ele></ele><time>2015-4-16T9:35:53Z</time></trkpt>
<trkpt lat="46.1841514" lon="6.0073984"><ele></ele><time>2015-4-16T9:35:56Z</time></trkpt>
<trkpt lat="46.1842086" lon="6.0074784"><ele></ele><time>2015-4-16T9:35:59Z</time></trkpt>
<trkpt lat="46.1842696" lon="6.0075442"><ele></ele><time>2015-4-16T9:36:2Z</time></trkpt>
<trkpt lat="46.1843355" lon="6.0076181"><ele></ele><time>2015-4-16T9:36:5Z</time></trkpt>
<trkpt lat="46.1844715" lon="6.0077530"><ele></ele><time>2015-4-16T9:36:8Z</time></trkpt>
<trkpt lat="46.1845395" lon="6.0078228"><ele></ele><time>2015-4-16T9:36:11Z</time></trkpt>
<trkpt lat="46.1846088" lon="6.0078970"><ele></ele><time>2015-4-16T9:36:14Z</time></trkpt>
<trkpt lat="46.1848610" lon="6.0081341"><ele></ele><time>2015-4-16T9:36:17Z</time></trkpt>
<trkpt lat="46.1849498" lon="6.0082331"><ele></ele><time>2015-4-16T9:36:20Z</time></trkpt>
<trkpt lat="46.1849751" lon="6.0082921"><ele></ele><time>2015-4-16T9:36:23Z</time></trkpt>
<trkpt lat="46.1849474" lon="6.0084165"><ele></ele><time>2015-4-16T9:36:26Z</time></trkpt>
<trkpt lat="46.1848978" lon="6.0084465"><ele></ele><time>2015-4-16T9:36:29Z</time></trkpt>
<trkpt lat="46.1848420" lon="6.0084494"><ele></ele><time>2015-4-16T9:36:32Z</time></trkpt>
<trkpt lat="46.1847829" lon="6.0084270"><ele></ele><time>2015-4-16T9:36:35Z</time></trkpt>
<trkpt lat="46.1847235" lon="6.0083963"><ele></ele><time>2015-4-16T9:36:38Z</time></trkpt>
<trkpt lat="46.1846652" lon="6.0083624"><ele></ele><time>2015-4-16T9:36:41Z</time></trkpt>
<trkpt lat="46.1846054" lon="6.0083282"><ele></ele><time>2015-4-16T9:36:44Z</time></trkpt>
<trkpt lat="46.1845420" lon="6.0082893"><ele></ele><time>2015-4-16T9:36:47Z</time></trkpt>
<trkpt lat="46.1844810" lon="6.0082536"><ele></ele><time>2015-4-16T9:36:50Z</time></trkpt>
<trkpt lat="46.1844197" lon="6.0082211"><ele></ele><time>2015-4-16T9:36:53Z</time></trkpt>
<trkpt lat="46.1843545" lon="6.0081862"><ele></ele><time>2015-4-16T9:36:56Z</time></trkpt>
<trkpt lat="46.1841622" lon="6.0080764"><ele></ele><time>2015-4-16T9:36:59Z</time></trkpt>
<trkpt lat="46.1836424" lon="6.0078580"><ele></ele><time>2015-4-16T9:37:2Z</time></trkpt>
<trkpt lat="46.1835747" lon="6.0078435"><ele></ele><time>2015-4-16T9:37:5Z</time></trkpt>
<trkpt lat="46.1832939" lon="6.0077865"><ele></ele><time>2015-4-16T9:37:8Z</time></trkpt>
<trkpt lat="46.1832144" lon="6.0077723"><ele></ele><time>2015-4-16T9:37:11Z</time></trkpt>
<trkpt lat="46.1831366" lon="6.0077576"><ele></ele><time>2015-4-16T9:37:14Z</time></trkpt>
<trkpt lat="46.1830599" lon="6.0077444"><ele></ele><time>2015-4-16T9:37:17Z</time></trkpt>
<trkpt lat="46.1829805" lon="6.0077350"><ele></ele><time>2015-4-16T9:37:20Z</time></trkpt>
<trkpt lat="46.1825066" lon="6.0077322"><ele></ele><time>2015-4-16T9:37:23Z</time></trkpt>
<trkpt lat="46.1821767" lon="6.0077218"><ele></ele><time>2015-4-16T9:37:26Z</time></trkpt>
<trkpt lat="46.1820939" lon="6.0077001"><ele></ele><time>2015-4-16T9:37:29Z</time></trkpt>
<trkpt lat="46.1820117" lon="6.0076700"><ele></ele><time>2015-4-16T9:37:32Z</time></trkpt>
<trkpt lat="46.1819326" lon="6.0076365"><ele></ele><time>2015-4-16T9:37:35Z</time></trkpt>
<trkpt lat="46.1818537" lon="6.0075941"><ele></ele><time>2015-4-16T9:37:38Z</time></trkpt>
<trkpt lat="46.1816337" lon="6.0074494"><ele></ele><time>2015-4-16T9:37:41Z</time></trkpt>
<trkpt lat="46.1813332" lon="6.0072469"><ele></ele><time>2015-4-16T9:37:44Z</time></trkpt>
<trkpt lat="46.1812585" lon="6.0072025"><ele></ele><time>2015-4-16T9:37:47Z</time></trkpt>
<trkpt lat="46.1811787" lon="6.0071637"><ele></ele><time>2015-4-16T9:37:50Z</time></trkpt>
<trkpt lat="46.1811002" lon="6.0071298"><ele></ele><time>2015-4-16T9:37:53Z</time></trkpt>
<trkpt lat="46.1810254" lon="6.0070996"><ele></ele><time>2015-4-16T9:37:56Z</time></trkpt>
<trkpt lat="46.1805536" lon="6.0069228"><ele></ele><time>2015-4-16T9:37:59Z</time></trkpt>
<trkpt lat="46.1800086" lon="6.0067407"><ele></ele><time>2015-4-16T9:38:2Z</time></trkpt>
<trkpt lat="46.1795561" lon="6.0065827"><ele></ele><time>2015-4-16T9:38:5Z</time></trkpt>
<trkpt lat="46.1790986" lon="6.0064626"><ele></ele><time>2015-4-16T9:38:8Z</time></trkpt>
<trkpt lat="46.1788668" lon="6.0065160"><ele></ele><time>2015-4-16T9:38:11Z</time></trkpt>
<trkpt lat="46.1786722" lon="6.0064692"><ele></ele><time>2015-4-16T9:38:14Z</time></trkpt>
<trkpt lat="46.1785666" lon="6.0063894"><ele></ele><time>2015-4-16T9:38:17Z</time></trkpt>
<trkpt lat="46.1784111" lon="6.0062564"><ele></ele><time>2015-4-16T9:38:20Z</time></trkpt>
<trkpt lat="46.1781741" lon="6.0059864"><ele></ele><time>2015-4-16T9:38:23Z</time></trkpt>
<trkpt lat="46.1781387" lon="6.0059125"><ele></ele><time>2015-4-16T9:38:26Z</time></trkpt>
<trkpt lat="46.1780663" lon="6.0056574"><ele></ele><time>2015-4-16T9:38:29Z</time></trkpt>
<trkpt lat="46.1780536" lon="6.0055724"><ele></ele><time>2015-4-16T9:38:32Z</time></trkpt>
<trkpt lat="46.1779803" lon="6.0048796"><ele></ele><time>2015-4-16T9:38:35Z</time></trkpt>
<trkpt lat="46.1779408" lon="6.0040971"><ele></ele><time>2015-4-16T9:38:38Z</time></trkpt>
<trkpt lat="46.1779337" lon="6.0034009"><ele></ele><time>2015-4-16T9:38:41Z</time></trkpt>
<trkpt lat="46.1779232" lon="6.0025737"><ele></ele><time>2015-4-16T9:38:44Z</time></trkpt>
<trkpt lat="46.1779131" lon="6.0023852"><ele></ele><time>2015-4-16T9:38:47Z</time></trkpt>
<trkpt lat="46.1779036" lon="6.0021041"><ele></ele><time>2015-4-16T9:38:50Z</time></trkpt>
<trkpt lat="46.1779176" lon="6.0018143"><ele></ele><time>2015-4-16T9:38:53Z</time></trkpt>
<trkpt lat="46.1779112" lon="6.0012635"><ele></ele><time>2015-4-16T9:38:56Z</time></trkpt>
<trkpt lat="46.1778895" lon="6.0010226"><ele></ele><time>2015-4-16T9:38:59Z</time></trkpt>
<trkpt lat="46.1778146" lon="6.0009287"><ele></ele><time>2015-4-16T9:39:2Z</time></trkpt>
<trkpt lat="46.1776313" lon="6.0009218"><ele></ele><time>2015-4-16T9:39:5Z</time></trkpt>
<trkpt lat="46.1772471" lon="6.0009984"><ele></ele><time>2015-4-16T9:39:8Z</time></trkpt>
<trkpt lat="46.1771221" lon="6.0010064"><ele></ele><time>2015-4-16T9:39:11Z</time></trkpt>
<trkpt lat="46.1769412" lon="6.0009761"><ele></ele><time>2015-4-16T9:39:14Z</time></trkpt>
<trkpt lat="46.1763800" lon="6.0007769"><ele></ele><time>2015-4-16T9:39:17Z</time></trkpt>
<trkpt lat="46.1758711" lon="6.0005700"><ele></ele><time>2015-4-16T9:39:20Z</time></trkpt>
<trkpt lat="46.1754302" lon="6.0003736"><ele></ele><time>2015-4-16T9:39:23Z</time></trkpt>
<trkpt lat="46.1753578" lon="6.0002088"><ele></ele><time>2015-4-16T9:39:26Z</time></trkpt>
<trkpt lat="46.1753747" lon="6.0000037"><ele></ele><time>2015-4-16T9:39:29Z</time></trkpt>
<trkpt lat="46.1753937" lon="5.9998727"><ele></ele><time>2015-4-16T9:39:32Z</time></trkpt>
<trkpt lat="46.1754025" lon="5.9998034"><ele></ele><time>2015-4-16T9:39:35Z</time></trkpt>
<trkpt lat="46.1754077" lon="5.9997361"><ele></ele><time>2015-4-16T9:39:38Z</time></trkpt>
<trkpt lat="46.1754146" lon="5.9996708"><ele></ele><time>2015-4-16T9:39:41Z</time></trkpt>
<trkpt lat="46.1754239" lon="5.9996059"><ele></ele><time>2015-4-16T9:39:44Z</time></trkpt>
<trkpt lat="46.1754307" lon="5.9995429"><ele></ele><time>2015-4-16T9:39:47Z</time></trkpt>
<trkpt lat="46.1754780" lon="5.9992440"><ele></ele><time>2015-4-16T9:39:50Z</time></trkpt>
<trkpt lat="46.1755167" lon="5.9990040"><ele></ele><time>2015-4-16T9:39:53Z</time></trkpt>
<trkpt lat="46.1755283" lon="5.9989457"><ele></ele><time>2015-4-16T9:39:56Z</time></trkpt>
<trkpt lat="46.1755395" lon="5.9988874"><ele></ele><time>2015-4-16T9:39:59Z</time></trkpt>
<trkpt lat="46.1755507" lon="5.9988303"><ele></ele><time>2015-4-16T9:40:2Z</time></trkpt>
<trkpt lat="46.1755611" lon="5.9987688"><ele></ele><time>2015-4-16T9:40:5Z</time></trkpt>
<trkpt lat="46.1755893" lon="5.9985835"><ele></ele><time>2015-4-16T9:40:8Z</time></trkpt>
<trkpt lat="46.1756540" lon="5.9983207"><ele></ele><time>2015-4-16T9:40:11Z</time></trkpt>
<trkpt lat="46.1756692" lon="5.9982630"><ele></ele><time>2015-4-16T9:40:14Z</time></trkpt>
<trkpt lat="46.1756789" lon="5.9982019"><ele></ele><time>2015-4-16T9:40:17Z</time></trkpt>
<trkpt lat="46.1756881" lon="5.9981374"><ele></ele><time>2015-4-16T9:40:20Z</time></trkpt>
<trkpt lat="46.1756932" lon="5.9980692"><ele></ele><time>2015-4-16T9:40:23Z</time></trkpt>
<trkpt lat="46.1756951" lon="5.9979429"><ele></ele><time>2015-4-16T9:40:26Z</time></trkpt>
<trkpt lat="46.1756886" lon="5.9978709"><ele></ele><time>2015-4-16T9:40:29Z</time></trkpt>
<trkpt lat="46.1756750" lon="5.9977949"><ele></ele><time>2015-4-16T9:40:32Z</time></trkpt>
<trkpt lat="46.1755741" lon="5.9976457"><ele></ele><time>2015-4-16T9:40:35Z</time></trkpt>
<trkpt lat="46.1754007" lon="5.9975805"><ele></ele><time>2015-4-16T9:40:38Z</time></trkpt>
<trkpt lat="46.1753173" lon="5.9975989"><ele></ele><time>2015-4-16T9:40:41Z</time></trkpt>
<trkpt lat="46.1752781" lon="5.9976203"><ele></ele><time>2015-4-16T9:40:44Z</time></trkpt>
<trkpt lat="46.1752427" lon="5.9976432"><ele></ele><time>2015-4-16T9:40:47Z</time></trkpt>
<trkpt lat="46.1752077" lon="5.9976731"><ele></ele><time>2015-4-16T9:40:50Z</time></trkpt>
<trkpt lat="46.1751742" lon="5.9977081"><ele></ele><time>2015-4-16T9:40:53Z</time></trkpt>
<trkpt lat="46.1751001" lon="5.9978474"><ele></ele><time>2015-4-16T9:40:56Z</time></trkpt>
<trkpt lat="46.1750450" lon="5.9981271"><ele></ele><time>2015-4-16T9:40:59Z</time></trkpt>
<trkpt lat="46.1750350" lon="5.9981830"><ele></ele><time>2015-4-16T9:41:2Z</time></trkpt>
<trkpt lat="46.1750244" lon="5.9982378"><ele></ele><time>2015-4-16T9:41:5Z</time></trkpt>
<trkpt lat="46.1750142" lon="5.9982938"><ele></ele><time>2015-4-16T9:41:8Z</time></trkpt>
<trkpt lat="46.1750043" lon="5.9983480"><ele></ele><time>2015-4-16T9:41:11Z</time></trkpt>
<trkpt lat="46.1749233" lon="5.9988469"><ele></ele><time>2015-4-16T9:41:14Z</time></trkpt>
<trkpt lat="46.1749157" lon="5.9989035"><ele></ele><time>2015-4-16T9:41:17Z</time></trkpt>
<trkpt lat="46.1749064" lon="5.9989599"><ele></ele><time>2015-4-16T9:41:20Z</time></trkpt>
<trkpt lat="46.1748966" lon="5.9990138"><ele></ele><time>2015-4-16T9:41:23Z</time></trkpt>
<trkpt lat="46.1748868" lon="5.9990682"><ele></ele><time>2015-4-16T9:41:26Z</time></trkpt>
<trkpt lat="46.1748766" lon="5.9991209"><ele></ele><time>2015-4-16T9:41:29Z</time></trkpt>
<trkpt lat="46.1747797" lon="5.9996468"><ele></ele><time>2015-4-16T9:41:32Z</time></trkpt>
<trkpt lat="46.1747505" lon="5.9997999"><ele></ele><time>2015-4-16T9:41:35Z</time></trkpt>
<trkpt lat="46.1747413" lon="5.9998525"><ele></ele><time>2015-4-16T9:41:38Z</time></trkpt>
<trkpt lat="46.1747324" lon="5.9999043"><ele></ele><time>2015-4-16T9:41:41Z</time></trkpt>
<trkpt lat="46.1747231" lon="5.9999569"><ele></ele><time>2015-4-16T9:41:44Z</time></trkpt>
<trkpt lat="46.1747128" lon="6.0000098"><ele></ele><time>2015-4-16T9:41:47Z</time></trkpt>
<trkpt lat="46.1746027" lon="6.0005865"><ele></ele><time>2015-4-16T9:41:50Z</time></trkpt>
<trkpt lat="46.1745930" lon="6.0006381"><ele></ele><time>2015-4-16T9:41:53Z</time></trkpt>
<trkpt lat="46.1745841" lon="6.0006895"><ele></ele><time>2015-4-16T9:41:56Z</time></trkpt>
<trkpt lat="46.1745760" lon="6.0007408"><ele></ele><time>2015-4-16T9:41:59Z</time></trkpt>
<trkpt lat="46.1745686" lon="6.0007904"><ele></ele><time>2015-4-16T9:42:2Z</time></trkpt>
<trkpt lat="46.1744920" lon="6.0012014"><ele></ele><time>2015-4-16T9:42:5Z</time></trkpt>
<trkpt lat="46.1744798" lon="6.0012541"><ele></ele><time>2015-4-16T9:42:8Z</time></trkpt>
<trkpt lat="46.1744693" lon="6.0013046"><ele></ele><time>2015-4-16T9:42:11Z</time></trkpt>
<trkpt lat="46.1744605" lon="6.0013581"><ele></ele><time>2015-4-16T9:42:14Z</time></trkpt>
<trkpt lat="46.1744508" lon="6.0014101"><ele></ele><time>2015-4-16T9:42:17Z</time></trkpt>
<trkpt lat="46.1744392" lon="6.0014594"><ele></ele><time>2015-4-16T9:42:20Z</time></trkpt>
<trkpt lat="46.1743876" lon="6.0017675"><ele></ele><time>2015-4-16T9:42:23Z</time></trkpt>
<trkpt lat="46.1743659" lon="6.0018702"><ele></ele><time>2015-4-16T9:42:26Z</time></trkpt>
<trkpt lat="46.1743544" lon="6.0019201"><ele></ele><time>2015-4-16T9:42:29Z</time></trkpt>
<trkpt lat="46.1743477" lon="6.0019721"><ele></ele><time>2015-4-16T9:42:32Z</time></trkpt>
<trkpt lat="46.1743401" lon="6.0020224"><ele></ele><time>2015-4-16T9:42:35Z</time></trkpt>
<trkpt lat="46.1743301" lon="6.0020689"><ele></ele><time>2015-4-16T9:42:38Z</time></trkpt>
<trkpt lat="46.1742544" lon="6.0024552"><ele></ele><time>2015-4-16T9:42:41Z</time></trkpt>
<trkpt lat="46.1742404" lon="6.0025388"><ele></ele><time>2015-4-16T9:42:44Z</time></trkpt>
<trkpt lat="46.1742315" lon="6.0025876"><ele></ele><time>2015-4-16T9:42:47Z</time></trkpt>
<trkpt lat="46.1742191" lon="6.0026327"><ele></ele><time>2015-4-16T9:42:50Z</time></trkpt>
<trkpt lat="46.1742058" lon="6.0026789"><ele></ele><time>2015-4-16T9:42:53Z</time></trkpt>
<trkpt lat="46.1741558" lon="6.0029665"><ele></ele><time>2015-4-16T9:42:56Z</time></trkpt>
<trkpt lat="46.1741446" lon="6.0030140"><ele></ele><time>2015-4-16T9:42:59Z</time></trkpt>
<trkpt lat="46.1741331" lon="6.0030589"><ele></ele><time>2015-4-16T9:43:2Z</time></trkpt>
<trkpt lat="46.1741228" lon="6.0031068"><ele></ele><time>2015-4-16T9:43:5Z</time></trkpt>
<trkpt lat="46.1741140" lon="6.0031544"><ele></ele><time>2015-4-16T9:43:8Z</time></trkpt>
<trkpt lat="46.1740564" lon="6.0034373"><ele></ele><time>2015-4-16T9:43:11Z</time></trkpt>
<trkpt lat="46.1740487" lon="6.0034823"><ele></ele><time>2015-4-16T9:43:14Z</time></trkpt>
<trkpt lat="46.1740357" lon="6.0035268"><ele></ele><time>2015-4-16T9:43:17Z</time></trkpt>
<trkpt lat="46.1740225" lon="6.0035752"><ele></ele><time>2015-4-16T9:43:20Z</time></trkpt>
<trkpt lat="46.1740168" lon="6.0036152"><ele></ele><time>2015-4-16T9:43:23Z</time></trkpt>
<trkpt lat="46.1739716" lon="6.0038863"><ele></ele><time>2015-4-16T9:43:26Z</time></trkpt>
<trkpt lat="46.1739598" lon="6.0039318"><ele></ele><time>2015-4-16T9:43:29Z</time></trkpt>
<trkpt lat="46.1739492" lon="6.0039771"><ele></ele><time>2015-4-16T9:43:32Z</time></trkpt>
<trkpt lat="46.1739401" lon="6.0040238"><ele></ele><time>2015-4-16T9:43:35Z</time></trkpt>
<trkpt lat="46.1739308" lon="6.0040699"><ele></ele><time>2015-4-16T9:43:38Z</time></trkpt>
<trkpt lat="46.1739263" lon="6.0041212"><ele></ele><time>2015-4-16T9:43:41Z</time></trkpt>
<trkpt lat="46.1738824" lon="6.0043478"><ele></ele><time>2015-4-16T9:43:44Z</time></trkpt>
<trkpt lat="46.1738764" lon="6.0043970"><ele></ele><time>2015-4-16T9:43:47Z</time></trkpt>
<trkpt lat="46.1738730" lon="6.0044477"><ele></ele><time>2015-4-16T9:43:50Z</time></trkpt>
<trkpt lat="46.1738659" lon="6.0044929"><ele></ele><time>2015-4-16T9:43:53Z</time></trkpt>
<trkpt lat="46.1738583" lon="6.0045376"><ele></ele><time>2015-4-16T9:43:56Z</time></trkpt>
<trkpt lat="46.1738493" lon="6.0045809"><ele></ele><time>2015-4-16T9:43:59Z</time></trkpt>
<trkpt lat="46.1738383" lon="6.0046713"><ele></ele><time>2015-4-16T9:44:2Z</time></trkpt>
<trkpt lat="46.1737814" lon="6.0050072"><ele></ele><time>2015-4-16T9:44:5Z</time></trkpt>
<trkpt lat="46.1737793" lon="6.0050586"><ele></ele><time>2015-4-16T9:44:8Z</time></trkpt>
<trkpt lat="46.1737778" lon="6.0051070"><ele></ele><time>2015-4-16T9:44:11Z</time></trkpt>
<trkpt lat="46.1737758" lon="6.0051570"><ele></ele><time>2015-4-16T9:44:14Z</time></trkpt>
<trkpt lat="46.1737692" lon="6.0052056"><ele></ele><time>2015-4-16T9:44:17Z</time></trkpt>
<trkpt lat="46.1737234" lon="6.0053986"><ele></ele><time>2015-4-16T9:44:20Z</time></trkpt>
<trkpt lat="46.1737223" lon="6.0054521"><ele></ele><time>2015-4-16T9:44:23Z</time></trkpt>
<trkpt lat="46.1737292" lon="6.0054952"><ele></ele><time>2015-4-16T9:44:26Z</time></trkpt>
<trkpt lat="46.1737446" lon="6.0055376"><ele></ele><time>2015-4-16T9:44:29Z</time></trkpt>
<trkpt lat="46.1737670" lon="6.0055725"><ele></ele><time>2015-4-16T9:44:32Z</time></trkpt>
<trkpt lat="46.1738988" lon="6.0057858"><ele></ele><time>2015-4-16T9:44:35Z</time></trkpt>
<trkpt lat="46.1739947" lon="6.0060308"><ele></ele><time>2015-4-16T9:44:38Z</time></trkpt>
<trkpt lat="46.1740123" lon="6.0060653"><ele></ele><time>2015-4-16T9:44:41Z</time></trkpt>
<trkpt lat="46.1740310" lon="6.0060973"><ele></ele><time>2015-4-16T9:44:44Z</time></trkpt>
<trkpt lat="46.1740509" lon="6.0061291"><ele></ele><time>2015-4-16T9:44:47Z</time></trkpt>
<trkpt lat="46.1740796" lon="6.0061663"><ele></ele><time>2015-4-16T9:44:50Z</time></trkpt>
<trkpt lat="46.1741445" lon="6.0062739"><ele></ele><time>2015-4-16T9:44:53Z</time></trkpt>
<trkpt lat="46.1742658" lon="6.0065221"><ele></ele><time>2015-4-16T9:44:56Z</time></trkpt>
<trkpt lat="46.1743611" lon="6.0067270"><ele></ele><time>2015-4-16T9:44:59Z</time></trkpt>
<trkpt lat="46.1743728" lon="6.0067585"><ele></ele><time>2015-4-16T9:45:2Z</time></trkpt>
<trkpt lat="46.1743838" lon="6.0067943"><ele></ele><time>2015-4-16T9:45:5Z</time></trkpt>
<trkpt lat="46.1743981" lon="6.0068337"><ele></ele><time>2015-4-16T9:45:8Z</time></trkpt>
<trkpt lat="46.1744175" lon="6.0068871"><ele></ele><time>2015-4-16T9:45:11Z</time></trkpt>
<trkpt lat="46.1744994" lon="6.0071321"><ele></ele><time>2015-4-16T9:45:14Z</time></trkpt>
<trkpt lat="46.1745678" lon="6.0073269"><ele></ele><time>2015-4-16T9:45:17Z</time></trkpt>
<trkpt lat="46.1745961" lon="6.0073818"><ele></ele><time>2015-4-16T9:45:20Z</time></trkpt>
<trkpt lat="46.1746178" lon="6.0074344"><ele></ele><time>2015-4-16T9:45:23Z</time></trkpt>
<trkpt lat="46.1746324" lon="6.0074783"><ele></ele><time>2015-4-16T9:45:26Z</time></trkpt>
<trkpt lat="46.1746447" lon="6.0075197"><ele></ele><time>2015-4-16T9:45:29Z</time></trkpt>
<trkpt lat="46.1747450" lon="6.0078614"><ele></ele><time>2015-4-16T9:45:32Z</time></trkpt>
<trkpt lat="46.1748036" lon="6.0080227"><ele></ele><time>2015-4-16T9:45:35Z</time></trkpt>
<trkpt lat="46.1748230" lon="6.0080677"><ele></ele><time>2015-4-16T9:45:38Z</time></trkpt>
<trkpt lat="46.1748413" lon="6.0081159"><ele></ele><time>2015-4-16T9:45:41Z</time></trkpt>
<trkpt lat="46.1748589" lon="6.0081682"><ele></ele><time>2015-4-16T9:45:44Z</time></trkpt>
<trkpt lat="46.1748754" lon="6.0082164"><ele></ele><time>2015-4-16T9:45:47Z</time></trkpt>
<trkpt lat="46.1748907" lon="6.0082656"><ele></ele><time>2015-4-16T9:45:50Z</time></trkpt>
<trkpt lat="46.1749817" lon="6.0085793"><ele></ele><time>2015-4-16T9:45:53Z</time></trkpt>
<trkpt lat="46.1750023" lon="6.0086328"><ele></ele><time>2015-4-16T9:45:56Z</time></trkpt>
<trkpt lat="46.1750124" lon="6.0086815"><ele></ele><time>2015-4-16T9:45:59Z</time></trkpt>
<trkpt lat="46.1750290" lon="6.0087359"><ele></ele><time>2015-4-16T9:46:2Z</time></trkpt>
<trkpt lat="46.1750444" lon="6.0087796"><ele></ele><time>2015-4-16T9:46:5Z</time></trkpt>
<trkpt lat="46.1750617" lon="6.0088404"><ele></ele><time>2015-4-16T9:46:8Z</time></trkpt>
<trkpt lat="46.1751531" lon="6.0091155"><ele></ele><time>2015-4-16T9:46:11Z</time></trkpt>
<trkpt lat="46.1751826" lon="6.0092985"><ele></ele><time>2015-4-16T9:46:14Z</time></trkpt>
<trkpt lat="46.1751932" lon="6.0093435"><ele></ele><time>2015-4-16T9:46:17Z</time></trkpt>
<trkpt lat="46.1752064" lon="6.0093915"><ele></ele><time>2015-4-16T9:46:20Z</time></trkpt>
<trkpt lat="46.1752185" lon="6.0094350"><ele></ele><time>2015-4-16T9:46:23Z</time></trkpt>
<trkpt lat="46.1752307" lon="6.0094868"><ele></ele><time>2015-4-16T9:46:26Z</time></trkpt>
<trkpt lat="46.1752453" lon="6.0097027"><ele></ele><time>2015-4-16T9:46:29Z</time></trkpt>
<trkpt lat="46.1751945" lon="6.0099361"><ele></ele><time>2015-4-16T9:46:32Z</time></trkpt>
<trkpt lat="46.1750415" lon="6.0101860"><ele></ele><time>2015-4-16T9:46:35Z</time></trkpt>
<trkpt lat="46.1750089" lon="6.0102246"><ele></ele><time>2015-4-16T9:46:38Z</time></trkpt>
<trkpt lat="46.1749815" lon="6.0102901"><ele></ele><time>2015-4-16T9:46:41Z</time></trkpt>
<trkpt lat="46.1749382" lon="6.0103379"><ele></ele><time>2015-4-16T9:46:44Z</time></trkpt>
<trkpt lat="46.1748947" lon="6.0103900"><ele></ele><time>2015-4-16T9:46:47Z</time></trkpt>
<trkpt lat="46.1747633" lon="6.0105365"><ele></ele><time>2015-4-16T9:46:50Z</time></trkpt>
<trkpt lat="46.1745989" lon="6.0107153"><ele></ele><time>2015-4-16T9:46:53Z</time></trkpt>
<trkpt lat="46.1745705" lon="6.0107426"><ele></ele><time>2015-4-16T9:46:56Z</time></trkpt>
<trkpt lat="46.1745411" lon="6.0107650"><ele></ele><time>2015-4-16T9:46:59Z</time></trkpt>
<trkpt lat="46.1745102" lon="6.0107911"><ele></ele><time>2015-4-16T9:47:2Z</time></trkpt>
<trkpt lat="46.1744781" lon="6.0108198"><ele></ele><time>2015-4-16T9:47:5Z</time></trkpt>
<trkpt lat="46.1742246" lon="6.0110601"><ele></ele><time>2015-4-16T9:47:8Z</time></trkpt>
<trkpt lat="46.1741389" lon="6.0112373"><ele></ele><time>2015-4-16T9:47:11Z</time></trkpt>
<trkpt lat="46.1741357" lon="6.0114056"><ele></ele><time>2015-4-16T9:47:14Z</time></trkpt>
<trkpt lat="46.1741433" lon="6.0114710"><ele></ele><time>2015-4-16T9:47:17Z</time></trkpt>
<trkpt lat="46.1742027" lon="6.0118970"><ele></ele><time>2015-4-16T9:47:20Z</time></trkpt>
<trkpt lat="46.1742607" lon="6.0123107"><ele></ele><time>2015-4-16T9:47:23Z</time></trkpt>
<trkpt lat="46.1743016" lon="6.0125240"><ele></ele><time>2015-4-16T9:47:26Z</time></trkpt>
<trkpt lat="46.1743242" lon="6.0129341"><ele></ele><time>2015-4-16T9:47:29Z</time></trkpt>
<trkpt lat="46.1742779" lon="6.0129985"><ele></ele><time>2015-4-16T9:47:32Z</time></trkpt>
<trkpt lat="46.1742517" lon="6.0130276"><ele></ele><time>2015-4-16T9:47:35Z</time></trkpt>
<trkpt lat="46.1742239" lon="6.0130489"><ele></ele><time>2015-4-16T9:47:38Z</time></trkpt>
<trkpt lat="46.1741952" lon="6.0130686"><ele></ele><time>2015-4-16T9:47:41Z</time></trkpt>
<trkpt lat="46.1741668" lon="6.0130887"><ele></ele><time>2015-4-16T9:47:44Z</time></trkpt>
<trkpt lat="46.1740846" lon="6.0131504"><ele></ele><time>2015-4-16T9:47:47Z</time></trkpt>
<trkpt lat="46.1740583" lon="6.0131717"><ele></ele><time>2015-4-16T9:47:50Z</time></trkpt>
<trkpt lat="46.1740313" lon="6.0131908"><ele></ele><time>2015-4-16T9:47:53Z</time></trkpt>
<trkpt lat="46.1740009" lon="6.0132064"><ele></ele><time>2015-4-16T9:47:56Z</time></trkpt>
<trkpt lat="46.1739659" lon="6.0132189"><ele></ele><time>2015-4-16T9:47:59Z</time></trkpt>
<trkpt lat="46.1738070" lon="6.0133022"><ele></ele><time>2015-4-16T9:48:2Z</time></trkpt>
<trkpt lat="46.1737773" lon="6.0133226"><ele></ele><time>2015-4-16T9:48:5Z</time></trkpt>
<trkpt lat="46.1737475" lon="6.0133413"><ele></ele><time>2015-4-16T9:48:8Z</time></trkpt>
<trkpt lat="46.1737150" lon="6.0133592"><ele></ele><time>2015-4-16T9:48:11Z</time></trkpt>
<trkpt lat="46.1736817" lon="6.0133757"><ele></ele><time>2015-4-16T9:48:14Z</time></trkpt>
<trkpt lat="46.1735591" lon="6.0134615"><ele></ele><time>2015-4-16T9:48:17Z</time></trkpt>
<trkpt lat="46.1734946" lon="6.0134953"><ele></ele><time>2015-4-16T9:48:20Z</time></trkpt>
<trkpt lat="46.1734611" lon="6.0135111"><ele></ele><time>2015-4-16T9:48:23Z</time></trkpt>
<trkpt lat="46.1734296" lon="6.0135285"><ele></ele><time>2015-4-16T9:48:26Z</time></trkpt>
<trkpt lat="46.1733991" lon="6.0135488"><ele></ele><time>2015-4-16T9:48:29Z</time></trkpt>
<trkpt lat="46.1733686" lon="6.0135722"><ele></ele><time>2015-4-16T9:48:32Z</time></trkpt>
<trkpt lat="46.1733099" lon="6.0136264"><ele></ele><time>2015-4-16T9:48:35Z</time></trkpt>
<trkpt lat="46.1732346" lon="6.0137076"><ele></ele><time>2015-4-16T9:48:38Z</time></trkpt>
<trkpt lat="46.1732136" lon="6.0137436"><ele></ele><time>2015-4-16T9:48:41Z</time></trkpt>
<trkpt lat="46.1731944" lon="6.0137885"><ele></ele><time>2015-4-16T9:48:44Z</time></trkpt>
<trkpt lat="46.1731756" lon="6.0138305"><ele></ele><time>2015-4-16T9:48:47Z</time></trkpt>
<trkpt lat="46.1731582" lon="6.0138775"><ele></ele><time>2015-4-16T9:48:50Z</time></trkpt>
<trkpt lat="46.1730619" lon="6.0140980"><ele></ele><time>2015-4-16T9:48:53Z</time></trkpt>
<trkpt lat="46.1730437" lon="6.0141437"><ele></ele><time>2015-4-16T9:48:56Z</time></trkpt>
<trkpt lat="46.1730240" lon="6.0141889"><ele></ele><time>2015-4-16T9:48:59Z</time></trkpt>
<trkpt lat="46.1730066" lon="6.0142311"><ele></ele><time>2015-4-16T9:49:2Z</time></trkpt>
<trkpt lat="46.1729884" lon="6.0142701"><ele></ele><time>2015-4-16T9:49:5Z</time></trkpt>
<trkpt lat="46.1729133" lon="6.0144564"><ele></ele><time>2015-4-16T9:49:8Z</time></trkpt>
<trkpt lat="46.1728949" lon="6.0144994"><ele></ele><time>2015-4-16T9:49:11Z</time></trkpt>
<trkpt lat="46.1728759" lon="6.0145431"><ele></ele><time>2015-4-16T9:49:14Z</time></trkpt>
<trkpt lat="46.1728566" lon="6.0145883"><ele></ele><time>2015-4-16T9:49:17Z</time></trkpt>
<trkpt lat="46.1728179" lon="6.0146778"><ele></ele><time>2015-4-16T9:49:20Z</time></trkpt>
<trkpt lat="46.1727684" lon="6.0148081"><ele></ele><time>2015-4-16T9:49:23Z</time></trkpt>
<trkpt lat="46.1727564" lon="6.0148426"><ele></ele><time>2015-4-16T9:49:26Z</time></trkpt>
<trkpt lat="46.1727381" lon="6.0148803"><ele></ele><time>2015-4-16T9:49:29Z</time></trkpt>
<trkpt lat="46.1727185" lon="6.0149123"><ele></ele><time>2015-4-16T9:49:32Z</time></trkpt>
<trkpt lat="46.1727012" lon="6.0149496"><ele></ele><time>2015-4-16T9:49:35Z</time></trkpt>
<trkpt lat="46.1725734" lon="6.0152124"><ele></ele><time>2015-4-16T9:49:38Z</time></trkpt>
<trkpt lat="46.1725582" lon="6.0152523"><ele></ele><time>2015-4-16T9:49:41Z</time></trkpt>
<trkpt lat="46.1725442" lon="6.0152925"><ele></ele><time>2015-4-16T9:49:44Z</time></trkpt>
<trkpt lat="46.1725289" lon="6.0153268"><ele></ele><time>2015-4-16T9:49:47Z</time></trkpt>
<trkpt lat="46.1725153" lon="6.0153627"><ele></ele><time>2015-4-16T9:49:50Z</time></trkpt>
<trkpt lat="46.1724191" lon="6.0156005"><ele></ele><time>2015-4-16T9:49:53Z</time></trkpt>
<trkpt lat="46.1724025" lon="6.0156446"><ele></ele><time>2015-4-16T9:49:56Z</time></trkpt>
<trkpt lat="46.1723900" lon="6.0156825"><ele></ele><time>2015-4-16T9:49:59Z</time></trkpt>
<trkpt lat="46.1723752" lon="6.0157236"><ele></ele><time>2015-4-16T9:50:2Z</time></trkpt>
<trkpt lat="46.1723614" lon="6.0157637"><ele></ele><time>2015-4-16T9:50:5Z</time></trkpt>
<trkpt lat="46.1723138" lon="6.0159513"><ele></ele><time>2015-4-16T9:50:8Z</time></trkpt>
<trkpt lat="46.1722975" lon="6.0163217"><ele></ele><time>2015-4-16T9:50:11Z</time></trkpt>
<trkpt lat="46.1723081" lon="6.0165346"><ele></ele><time>2015-4-16T9:50:14Z</time></trkpt>
<trkpt lat="46.1723144" lon="6.0165842"><ele></ele><time>2015-4-16T9:50:17Z</time></trkpt>
<trkpt lat="46.1723232" lon="6.0166305"><ele></ele><time>2015-4-16T9:50:20Z</time></trkpt>
<trkpt lat="46.1723346" lon="6.0166819"><ele></ele><time>2015-4-16T9:50:23Z</time></trkpt>
<trkpt lat="46.1723451" lon="6.0167307"><ele></ele><time>2015-4-16T9:50:26Z</time></trkpt>
<trkpt lat="46.1724454" lon="6.0170095"><ele></ele><time>2015-4-16T9:50:29Z</time></trkpt>
<trkpt lat="46.1725661" lon="6.0172365"><ele></ele><time>2015-4-16T9:50:32Z</time></trkpt>
<trkpt lat="46.1726512" lon="6.0173854"><ele></ele><time>2015-4-16T9:50:35Z</time></trkpt>
<trkpt lat="46.1727611" lon="6.0174702"><ele></ele><time>2015-4-16T9:50:38Z</time></trkpt>
<trkpt lat="46.1728764" lon="6.0173763"><ele></ele><time>2015-4-16T9:50:41Z</time></trkpt>
<trkpt lat="46.1729437" lon="6.0172767"><ele></ele><time>2015-4-16T9:50:44Z</time></trkpt>
<trkpt lat="46.1731262" lon="6.0170616"><ele></ele><time>2015-4-16T9:50:47Z</time></trkpt>
<trkpt lat="46.1734126" lon="6.0167230"><ele></ele><time>2015-4-16T9:50:50Z</time></trkpt>
<trkpt lat="46.1734499" lon="6.0166997"><ele></ele><time>2015-4-16T9:50:53Z</time></trkpt>
<trkpt lat="46.1735741" lon="6.0166719"><ele></ele><time>2015-4-16T9:50:56Z</time></trkpt>
<trkpt lat="46.1736988" lon="6.0167127"><ele></ele><time>2015-4-16T9:50:59Z</time></trkpt>
<trkpt lat="46.1737825" lon="6.0167605"><ele></ele><time>2015-4-16T9:51:2Z</time></trkpt>
<trkpt lat="46.1739272" lon="6.0168950"><ele></ele><time>2015-4-16T9:51:5Z</time></trkpt>
<trkpt lat="46.1741253" lon="6.0171962"><ele></ele><time>2015-4-16T9:51:8Z</time></trkpt>
<trkpt lat="46.1741565" lon="6.0172519"><ele></ele><time>2015-4-16T9:51:11Z</time></trkpt>
<trkpt lat="46.1743297" lon="6.0175213"><ele></ele><time>2015-4-16T9:51:14Z</time></trkpt>
<trkpt lat="46.1745248" lon="6.0178711"><ele></ele><time>2015-4-16T9:51:17Z</time></trkpt>
<trkpt lat="46.1746121" lon="6.0180566"><ele></ele><time>2015-4-16T9:51:20Z</time></trkpt>
<trkpt lat="46.1746725" lon="6.0181786"><ele></ele><time>2015-4-16T9:51:23Z</time></trkpt>
<trkpt lat="46.1746920" lon="6.0182451"><ele></ele><time>2015-4-16T9:51:26Z</time></trkpt>
<trkpt lat="46.1747472" lon="6.0184729"><ele></ele><time>2015-4-16T9:51:29Z</time></trkpt>
<trkpt lat="46.1747563" lon="6.0185558"><ele></ele><time>2015-4-16T9:51:32Z</time></trkpt>
<trkpt lat="46.1747314" lon="6.0187218"><ele></ele><time>2015-4-16T9:51:35Z</time></trkpt>
<trkpt lat="46.1746976" lon="6.0187983"><ele></ele><time>2015-4-16T9:51:38Z</time></trkpt>
<trkpt lat="46.1746559" lon="6.0188666"><ele></ele><time>2015-4-16T9:51:41Z</time></trkpt>
<trkpt lat="46.1746135" lon="6.0189306"><ele></ele><time>2015-4-16T9:51:44Z</time></trkpt>
<trkpt lat="46.1745636" lon="6.0190037"><ele></ele><time>2015-4-16T9:51:47Z</time></trkpt>
<trkpt lat="46.1743671" lon="6.0192737"><ele></ele><time>2015-4-16T9:51:50Z</time></trkpt>
<trkpt lat="46.1741930" lon="6.0195263"><ele></ele><time>2015-4-16T9:51:53Z</time></trkpt>
<trkpt lat="46.1742029" lon="6.0196529"><ele></ele><time>2015-4-16T9:51:56Z</time></trkpt>
<trkpt lat="46.1742528" lon="6.0198132"><ele></ele><time>2015-4-16T9:51:59Z</time></trkpt>
<trkpt lat="46.1744150" lon="6.0200914"><ele></ele><time>2015-4-16T9:52:2Z</time></trkpt>
<trkpt lat="46.1744485" lon="6.0201417"><ele></ele><time>2015-4-16T9:52:5Z</time></trkpt>
<trkpt lat="46.1746649" lon="6.0204595"><ele></ele><time>2015-4-16T9:52:8Z</time></trkpt>
<trkpt lat="46.1748738" lon="6.0208507"><ele></ele><time>2015-4-16T9:52:11Z</time></trkpt>
<trkpt lat="46.1748970" lon="6.0209148"><ele></ele><time>2015-4-16T9:52:14Z</time></trkpt>
<trkpt lat="46.1749194" lon="6.0209743"><ele></ele><time>2015-4-16T9:52:17Z</time></trkpt>
<trkpt lat="46.1749349" lon="6.0210319"><ele></ele><time>2015-4-16T9:52:20Z</time></trkpt>
<trkpt lat="46.1749445" lon="6.0210888"><ele></ele><time>2015-4-16T9:52:23Z</time></trkpt>
<trkpt lat="46.1749877" lon="6.0212188"><ele></ele><time>2015-4-16T9:52:26Z</time></trkpt>
<trkpt lat="46.1750280" lon="6.0213572"><ele></ele><time>2015-4-16T9:52:29Z</time></trkpt>
<trkpt lat="46.1750564" lon="6.0215873"><ele></ele><time>2015-4-16T9:52:32Z</time></trkpt>
<trkpt lat="46.1750254" lon="6.0218302"><ele></ele><time>2015-4-16T9:52:35Z</time></trkpt>
<trkpt lat="46.1750078" lon="6.0219100"><ele></ele><time>2015-4-16T9:52:38Z</time></trkpt>
<trkpt lat="46.1748405" lon="6.0224513"><ele></ele><time>2015-4-16T9:52:41Z</time></trkpt>
<trkpt lat="46.1747697" lon="6.0225864"><ele></ele><time>2015-4-16T9:52:44Z</time></trkpt>
<trkpt lat="46.1746190" lon="6.0228372"><ele></ele><time>2015-4-16T9:52:47Z</time></trkpt>
<trkpt lat="46.1744430" lon="6.0232132"><ele></ele><time>2015-4-16T9:52:50Z</time></trkpt>
<trkpt lat="46.1744289" lon="6.0232938"><ele></ele><time>2015-4-16T9:52:53Z</time></trkpt>
<trkpt lat="46.1745460" lon="6.0234681"><ele></ele><time>2015-4-16T9:52:56Z</time></trkpt>
<trkpt lat="46.1745934" lon="6.0235178"><ele></ele><time>2015-4-16T9:52:59Z</time></trkpt>
<trkpt lat="46.1746790" lon="6.0236386"><ele></ele><time>2015-4-16T9:53:2Z</time></trkpt>
<trkpt lat="46.1747298" lon="6.0237852"><ele></ele><time>2015-4-16T9:53:5Z</time></trkpt>
<trkpt lat="46.1747661" lon="6.0239358"><ele></ele><time>2015-4-16T9:53:8Z</time></trkpt>
<trkpt lat="46.1748472" lon="6.0242447"><ele></ele><time>2015-4-16T9:53:11Z</time></trkpt>
<trkpt lat="46.1749806" lon="6.0249515"><ele></ele><time>2015-4-16T9:53:14Z</time></trkpt>
<trkpt lat="46.1751940" lon="6.0257404"><ele></ele><time>2015-4-16T9:53:17Z</time></trkpt>
<trkpt lat="46.1752114" lon="6.0258202"><ele></ele><time>2015-4-16T9:53:20Z</time></trkpt>
<trkpt lat="46.1752191" lon="6.0259037"><ele></ele><time>2015-4-16T9:53:23Z</time></trkpt>
<trkpt lat="46.1752843" lon="6.0262374"><ele></ele><time>2015-4-16T9:53:26Z</time></trkpt>
<trkpt lat="46.1754665" lon="6.0270419"><ele></ele><time>2015-4-16T9:53:29Z</time></trkpt>
<trkpt lat="46.1755165" lon="6.0272769"><ele></ele><time>2015-4-16T9:53:32Z</time></trkpt>
<trkpt lat="46.1756996" lon="6.0280940"><ele></ele><time>2015-4-16T9:53:35Z</time></trkpt>
<trkpt lat="46.1757850" lon="6.0285048"><ele></ele><time>2015-4-16T9:53:38Z</time></trkpt>
<trkpt lat="46.1759472" lon="6.0292470"><ele></ele><time>2015-4-16T9:53:41Z</time></trkpt>
<trkpt lat="46.1760927" lon="6.0299097"><ele></ele><time>2015-4-16T9:53:44Z</time></trkpt>
<trkpt lat="46.1762667" lon="6.0306962"><ele></ele><time>2015-4-16T9:53:47Z</time></trkpt>
<trkpt lat="46.1763921" lon="6.0312750"><ele></ele><time>2015-4-16T9:53:50Z</time></trkpt>
<trkpt lat="46.1765803" lon="6.0321030"><ele></ele><time>2015-4-16T9:53:53Z</time></trkpt>
<trkpt lat="46.1766788" lon="6.0325008"><ele></ele><time>2015-4-16T9:53:56Z</time></trkpt>
<trkpt lat="46.1768433" lon="6.0331218"><ele></ele><time>2015-4-16T9:53:59Z</time></trkpt>
<trkpt lat="46.1769547" lon="6.0334165"><ele></ele><time>2015-4-16T9:54:2Z</time></trkpt>
<trkpt lat="46.1770256" lon="6.0336212"><ele></ele><time>2015-4-16T9:54:5Z</time></trkpt>
<trkpt lat="46.1773427" lon="6.0342318"><ele></ele><time>2015-4-16T9:54:8Z</time></trkpt>
<trkpt lat="46.1775901" lon="6.0346016"><ele></ele><time>2015-4-16T9:54:11Z</time></trkpt>
<trkpt lat="46.1777654" lon="6.0348295"><ele></ele><time>2015-4-16T9:54:14Z</time></trkpt>
<trkpt lat="46.1777944" lon="6.0349881"><ele></ele><time>2015-4-16T9:54:17Z</time></trkpt>
<trkpt lat="46.1777054" lon="6.0351709"><ele></ele><time>2015-4-16T9:54:20Z</time></trkpt>
<trkpt lat="46.1776649" lon="6.0352295"><ele></ele><time>2015-4-16T9:54:23Z</time></trkpt>
<trkpt lat="46.1774402" lon="6.0356348"><ele></ele><time>2015-4-16T9:54:26Z</time></trkpt>
<trkpt lat="46.1770762" lon="6.0362895"><ele></ele><time>2015-4-16T9:54:29Z</time></trkpt>
<trkpt lat="46.1769730" lon="6.0363797"><ele></ele><time>2015-4-16T9:54:32Z</time></trkpt>
<trkpt lat="46.1768631" lon="6.0364411"><ele></ele><time>2015-4-16T9:54:35Z</time></trkpt>
<trkpt lat="46.1764524" lon="6.0366233"><ele></ele><time>2015-4-16T9:54:38Z</time></trkpt>
<trkpt lat="46.1763435" lon="6.0366583"><ele></ele><time>2015-4-16T9:54:41Z</time></trkpt>
<trkpt lat="46.1759803" lon="6.0368211"><ele></ele><time>2015-4-16T9:54:44Z</time></trkpt>
<trkpt lat="46.1755477" lon="6.0370250"><ele></ele><time>2015-4-16T9:54:47Z</time></trkpt>
<trkpt lat="46.1754388" lon="6.0371168"><ele></ele><time>2015-4-16T9:54:50Z</time></trkpt>
<trkpt lat="46.1753644" lon="6.0372508"><ele></ele><time>2015-4-16T9:54:53Z</time></trkpt>
<trkpt lat="46.1752942" lon="6.0374003"><ele></ele><time>2015-4-16T9:54:56Z</time></trkpt>
<trkpt lat="46.1752274" lon="6.0376034"><ele></ele><time>2015-4-16T9:54:59Z</time></trkpt>
<trkpt lat="46.1750121" lon="6.0381496"><ele></ele><time>2015-4-16T9:55:2Z</time></trkpt>
<trkpt lat="46.1747493" lon="6.0387475"><ele></ele><time>2015-4-16T9:55:5Z</time></trkpt>
<trkpt lat="46.1747183" lon="6.0388208"><ele></ele><time>2015-4-16T9:55:8Z</time></trkpt>
<trkpt lat="46.1746826" lon="6.0389011"><ele></ele><time>2015-4-16T9:55:11Z</time></trkpt>
<trkpt lat="46.1746485" lon="6.0389713"><ele></ele><time>2015-4-16T9:55:14Z</time></trkpt>
<trkpt lat="46.1746160" lon="6.0390420"><ele></ele><time>2015-4-16T9:55:17Z</time></trkpt>
<trkpt lat="46.1745844" lon="6.0391151"><ele></ele><time>2015-4-16T9:55:20Z</time></trkpt>
<trkpt lat="46.1742622" lon="6.0398310"><ele></ele><time>2015-4-16T9:55:23Z</time></trkpt>
<trkpt lat="46.1742060" lon="6.0399822"><ele></ele><time>2015-4-16T9:55:26Z</time></trkpt>
<trkpt lat="46.1739181" lon="6.0406230"><ele></ele><time>2015-4-16T9:55:29Z</time></trkpt>
<trkpt lat="46.1738456" lon="6.0407176"><ele></ele><time>2015-4-16T9:55:32Z</time></trkpt>
<trkpt lat="46.1736917" lon="6.0407784"><ele></ele><time>2015-4-16T9:55:35Z</time></trkpt>
<trkpt lat="46.1736038" lon="6.0407771"><ele></ele><time>2015-4-16T9:55:38Z</time></trkpt>
<trkpt lat="46.1735524" lon="6.0408429"><ele></ele><time>2015-4-16T9:55:41Z</time></trkpt>
<trkpt lat="46.1735419" lon="6.0409053"><ele></ele><time>2015-4-16T9:55:44Z</time></trkpt>
<trkpt lat="46.1735488" lon="6.0411510"><ele></ele><time>2015-4-16T9:55:47Z</time></trkpt>
<trkpt lat="46.1735051" lon="6.0414146"><ele></ele><time>2015-4-16T9:55:50Z</time></trkpt>
<trkpt lat="46.1734503" lon="6.0415626"><ele></ele><time>2015-4-16T9:55:53Z</time></trkpt>
<trkpt lat="46.1732292" lon="6.0421450"><ele></ele><time>2015-4-16T9:55:56Z</time></trkpt>
<trkpt lat="46.1729714" lon="6.0426240"><ele></ele><time>2015-4-16T9:55:59Z</time></trkpt>
<trkpt lat="46.1726314" lon="6.0431989"><ele></ele><time>2015-4-16T9:56:2Z</time></trkpt>
<trkpt lat="46.1725144" lon="6.0433569"><ele></ele><time>2015-4-16T9:56:5Z</time></trkpt>
<trkpt lat="46.1724655" lon="6.0433538"><ele></ele><time>2015-4-16T9:56:8Z</time></trkpt>
<trkpt lat="46.1724216" lon="6.0432228"><ele></ele><time>2015-4-16T9:56:11Z</time></trkpt>
<trkpt lat="46.1724130" lon="6.0430964"><ele></ele><time>2015-4-16T9:56:14Z</time></trkpt>
<trkpt lat="46.1723997" lon="6.0429591"><ele></ele><time>2015-4-16T9:56:17Z</time></trkpt>
<trkpt lat="46.1723404" lon="6.0427116"><ele></ele><time>2015-4-16T9:56:20Z</time></trkpt>
<trkpt lat="46.1723066" lon="6.0425552"><ele></ele><time>2015-4-16T9:56:23Z</time></trkpt>
<trkpt lat="46.1721653" lon="6.0418937"><ele></ele><time>2015-4-16T9:56:26Z</time></trkpt>
<trkpt lat="46.1719969" lon="6.0413113"><ele></ele><time>2015-4-16T9:56:29Z</time></trkpt>
<trkpt lat="46.1719758" lon="6.0412445"><ele></ele><time>2015-4-16T9:56:32Z</time></trkpt>
<trkpt lat="46.1719466" lon="6.0411586"><ele></ele><time>2015-4-16T9:56:35Z</time></trkpt>
<trkpt lat="46.1719260" lon="6.0410970"><ele></ele><time>2015-4-16T9:56:38Z</time></trkpt>
<trkpt lat="46.1718970" lon="6.0410147"><ele></ele><time>2015-4-16T9:56:41Z</time></trkpt>
<trkpt lat="46.1718707" lon="6.0409396"><ele></ele><time>2015-4-16T9:56:44Z</time></trkpt>
<trkpt lat="46.1715752" lon="6.0402179"><ele></ele><time>2015-4-16T9:56:47Z</time></trkpt>
<trkpt lat="46.1714182" lon="6.0398462"><ele></ele><time>2015-4-16T9:56:50Z</time></trkpt>
<trkpt lat="46.1711038" lon="6.0391561"><ele></ele><time>2015-4-16T9:56:53Z</time></trkpt>
<trkpt lat="46.1708696" lon="6.0385544"><ele></ele><time>2015-4-16T9:56:56Z</time></trkpt>
<trkpt lat="46.1708608" lon="6.0382873"><ele></ele><time>2015-4-16T9:56:59Z</time></trkpt>
<trkpt lat="46.1707168" lon="6.0381960"><ele></ele><time>2015-4-16T9:57:2Z</time></trkpt>
<trkpt lat="46.1706548" lon="6.0381078"><ele></ele><time>2015-4-16T9:57:5Z</time></trkpt>
<trkpt lat="46.1704625" lon="6.0377859"><ele></ele><time>2015-4-16T9:57:8Z</time></trkpt>
<trkpt lat="46.1701337" lon="6.0370782"><ele></ele><time>2015-4-16T9:57:11Z</time></trkpt>
<trkpt lat="46.1699003" lon="6.0365663"><ele></ele><time>2015-4-16T9:57:14Z</time></trkpt>
<trkpt lat="46.1695820" lon="6.0358279"><ele></ele><time>2015-4-16T9:57:17Z</time></trkpt>
<trkpt lat="46.1695208" lon="6.0356775"><ele></ele><time>2015-4-16T9:57:20Z</time></trkpt>
<trkpt lat="46.1692415" lon="6.0349973"><ele></ele><time>2015-4-16T9:57:23Z</time></trkpt>
<trkpt lat="46.1690092" lon="6.0343856"><ele></ele><time>2015-4-16T9:57:26Z</time></trkpt>
<trkpt lat="46.1687547" lon="6.0336616"><ele></ele><time>2015-4-16T9:57:29Z</time></trkpt>
<trkpt lat="46.1685825" lon="6.0331676"><ele></ele><time>2015-4-16T9:57:32Z</time></trkpt>
<trkpt lat="46.1683324" lon="6.0324224"><ele></ele><time>2015-4-16T9:57:35Z</time></trkpt>
<trkpt lat="46.1682105" lon="6.0320518"><ele></ele><time>2015-4-16T9:57:38Z</time></trkpt>
<trkpt lat="46.1682174" lon="6.0319613"><ele></ele><time>2015-4-16T9:57:41Z</time></trkpt>
<trkpt lat="46.1682574" lon="6.0319097"><ele></ele><time>2015-4-16T9:57:44Z</time></trkpt>
<trkpt lat="46.1684664" lon="6.0315403"><ele></ele><time>2015-4-16T9:57:47Z</time></trkpt>
<trkpt lat="46.1688280" lon="6.0310133"><ele></ele><time>2015-4-16T9:57:50Z</time></trkpt>
<trkpt lat="46.1692266" lon="6.0304570"><ele></ele><time>2015-4-16T9:57:53Z</time></trkpt>
<trkpt lat="46.1693811" lon="6.0302061"><ele></ele><time>2015-4-16T9:57:56Z</time></trkpt>
<trkpt lat="46.1697017" lon="6.0296894"><ele></ele><time>2015-4-16T9:57:59Z</time></trkpt>
<trkpt lat="46.1700285" lon="6.0290532"><ele></ele><time>2015-4-16T9:58:2Z</time></trkpt>
<trkpt lat="46.1703724" lon="6.0284055"><ele></ele><time>2015-4-16T9:58:5Z</time></trkpt>
<trkpt lat="46.1704462" lon="6.0282669"><ele></ele><time>2015-4-16T9:58:8Z</time></trkpt>
<trkpt lat="46.1707878" lon="6.0276454"><ele></ele><time>2015-4-16T9:58:11Z</time></trkpt>
<trkpt lat="46.1708633" lon="6.0275100"><ele></ele><time>2015-4-16T9:58:14Z</time></trkpt>
<trkpt lat="46.1712001" lon="6.0268919"><ele></ele><time>2015-4-16T9:58:17Z</time></trkpt>
<trkpt lat="46.1712404" lon="6.0268209"><ele></ele><time>2015-4-16T9:58:20Z</time></trkpt>
<trkpt lat="46.1715643" lon="6.0262653"><ele></ele><time>2015-4-16T9:58:23Z</time></trkpt>
<trkpt lat="46.1716887" lon="6.0260696"><ele></ele><time>2015-4-16T9:58:26Z</time></trkpt>
<trkpt lat="46.1717295" lon="6.0260078"><ele></ele><time>2015-4-16T9:58:29Z</time></trkpt>
<trkpt lat="46.1717713" lon="6.0259421"><ele></ele><time>2015-4-16T9:58:32Z</time></trkpt>
<trkpt lat="46.1718153" lon="6.0258735"><ele></ele><time>2015-4-16T9:58:35Z</time></trkpt>
<trkpt lat="46.1718523" lon="6.0258171"><ele></ele><time>2015-4-16T9:58:38Z</time></trkpt>
<trkpt lat="46.1719439" lon="6.0256803"><ele></ele><time>2015-4-16T9:58:41Z</time></trkpt>
<trkpt lat="46.1723382" lon="6.0250816"><ele></ele><time>2015-4-16T9:58:44Z</time></trkpt>
<trkpt lat="46.1725681" lon="6.0247357"><ele></ele><time>2015-4-16T9:58:47Z</time></trkpt>
<trkpt lat="46.1726381" lon="6.0246264"><ele></ele><time>2015-4-16T9:58:50Z</time></trkpt>
<trkpt lat="46.1727238" lon="6.0244583"><ele></ele><time>2015-4-16T9:58:53Z</time></trkpt>
<trkpt lat="46.1727614" lon="6.0243391"><ele></ele><time>2015-4-16T9:58:56Z</time></trkpt>
<trkpt lat="46.1727633" lon="6.0242715"><ele></ele><time>2015-4-16T9:58:59Z</time></trkpt>
<trkpt lat="46.1727469" lon="6.0241296"><ele></ele><time>2015-4-16T9:59:2Z</time></trkpt>
<trkpt lat="46.1727068" lon="6.0238829"><ele></ele><time>2015-4-16T9:59:5Z</time></trkpt>
<trkpt lat="46.1726074" lon="6.0235204"><ele></ele><time>2015-4-16T9:59:8Z</time></trkpt>
<trkpt lat="46.1726474" lon="6.0233884"><ele></ele><time>2015-4-16T9:59:11Z</time></trkpt>
<trkpt lat="46.1727050" lon="6.0232646"><ele></ele><time>2015-4-16T9:59:14Z</time></trkpt>
<trkpt lat="46.1727420" lon="6.0231901"><ele></ele><time>2015-4-16T9:59:17Z</time></trkpt>
<trkpt lat="46.1728076" lon="6.0230515"><ele></ele><time>2015-4-16T9:59:20Z</time></trkpt>
<trkpt lat="46.1728423" lon="6.0229790"><ele></ele><time>2015-4-16T9:59:23Z</time></trkpt>
<trkpt lat="46.1728777" lon="6.0229144"><ele></ele><time>2015-4-16T9:59:26Z</time></trkpt>
<trkpt lat="46.1729096" lon="6.0228446"><ele></ele><time>2015-4-16T9:59:29Z</time></trkpt>
<trkpt lat="46.1729446" lon="6.0227599"><ele></ele><time>2015-4-16T9:59:32Z</time></trkpt>
<trkpt lat="46.1729753" lon="6.0226974"><ele></ele><time>2015-4-16T9:59:35Z</time></trkpt>
<trkpt lat="46.1730176" lon="6.0226392"><ele></ele><time>2015-4-16T9:59:38Z</time></trkpt>
<trkpt lat="46.1731779" lon="6.0223932"><ele></ele><time>2015-4-16T9:59:41Z</time></trkpt>
<trkpt lat="46.1734334" lon="6.0219681"><ele></ele><time>2015-4-16T9:59:44Z</time></trkpt>
<trkpt lat="46.1735599" lon="6.0217732"><ele></ele><time>2015-4-16T9:59:47Z</time></trkpt>
<trkpt lat="46.1736431" lon="6.0216247"><ele></ele><time>2015-4-16T9:59:50Z</time></trkpt>
<trkpt lat="46.1736866" lon="6.0214931"><ele></ele><time>2015-4-16T9:59:53Z</time></trkpt>
<trkpt lat="46.1737004" lon="6.0213574"><ele></ele><time>2015-4-16T9:59:56Z</time></trkpt>
<trkpt lat="46.1736625" lon="6.0210207"><ele></ele><time>2015-4-16T9:59:59Z</time></trkpt>
<trkpt lat="46.1736598" lon="6.0209367"><ele></ele><time>2015-4-16T10:0:2Z</time></trkpt>
<trkpt lat="46.1736552" lon="6.0208578"><ele></ele><time>2015-4-16T10:0:5Z</time></trkpt>
<trkpt lat="46.1736510" lon="6.0207780"><ele></ele><time>2015-4-16T10:0:8Z</time></trkpt>
<trkpt lat="46.1736488" lon="6.0207059"><ele></ele><time>2015-4-16T10:0:11Z</time></trkpt>
<trkpt lat="46.1736498" lon="6.0206321"><ele></ele><time>2015-4-16T10:0:14Z</time></trkpt>
<trkpt lat="46.1736418" lon="6.0205501"><ele></ele><time>2015-4-16T10:0:17Z</time></trkpt>
<trkpt lat="46.1735944" lon="6.0204408"><ele></ele><time>2015-4-16T10:0:20Z</time></trkpt>
<trkpt lat="46.1735045" lon="6.0203665"><ele></ele><time>2015-4-16T10:0:23Z</time></trkpt>
<trkpt lat="46.1732791" lon="6.0202014"><ele></ele><time>2015-4-16T10:0:26Z</time></trkpt>
<trkpt lat="46.1731401" lon="6.0200784"><ele></ele><time>2015-4-16T10:0:29Z</time></trkpt>
<trkpt lat="46.1731081" lon="6.0200290"><ele></ele><time>2015-4-16T10:0:32Z</time></trkpt>
<trkpt lat="46.1730652" lon="6.0199129"><ele></ele><time>2015-4-16T10:0:35Z</time></trkpt>
<trkpt lat="46.1730728" lon="6.0198440"><ele></ele><time>2015-4-16T10:0:38Z</time></trkpt>
<trkpt lat="46.1731085" lon="6.0197918"><ele></ele><time>2015-4-16T10:0:41Z</time></trkpt>
<trkpt lat="46.1731461" lon="6.0197357"><ele></ele><time>2015-4-16T10:0:44Z</time></trkpt>
<trkpt lat="46.1731908" lon="6.0196772"><ele></ele><time>2015-4-16T10:0:47Z</time></trkpt>
<trkpt lat="46.1733152" lon="6.0195302"><ele></ele><time>2015-4-16T10:0:50Z</time></trkpt>
<trkpt lat="46.1734766" lon="6.0193524"><ele></ele><time>2015-4-16T10:0:53Z</time></trkpt>
<trkpt lat="46.1737149" lon="6.0190318"><ele></ele><time>2015-4-16T10:0:56Z</time></trkpt>
<trkpt lat="46.1737004" lon="6.0188843"><ele></ele><time>2015-4-16T10:0:59Z</time></trkpt>
<trkpt lat="46.1736449" lon="6.0187936"><ele></ele><time>2015-4-16T10:1:2Z</time></trkpt>
<trkpt lat="46.1734891" lon="6.0185985"><ele></ele><time>2015-4-16T10:1:5Z</time></trkpt>
<trkpt lat="46.1733297" lon="6.0183939"><ele></ele><time>2015-4-16T10:1:8Z</time></trkpt>
<trkpt lat="46.1733127" lon="6.0183280"><ele></ele><time>2015-4-16T10:1:11Z</time></trkpt>
<trkpt lat="46.1732153" lon="6.0182191"><ele></ele><time>2015-4-16T10:1:14Z</time></trkpt>
<trkpt lat="46.1731357" lon="6.0180968"><ele></ele><time>2015-4-16T10:1:17Z</time></trkpt>
<trkpt lat="46.1728381" lon="6.0176397"><ele></ele><time>2015-4-16T10:1:20Z</time></trkpt>
<trkpt lat="46.1727943" lon="6.0176151"><ele></ele><time>2015-4-16T10:1:23Z</time></trkpt>
<trkpt lat="46.1726962" lon="6.0176083"><ele></ele><time>2015-4-16T10:1:26Z</time></trkpt>
<trkpt lat="46.1725575" lon="6.0177706"><ele></ele><time>2015-4-16T10:1:29Z</time></trkpt>
<trkpt lat="46.1723120" lon="6.0180630"><ele></ele><time>2015-4-16T10:1:32Z</time></trkpt>
<trkpt lat="46.1722684" lon="6.0181008"><ele></ele><time>2015-4-16T10:1:35Z</time></trkpt>
<trkpt lat="46.1722235" lon="6.0181372"><ele></ele><time>2015-4-16T10:1:38Z</time></trkpt>
<trkpt lat="46.1721811" lon="6.0181759"><ele></ele><time>2015-4-16T10:1:41Z</time></trkpt>
<trkpt lat="46.1721377" lon="6.0182177"><ele></ele><time>2015-4-16T10:1:44Z</time></trkpt>
<trkpt lat="46.1720951" lon="6.0182610"><ele></ele><time>2015-4-16T10:1:47Z</time></trkpt>
<trkpt lat="46.1720524" lon="6.0183042"><ele></ele><time>2015-4-16T10:1:50Z</time></trkpt>
<trkpt lat="46.1719341" lon="6.0184185"><ele></ele><time>2015-4-16T10:1:53Z</time></trkpt>
<trkpt lat="46.1716096" lon="6.0186874"><ele></ele><time>2015-4-16T10:1:56Z</time></trkpt>
<trkpt lat="46.1712463" lon="6.0189156"><ele></ele><time>2015-4-16T10:1:59Z</time></trkpt>
<trkpt lat="46.1709894" lon="6.0190484"><ele></ele><time>2015-4-16T10:2:2Z</time></trkpt>
<trkpt lat="46.1708969" lon="6.0191146"><ele></ele><time>2015-4-16T10:2:5Z</time></trkpt>
<trkpt lat="46.1708355" lon="6.0191632"><ele></ele><time>2015-4-16T10:2:8Z</time></trkpt>
<trkpt lat="46.1707843" lon="6.0192016"><ele></ele><time>2015-4-16T10:2:11Z</time></trkpt>
<trkpt lat="46.1707385" lon="6.0192331"><ele></ele><time>2015-4-16T10:2:14Z</time></trkpt>
<trkpt lat="46.1706906" lon="6.0192724"><ele></ele><time>2015-4-16T10:2:17Z</time></trkpt>
<trkpt lat="46.1706359" lon="6.0193191"><ele></ele><time>2015-4-16T10:2:20Z</time></trkpt>
<trkpt lat="46.1701206" lon="6.0197381"><ele></ele><time>2015-4-16T10:2:23Z</time></trkpt>
<trkpt lat="46.1700236" lon="6.0198016"><ele></ele><time>2015-4-16T10:2:26Z</time></trkpt>
<trkpt lat="46.1697594" lon="6.0200052"><ele></ele><time>2015-4-16T10:2:29Z</time></trkpt>
<trkpt lat="46.1693354" lon="6.0203087"><ele></ele><time>2015-4-16T10:2:32Z</time></trkpt>
<trkpt lat="46.1688500" lon="6.0206423"><ele></ele><time>2015-4-16T10:2:35Z</time></trkpt>
<trkpt lat="46.1684448" lon="6.0208282"><ele></ele><time>2015-4-16T10:2:38Z</time></trkpt>
<trkpt lat="46.1683288" lon="6.0208171"><ele></ele><time>2015-4-16T10:2:41Z</time></trkpt>
<trkpt lat="46.1678754" lon="6.0206721"><ele></ele><time>2015-4-16T10:2:44Z</time></trkpt>
<trkpt lat="46.1675379" lon="6.0205418"><ele></ele><time>2015-4-16T10:2:47Z</time></trkpt>
<trkpt lat="46.1670485" lon="6.0204504"><ele></ele><time>2015-4-16T10:2:50Z</time></trkpt>
<trkpt lat="46.1668120" lon="6.0204605"><ele></ele><time>2015-4-16T10:2:53Z</time></trkpt>
<trkpt lat="46.1667306" lon="6.0204708"><ele></ele><time>2015-4-16T10:2:56Z</time></trkpt>
<trkpt lat="46.1666504" lon="6.0204869"><ele></ele><time>2015-4-16T10:2:59Z</time></trkpt>
<trkpt lat="46.1665786" lon="6.0204974"><ele></ele><time>2015-4-16T10:3:2Z</time></trkpt>
<trkpt lat="46.1664872" lon="6.0205042"><ele></ele><time>2015-4-16T10:3:5Z</time></trkpt>
<trkpt lat="46.1664080" lon="6.0205115"><ele></ele><time>2015-4-16T10:3:8Z</time></trkpt>
<trkpt lat="46.1663316" lon="6.0205279"><ele></ele><time>2015-4-16T10:3:11Z</time></trkpt>
<trkpt lat="46.1662542" lon="6.0205365"><ele></ele><time>2015-4-16T10:3:14Z</time></trkpt>
<trkpt lat="46.1661773" lon="6.0205408"><ele></ele><time>2015-4-16T10:3:17Z</time></trkpt>
<trkpt lat="46.1660998" lon="6.0205371"><ele></ele><time>2015-4-16T10:3:20Z</time></trkpt>
<trkpt lat="46.1656290" lon="6.0204646"><ele></ele><time>2015-4-16T10:3:23Z</time></trkpt>
<trkpt lat="46.1652309" lon="6.0205597"><ele></ele><time>2015-4-16T10:3:26Z</time></trkpt>
<trkpt lat="46.1646552" lon="6.0207951"><ele></ele><time>2015-4-16T10:3:29Z</time></trkpt>
<trkpt lat="46.1645961" lon="6.0208244"><ele></ele><time>2015-4-16T10:3:32Z</time></trkpt>
<trkpt lat="46.1643645" lon="6.0209188"><ele></ele><time>2015-4-16T10:3:35Z</time></trkpt>
<trkpt lat="46.1641566" lon="6.0209467"><ele></ele><time>2015-4-16T10:3:38Z</time></trkpt>
<trkpt lat="46.1641156" lon="6.0209226"><ele></ele><time>2015-4-16T10:3:41Z</time></trkpt>
<trkpt lat="46.1640803" lon="6.0208759"><ele></ele><time>2015-4-16T10:3:44Z</time></trkpt>
<trkpt lat="46.1640515" lon="6.0208158"><ele></ele><time>2015-4-16T10:3:47Z</time></trkpt>
<trkpt lat="46.1640249" lon="6.0207472"><ele></ele><time>2015-4-16T10:3:50Z</time></trkpt>
<trkpt lat="46.1640013" lon="6.0206816"><ele></ele><time>2015-4-16T10:3:53Z</time></trkpt>
<trkpt lat="46.1639783" lon="6.0206143"><ele></ele><time>2015-4-16T10:3:56Z</time></trkpt>
<trkpt lat="46.1638708" lon="6.0203434"><ele></ele><time>2015-4-16T10:3:59Z</time></trkpt>
<trkpt lat="46.1637044" lon="6.0199496"><ele></ele><time>2015-4-16T10:4:2Z</time></trkpt>
<trkpt lat="46.1635679" lon="6.0196508"><ele></ele><time>2015-4-16T10:4:5Z</time></trkpt>
<trkpt lat="46.1635213" lon="6.0195049"><ele></ele><time>2015-4-16T10:4:8Z</time></trkpt>
<trkpt lat="46.1634938" lon="6.0194355"><ele></ele><time>2015-4-16T10:4:11Z</time></trkpt>
<trkpt lat="46.1634636" lon="6.0193702"><ele></ele><time>2015-4-16T10:4:14Z</time></trkpt>
<trkpt lat="46.1634340" lon="6.0193036"><ele></ele><time>2015-4-16T10:4:17Z</time></trkpt>
<trkpt lat="46.1634030" lon="6.0192351"><ele></ele><time>2015-4-16T10:4:20Z</time></trkpt>
<trkpt lat="46.1633174" lon="6.0190240"><ele></ele><time>2015-4-16T10:4:23Z</time></trkpt>
<trkpt lat="46.1632616" lon="6.0188901"><ele></ele><time>2015-4-16T10:4:26Z</time></trkpt>
<trkpt lat="46.1631455" lon="6.0186241"><ele></ele><time>2015-4-16T10:4:29Z</time></trkpt>
<trkpt lat="46.1629355" lon="6.0181232"><ele></ele><time>2015-4-16T10:4:32Z</time></trkpt>
<trkpt lat="46.1629065" lon="6.0180170"><ele></ele><time>2015-4-16T10:4:35Z</time></trkpt>
<trkpt lat="46.1629116" lon="6.0178973"><ele></ele><time>2015-4-16T10:4:38Z</time></trkpt>
<trkpt lat="46.1629381" lon="6.0177689"><ele></ele><time>2015-4-16T10:4:41Z</time></trkpt>
<trkpt lat="46.1630140" lon="6.0176650"><ele></ele><time>2015-4-16T10:4:44Z</time></trkpt>
<trkpt lat="46.1631653" lon="6.0175224"><ele></ele><time>2015-4-16T10:4:47Z</time></trkpt>
<trkpt lat="46.1633178" lon="6.0173731"><ele></ele><time>2015-4-16T10:4:50Z</time></trkpt>
<trkpt lat="46.1637358" lon="6.0168292"><ele></ele><time>2015-4-16T10:4:53Z</time></trkpt>
<trkpt lat="46.1639728" lon="6.0162838"><ele></ele><time>2015-4-16T10:4:56Z</time></trkpt>
<trkpt lat="46.1641909" lon="6.0154970"><ele></ele><time>2015-4-16T10:4:59Z</time></trkpt>
<trkpt lat="46.1643840" lon="6.0146728"><ele></ele><time>2015-4-16T10:5:2Z</time></trkpt>
<trkpt lat="46.1644692" lon="6.0143073"><ele></ele><time>2015-4-16T10:5:5Z</time></trkpt>
<trkpt lat="46.1646448" lon="6.0135682"><ele></ele><time>2015-4-16T10:5:8Z</time></trkpt>
<trkpt lat="46.1647789" lon="6.0130058"><ele></ele><time>2015-4-16T10:5:11Z</time></trkpt>
<trkpt lat="46.1649517" lon="6.0122444"><ele></ele><time>2015-4-16T10:5:14Z</time></trkpt>
<trkpt lat="46.1649949" lon="6.0120556"><ele></ele><time>2015-4-16T10:5:17Z</time></trkpt>
<trkpt lat="46.1650172" lon="6.0119622"><ele></ele><time>2015-4-16T10:5:20Z</time></trkpt>
<trkpt lat="46.1650405" lon="6.0118680"><ele></ele><time>2015-4-16T10:5:23Z</time></trkpt>
<trkpt lat="46.1650632" lon="6.0117722"><ele></ele><time>2015-4-16T10:5:26Z</time></trkpt>
<trkpt lat="46.1650874" lon="6.0116773"><ele></ele><time>2015-4-16T10:5:29Z</time></trkpt>
<trkpt lat="46.1651090" lon="6.0115849"><ele></ele><time>2015-4-16T10:5:32Z</time></trkpt>
<trkpt lat="46.1652891" lon="6.0108345"><ele></ele><time>2015-4-16T10:5:35Z</time></trkpt>
<trkpt lat="46.1654714" lon="6.0100837"><ele></ele><time>2015-4-16T10:5:38Z</time></trkpt>
<trkpt lat="46.1655379" lon="6.0097986"><ele></ele><time>2015-4-16T10:5:41Z</time></trkpt>
<trkpt lat="46.1657258" lon="6.0090387"><ele></ele><time>2015-4-16T10:5:44Z</time></trkpt>
<trkpt lat="46.1659072" lon="6.0082669"><ele></ele><time>2015-4-16T10:5:47Z</time></trkpt>
<trkpt lat="46.1659543" lon="6.0080738"><ele></ele><time>2015-4-16T10:5:50Z</time></trkpt>
<trkpt lat="46.1660744" lon="6.0075978"><ele></ele><time>2015-4-16T10:5:53Z</time></trkpt>
<trkpt lat="46.1660993" lon="6.0075087"><ele></ele><time>2015-4-16T10:5:56Z</time></trkpt>
<trkpt lat="46.1661262" lon="6.0074216"><ele></ele><time>2015-4-16T10:5:59Z</time></trkpt>
<trkpt lat="46.1661538" lon="6.0073381"><ele></ele><time>2015-4-16T10:6:2Z</time></trkpt>
<trkpt lat="46.1661830" lon="6.0072555"><ele></ele><time>2015-4-16T10:6:5Z</time></trkpt>
<trkpt lat="46.1662154" lon="6.0071782"><ele></ele><time>2015-4-16T10:6:8Z</time></trkpt>
<trkpt lat="46.1663945" lon="6.0066981"><ele></ele><time>2015-4-16T10:6:11Z</time></trkpt>
<trkpt lat="46.1666987" lon="6.0060539"><ele></ele><time>2015-4-16T10:6:14Z</time></trkpt>
<trkpt lat="46.1667416" lon="6.0059824"><ele></ele><time>2015-4-16T10:6:17Z</time></trkpt>
<trkpt lat="46.1668092" lon="6.0058357"><ele></ele><time>2015-4-16T10:6:20Z</time></trkpt>
<trkpt lat="46.1669142" lon="6.0056215"><ele></ele><time>2015-4-16T10:6:23Z</time></trkpt>
<trkpt lat="46.1670156" lon="6.0054066"><ele></ele><time>2015-4-16T10:6:26Z</time></trkpt>
<trkpt lat="46.1670145" lon="6.0053235"><ele></ele><time>2015-4-16T10:6:29Z</time></trkpt>
<trkpt lat="46.1669353" lon="6.0051045"><ele></ele><time>2015-4-16T10:6:32Z</time></trkpt>
<trkpt lat="46.1668981" lon="6.0050350"><ele></ele><time>2015-4-16T10:6:35Z</time></trkpt>
<trkpt lat="46.1666450" lon="6.0045147"><ele></ele><time>2015-4-16T10:6:38Z</time></trkpt>
<trkpt lat="46.1663128" lon="6.0038104"><ele></ele><time>2015-4-16T10:6:41Z</time></trkpt>
<trkpt lat="46.1662741" lon="6.0037313"><ele></ele><time>2015-4-16T10:6:44Z</time></trkpt>
<trkpt lat="46.1662349" lon="6.0036490"><ele></ele><time>2015-4-16T10:6:47Z</time></trkpt>
<trkpt lat="46.1661963" lon="6.0035633"><ele></ele><time>2015-4-16T10:6:50Z</time></trkpt>
<trkpt lat="46.1661625" lon="6.0034784"><ele></ele><time>2015-4-16T10:6:53Z</time></trkpt>
<trkpt lat="46.1661028" lon="6.0033154"><ele></ele><time>2015-4-16T10:6:56Z</time></trkpt>
<trkpt lat="46.1660722" lon="6.0031543"><ele></ele><time>2015-4-16T10:6:59Z</time></trkpt>
<trkpt lat="46.1660614" lon="6.0030004"><ele></ele><time>2015-4-16T10:7:2Z</time></trkpt>
<trkpt lat="46.1660514" lon="6.0029342"><ele></ele><time>2015-4-16T10:7:5Z</time></trkpt>
<trkpt lat="46.1659809" lon="6.0028313"><ele></ele><time>2015-4-16T10:7:8Z</time></trkpt>
<trkpt lat="46.1658150" lon="6.0028195"><ele></ele><time>2015-4-16T10:7:11Z</time></trkpt>
<trkpt lat="46.1653899" lon="6.0029285"><ele></ele><time>2015-4-16T10:7:14Z</time></trkpt>
<trkpt lat="46.1648597" lon="6.0030737"><ele></ele><time>2015-4-16T10:7:17Z</time></trkpt>
<trkpt lat="46.1646610" lon="6.0031458"><ele></ele><time>2015-4-16T10:7:20Z</time></trkpt>
<trkpt lat="46.1645945" lon="6.0031693"><ele></ele><time>2015-4-16T10:7:23Z</time></trkpt>
<trkpt lat="46.1645282" lon="6.0031937"><ele></ele><time>2015-4-16T10:7:26Z</time></trkpt>
<trkpt lat="46.1644614" lon="6.0032165"><ele></ele><time>2015-4-16T10:7:29Z</time></trkpt>
<trkpt lat="46.1643945" lon="6.0032404"><ele></ele><time>2015-4-16T10:7:32Z</time></trkpt>
<trkpt lat="46.1642014" lon="6.0033087"><ele></ele><time>2015-4-16T10:7:35Z</time></trkpt>
<trkpt lat="46.1636357" lon="6.0035018"><ele></ele><time>2015-4-16T10:7:38Z</time></trkpt>
<trkpt lat="46.1635128" lon="6.0035311"><ele></ele><time>2015-4-16T10:7:41Z</time></trkpt>
<trkpt lat="46.1634551" lon="6.0035288"><ele></ele><time>2015-4-16T10:7:44Z</time></trkpt>
<trkpt lat="46.1633953" lon="6.0035127"><ele></ele><time>2015-4-16T10:7:47Z</time></trkpt>
<trkpt lat="46.1633345" lon="6.0034851"><ele></ele><time>2015-4-16T10:7:50Z</time></trkpt>
<trkpt lat="46.1632782" lon="6.0034485"><ele></ele><time>2015-4-16T10:7:53Z</time></trkpt>
<trkpt lat="46.1632243" lon="6.0034020"><ele></ele><time>2015-4-16T10:7:56Z</time></trkpt>
<trkpt lat="46.1631207" lon="6.0033022"><ele></ele><time>2015-4-16T10:7:59Z</time></trkpt>
<trkpt lat="46.1630135" lon="6.0032035"><ele></ele><time>2015-4-16T10:8:2Z</time></trkpt>
<trkpt lat="46.1625007" lon="6.0027810"><ele></ele><time>2015-4-16T10:8:5Z</time></trkpt>
<trkpt lat="46.1624467" lon="6.0027336"><ele></ele><time>2015-4-16T10:8:8Z</time></trkpt>
<trkpt lat="46.1621352" lon="6.0023840"><ele></ele><time>2015-4-16T10:8:11Z</time></trkpt>
<trkpt lat="46.1620691" lon="6.0023036"><ele></ele><time>2015-4-16T10:8:14Z</time></trkpt>
<trkpt lat="46.1620011" lon="6.0022184"><ele></ele><time>2015-4-16T10:8:17Z</time></trkpt>
<trkpt lat="46.1619315" lon="6.0021327"><ele></ele><time>2015-4-16T10:8:20Z</time></trkpt>
<trkpt lat="46.1618665" lon="6.0020517"><ele></ele><time>2015-4-16T10:8:23Z</time></trkpt>
<trkpt lat="46.1618015" lon="6.0019719"><ele></ele><time>2015-4-16T10:8:26Z</time></trkpt>
<trkpt lat="46.1617383" lon="6.0018948"><ele></ele><time>2015-4-16T10:8:29Z</time></trkpt>
<trkpt lat="46.1613892" lon="6.0015037"><ele></ele><time>2015-4-16T10:8:32Z</time></trkpt>
<trkpt lat="46.1610308" lon="6.0011368"><ele></ele><time>2015-4-16T10:8:35Z</time></trkpt>
<trkpt lat="46.1609805" lon="6.0010868"><ele></ele><time>2015-4-16T10:8:38Z</time></trkpt>
<trkpt lat="46.1609290" lon="6.0010374"><ele></ele><time>2015-4-16T10:8:41Z</time></trkpt>
<trkpt lat="46.1608785" lon="6.0009876"><ele></ele><time>2015-4-16T10:8:44Z</time></trkpt>
<trkpt lat="46.1608280" lon="6.0009377"><ele></ele><time>2015-4-16T10:8:47Z</time></trkpt>
<trkpt lat="46.1603320" lon="6.0005651"><ele></ele><time>2015-4-16T10:8:50Z</time></trkpt>
<trkpt lat="46.1598546" lon="6.0002959"><ele></ele><time>2015-4-16T10:8:53Z</time></trkpt>
<trkpt lat="46.1594266" lon="5.9998248"><ele></ele><time>2015-4-16T10:8:56Z</time></trkpt>
<trkpt lat="46.1591517" lon="5.9994240"><ele></ele><time>2015-4-16T10:8:59Z</time></trkpt>
<trkpt lat="46.1590745" lon="5.9992837"><ele></ele><time>2015-4-16T10:9:2Z</time></trkpt>
<trkpt lat="46.1588047" lon="5.9987801"><ele></ele><time>2015-4-16T10:9:5Z</time></trkpt>
<trkpt lat="46.1587654" lon="5.9987080"><ele></ele><time>2015-4-16T10:9:8Z</time></trkpt>
<trkpt lat="46.1587276" lon="5.9986377"><ele></ele><time>2015-4-16T10:9:11Z</time></trkpt>
<trkpt lat="46.1586881" lon="5.9985637"><ele></ele><time>2015-4-16T10:9:14Z</time></trkpt>
<trkpt lat="46.1586517" lon="5.9984879"><ele></ele><time>2015-4-16T10:9:17Z</time></trkpt>
<trkpt lat="46.1585716" lon="5.9983787"><ele></ele><time>2015-4-16T10:9:20Z</time></trkpt>
<trkpt lat="46.1585117" lon="5.9983724"><ele></ele><time>2015-4-16T10:9:23Z</time></trkpt>
<trkpt lat="46.1583600" lon="5.9985169"><ele></ele><time>2015-4-16T10:9:26Z</time></trkpt>
<trkpt lat="46.1583205" lon="5.9985858"><ele></ele><time>2015-4-16T10:9:29Z</time></trkpt>
<trkpt lat="46.1582907" lon="5.9986471"><ele></ele><time>2015-4-16T10:9:32Z</time></trkpt>
<trkpt lat="46.1582580" lon="5.9987191"><ele></ele><time>2015-4-16T10:9:35Z</time></trkpt>
<trkpt lat="46.1582316" lon="5.9987909"><ele></ele><time>2015-4-16T10:9:38Z</time></trkpt>
<trkpt lat="46.1582079" lon="5.9988610"><ele></ele><time>2015-4-16T10:9:41Z</time></trkpt>
<trkpt lat="46.1579883" lon="5.9993159"><ele></ele><time>2015-4-16T10:9:44Z</time></trkpt>
<trkpt lat="46.1578108" lon="5.9996318"><ele></ele><time>2015-4-16T10:9:47Z</time></trkpt>
<trkpt lat="46.1577184" lon="5.9997390"><ele></ele><time>2015-4-16T10:9:50Z</time></trkpt>
<trkpt lat="46.1572958" lon="6.0001566"><ele></ele><time>2015-4-16T10:9:53Z</time></trkpt>
<trkpt lat="46.1568808" lon="6.0006271"><ele></ele><time>2015-4-16T10:9:56Z</time></trkpt>
<trkpt lat="46.1568367" lon="6.0007034"><ele></ele><time>2015-4-16T10:9:59Z</time></trkpt>
<trkpt lat="46.1567091" lon="6.0010754"><ele></ele><time>2015-4-16T10:10:2Z</time></trkpt>
<trkpt lat="46.1566901" lon="6.0011744"><ele></ele><time>2015-4-16T10:10:5Z</time></trkpt>
<trkpt lat="46.1566720" lon="6.0013834"><ele></ele><time>2015-4-16T10:10:8Z</time></trkpt>
<trkpt lat="46.1566620" lon="6.0015956"><ele></ele><time>2015-4-16T10:10:11Z</time></trkpt>
<trkpt lat="46.1565793" lon="6.0022506"><ele></ele><time>2015-4-16T10:10:14Z</time></trkpt>
<trkpt lat="46.1565327" lon="6.0023839"><ele></ele><time>2015-4-16T10:10:17Z</time></trkpt>
<trkpt lat="46.1564726" lon="6.0024902"><ele></ele><time>2015-4-16T10:10:20Z</time></trkpt>
<trkpt lat="46.1564228" lon="6.0025799"><ele></ele><time>2015-4-16T10:10:23Z</time></trkpt>
<trkpt lat="46.1563942" lon="6.0026206"><ele></ele><time>2015-4-16T10:10:26Z</time></trkpt>
<trkpt lat="46.1563664" lon="6.0026470"><ele></ele><time>2015-4-16T10:10:29Z</time></trkpt>
<trkpt lat="46.1563369" lon="6.0026731"><ele></ele><time>2015-4-16T10:10:32Z</time></trkpt>
<trkpt lat="46.1563087" lon="6.0026892"><ele></ele><time>2015-4-16T10:10:35Z</time></trkpt>
<trkpt lat="46.1561867" lon="6.0027772"><ele></ele><time>2015-4-16T10:10:38Z</time></trkpt>
<trkpt lat="46.1559865" lon="6.0030737"><ele></ele><time>2015-4-16T10:10:41Z</time></trkpt>
<trkpt lat="46.1557282" lon="6.0034729"><ele></ele><time>2015-4-16T10:10:44Z</time></trkpt>
<trkpt lat="46.1553818" lon="6.0039865"><ele></ele><time>2015-4-16T10:10:47Z</time></trkpt>
<trkpt lat="46.1551250" lon="6.0044582"><ele></ele><time>2015-4-16T10:10:50Z</time></trkpt>
<trkpt lat="46.1549067" lon="6.0049339"><ele></ele><time>2015-4-16T10:10:53Z</time></trkpt>
<trkpt lat="46.1548868" lon="6.0050050"><ele></ele><time>2015-4-16T10:10:56Z</time></trkpt>
<trkpt lat="46.1548722" lon="6.0050784"><ele></ele><time>2015-4-16T10:10:59Z</time></trkpt>
<trkpt lat="46.1548574" lon="6.0053149"><ele></ele><time>2015-4-16T10:11:2Z</time></trkpt>
<trkpt lat="46.1548452" lon="6.0057814"><ele></ele><time>2015-4-16T10:11:5Z</time></trkpt>
<trkpt lat="46.1548298" lon="6.0059324"><ele></ele><time>2015-4-16T10:11:8Z</time></trkpt>
<trkpt lat="46.1548155" lon="6.0060820"><ele></ele><time>2015-4-16T10:11:11Z</time></trkpt>
<trkpt lat="46.1548109" lon="6.0061560"><ele></ele><time>2015-4-16T10:11:14Z</time></trkpt>
<trkpt lat="46.1548042" lon="6.0062296"><ele></ele><time>2015-4-16T10:11:17Z</time></trkpt>
<trkpt lat="46.1548004" lon="6.0063044"><ele></ele><time>2015-4-16T10:11:20Z</time></trkpt>
<trkpt lat="46.1547943" lon="6.0063752"><ele></ele><time>2015-4-16T10:11:23Z</time></trkpt>
<trkpt lat="46.1547688" lon="6.0065796"><ele></ele><time>2015-4-16T10:11:26Z</time></trkpt>
<trkpt lat="46.1547239" lon="6.0072156"><ele></ele><time>2015-4-16T10:11:29Z</time></trkpt>
<trkpt lat="46.1547462" lon="6.0075723"><ele></ele><time>2015-4-16T10:11:32Z</time></trkpt>
<trkpt lat="46.1547515" lon="6.0077159"><ele></ele><time>2015-4-16T10:11:35Z</time></trkpt>
<trkpt lat="46.1547507" lon="6.0077890"><ele></ele><time>2015-4-16T10:11:38Z</time></trkpt>
<trkpt lat="46.1547440" lon="6.0078616"><ele></ele><time>2015-4-16T10:11:41Z</time></trkpt>
<trkpt lat="46.1547321" lon="6.0079334"><ele></ele><time>2015-4-16T10:11:44Z</time></trkpt>
<trkpt lat="46.1547204" lon="6.0080040"><ele></ele><time>2015-4-16T10:11:47Z</time></trkpt>
<trkpt lat="46.1546830" lon="6.0082871"><ele></ele><time>2015-4-16T10:11:50Z</time></trkpt>
<trkpt lat="46.1545267" lon="6.0089925"><ele></ele><time>2015-4-16T10:11:53Z</time></trkpt>
<trkpt lat="46.1543028" lon="6.0097569"><ele></ele><time>2015-4-16T10:11:56Z</time></trkpt>
<trkpt lat="46.1540646" lon="6.0105326"><ele></ele><time>2015-4-16T10:11:59Z</time></trkpt>
<trkpt lat="46.1540434" lon="6.0106018"><ele></ele><time>2015-4-16T10:12:2Z</time></trkpt>
<trkpt lat="46.1538052" lon="6.0113001"><ele></ele><time>2015-4-16T10:12:5Z</time></trkpt>
<trkpt lat="46.1537540" lon="6.0114450"><ele></ele><time>2015-4-16T10:12:8Z</time></trkpt>
<trkpt lat="46.1536159" lon="6.0118895"><ele></ele><time>2015-4-16T10:12:11Z</time></trkpt>
<trkpt lat="46.1535924" lon="6.0120422"><ele></ele><time>2015-4-16T10:12:14Z</time></trkpt>
<trkpt lat="46.1535821" lon="6.0121949"><ele></ele><time>2015-4-16T10:12:17Z</time></trkpt>
<trkpt lat="46.1535981" lon="6.0124220"><ele></ele><time>2015-4-16T10:12:20Z</time></trkpt>
<trkpt lat="46.1536785" lon="6.0129322"><ele></ele><time>2015-4-16T10:12:23Z</time></trkpt>
<trkpt lat="46.1537568" lon="6.0137727"><ele></ele><time>2015-4-16T10:12:26Z</time></trkpt>
<trkpt lat="46.1537276" lon="6.0145511"><ele></ele><time>2015-4-16T10:12:29Z</time></trkpt>
<trkpt lat="46.1536502" lon="6.0153117"><ele></ele><time>2015-4-16T10:12:32Z</time></trkpt>
<trkpt lat="46.1536401" lon="6.0154663"><ele></ele><time>2015-4-16T10:12:35Z</time></trkpt>
<trkpt lat="46.1536007" lon="6.0157744"><ele></ele><time>2015-4-16T10:12:38Z</time></trkpt>
<trkpt lat="46.1535774" lon="6.0159323"><ele></ele><time>2015-4-16T10:12:41Z</time></trkpt>
<trkpt lat="46.1535318" lon="6.0164140"><ele></ele><time>2015-4-16T10:12:44Z</time></trkpt>
<trkpt lat="46.1535329" lon="6.0164940"><ele></ele><time>2015-4-16T10:12:47Z</time></trkpt>
<trkpt lat="46.1535379" lon="6.0165760"><ele></ele><time>2015-4-16T10:12:50Z</time></trkpt>
<trkpt lat="46.1535480" lon="6.0166528"><ele></ele><time>2015-4-16T10:12:53Z</time></trkpt>
<trkpt lat="46.1535646" lon="6.0167348"><ele></ele><time>2015-4-16T10:12:56Z</time></trkpt>
<trkpt lat="46.1536497" lon="6.0170314"><ele></ele><time>2015-4-16T10:12:59Z</time></trkpt>
<trkpt lat="46.1539654" lon="6.0177401"><ele></ele><time>2015-4-16T10:13:2Z</time></trkpt>
<trkpt lat="46.1539888" lon="6.0178028"><ele></ele><time>2015-4-16T10:13:5Z</time></trkpt>
<trkpt lat="46.1540731" lon="6.0181046"><ele></ele><time>2015-4-16T10:13:8Z</time></trkpt>
<trkpt lat="46.1540856" lon="6.0181650"><ele></ele><time>2015-4-16T10:13:11Z</time></trkpt>
<trkpt lat="46.1540961" lon="6.0182253"><ele></ele><time>2015-4-16T10:13:14Z</time></trkpt>
<trkpt lat="46.1541038" lon="6.0182853"><ele></ele><time>2015-4-16T10:13:17Z</time></trkpt>
<trkpt lat="46.1541105" lon="6.0183496"><ele></ele><time>2015-4-16T10:13:20Z</time></trkpt>
<trkpt lat="46.1541159" lon="6.0184718"><ele></ele><time>2015-4-16T10:13:23Z</time></trkpt>
<trkpt lat="46.1541167" lon="6.0185336"><ele></ele><time>2015-4-16T10:13:26Z</time></trkpt>
<trkpt lat="46.1541171" lon="6.0185956"><ele></ele><time>2015-4-16T10:13:29Z</time></trkpt>
<trkpt lat="46.1541176" lon="6.0186573"><ele></ele><time>2015-4-16T10:13:32Z</time></trkpt>
<trkpt lat="46.1541177" lon="6.0187206"><ele></ele><time>2015-4-16T10:13:35Z</time></trkpt>
<trkpt lat="46.1541175" lon="6.0187825"><ele></ele><time>2015-4-16T10:13:38Z</time></trkpt>
<trkpt lat="46.1541136" lon="6.0194809"><ele></ele><time>2015-4-16T10:13:41Z</time></trkpt>
<trkpt lat="46.1541310" lon="6.0198573"><ele></ele><time>2015-4-16T10:13:44Z</time></trkpt>
<trkpt lat="46.1541351" lon="6.0199198"><ele></ele><time>2015-4-16T10:13:47Z</time></trkpt>
<trkpt lat="46.1541375" lon="6.0199843"><ele></ele><time>2015-4-16T10:13:50Z</time></trkpt>
<trkpt lat="46.1541405" lon="6.0200508"><ele></ele><time>2015-4-16T10:13:53Z</time></trkpt>
<trkpt lat="46.1541438" lon="6.0201175"><ele></ele><time>2015-4-16T10:13:56Z</time></trkpt>
<trkpt lat="46.1541479" lon="6.0201810"><ele></ele><time>2015-4-16T10:13:59Z</time></trkpt>
<trkpt lat="46.1542032" lon="6.0209261"><ele></ele><time>2015-4-16T10:14:2Z</time></trkpt>
<trkpt lat="46.1542436" lon="6.0217353"><ele></ele><time>2015-4-16T10:14:5Z</time></trkpt>
<trkpt lat="46.1542637" lon="6.0220316"><ele></ele><time>2015-4-16T10:14:8Z</time></trkpt>
<trkpt lat="46.1543361" lon="6.0228449"><ele></ele><time>2015-4-16T10:14:11Z</time></trkpt>
<trkpt lat="46.1543401" lon="6.0229210"><ele></ele><time>2015-4-16T10:14:14Z</time></trkpt>
<trkpt lat="46.1543242" lon="6.0236834"><ele></ele><time>2015-4-16T10:14:17Z</time></trkpt>
<trkpt lat="46.1542038" lon="6.0244021"><ele></ele><time>2015-4-16T10:14:20Z</time></trkpt>
<trkpt lat="46.1540570" lon="6.0252044"><ele></ele><time>2015-4-16T10:14:23Z</time></trkpt>
<trkpt lat="46.1540441" lon="6.0252773"><ele></ele><time>2015-4-16T10:14:26Z</time></trkpt>
<trkpt lat="46.1540354" lon="6.0253515"><ele></ele><time>2015-4-16T10:14:29Z</time></trkpt>
<trkpt lat="46.1540264" lon="6.0254258"><ele></ele><time>2015-4-16T10:14:32Z</time></trkpt>
<trkpt lat="46.1540174" lon="6.0254986"><ele></ele><time>2015-4-16T10:14:35Z</time></trkpt>
<trkpt lat="46.1540080" lon="6.0255719"><ele></ele><time>2015-4-16T10:14:38Z</time></trkpt>
<trkpt lat="46.1538979" lon="6.0263890"><ele></ele><time>2015-4-16T10:14:41Z</time></trkpt>
<trkpt lat="46.1538703" lon="6.0266141"><ele></ele><time>2015-4-16T10:14:44Z</time></trkpt>
<trkpt lat="46.1537474" lon="6.0274344"><ele></ele><time>2015-4-16T10:14:47Z</time></trkpt>
<trkpt lat="46.1537372" lon="6.0275111"><ele></ele><time>2015-4-16T10:14:50Z</time></trkpt>
<trkpt lat="46.1536858" lon="6.0282954"><ele></ele><time>2015-4-16T10:14:53Z</time></trkpt>
<trkpt lat="46.1536832" lon="6.0283733"><ele></ele><time>2015-4-16T10:14:56Z</time></trkpt>
<trkpt lat="46.1536670" lon="6.0291542"><ele></ele><time>2015-4-16T10:14:59Z</time></trkpt>
<trkpt lat="46.1536699" lon="6.0293037"><ele></ele><time>2015-4-16T10:15:2Z</time></trkpt>
<trkpt lat="46.1536592" lon="6.0297546"><ele></ele><time>2015-4-16T10:15:5Z</time></trkpt>
<trkpt lat="46.1536637" lon="6.0299701"><ele></ele><time>2015-4-16T10:15:8Z</time></trkpt>
<trkpt lat="46.1537877" lon="6.0301944"><ele></ele><time>2015-4-16T10:15:11Z</time></trkpt>
<trkpt lat="46.1538234" lon="6.0302390"><ele></ele><time>2015-4-16T10:15:14Z</time></trkpt>
<trkpt lat="46.1541972" lon="6.0306951"><ele></ele><time>2015-4-16T10:15:17Z</time></trkpt>
<trkpt lat="46.1542806" lon="6.0308020"><ele></ele><time>2015-4-16T10:15:20Z</time></trkpt>
<trkpt lat="46.1543696" lon="6.0309165"><ele></ele><time>2015-4-16T10:15:23Z</time></trkpt>
<trkpt lat="46.1544146" lon="6.0309748"><ele></ele><time>2015-4-16T10:15:26Z</time></trkpt>
<trkpt lat="46.1544598" lon="6.0310351"><ele></ele><time>2015-4-16T10:15:29Z</time></trkpt>
<trkpt lat="46.1545057" lon="6.0310965"><ele></ele><time>2015-4-16T10:15:32Z</time></trkpt>
<trkpt lat="46.1545543" lon="6.0311608"><ele></ele><time>2015-4-16T10:15:35Z</time></trkpt>
<trkpt lat="46.1546462" lon="6.0312815"><ele></ele><time>2015-4-16T10:15:38Z</time></trkpt>
<trkpt lat="46.1548573" lon="6.0315599"><ele></ele><time>2015-4-16T10:15:41Z</time></trkpt>
<trkpt lat="46.1548768" lon="6.0316260"><ele></ele><time>2015-4-16T10:15:44Z</time></trkpt>
<trkpt lat="46.1548803" lon="6.0316969"><ele></ele><time>2015-4-16T10:15:47Z</time></trkpt>
<trkpt lat="46.1548705" lon="6.0317665"><ele></ele><time>2015-4-16T10:15:50Z</time></trkpt>
<trkpt lat="46.1548435" lon="6.0318294"><ele></ele><time>2015-4-16T10:15:53Z</time></trkpt>
<trkpt lat="46.1548102" lon="6.0318840"><ele></ele><time>2015-4-16T10:15:56Z</time></trkpt>
<trkpt lat="46.1547745" lon="6.0319387"><ele></ele><time>2015-4-16T10:15:59Z</time></trkpt>
<trkpt lat="46.1546152" lon="6.0321546"><ele></ele><time>2015-4-16T10:16:2Z</time></trkpt>
<trkpt lat="46.1542250" lon="6.0325930"><ele></ele><time>2015-4-16T10:16:5Z</time></trkpt>
<trkpt lat="46.1540697" lon="6.0327939"><ele></ele><time>2015-4-16T10:16:8Z</time></trkpt>
<trkpt lat="46.1539977" lon="6.0329685"><ele></ele><time>2015-4-16T10:16:11Z</time></trkpt>
<trkpt lat="46.1540039" lon="6.0331862"><ele></ele><time>2015-4-16T10:16:14Z</time></trkpt>
<trkpt lat="46.1541492" lon="6.0335503"><ele></ele><time>2015-4-16T10:16:17Z</time></trkpt>
<trkpt lat="46.1544178" lon="6.0339983"><ele></ele><time>2015-4-16T10:16:20Z</time></trkpt>
<trkpt lat="46.1544618" lon="6.0340475"><ele></ele><time>2015-4-16T10:16:23Z</time></trkpt>
<trkpt lat="46.1547543" lon="6.0343527"><ele></ele><time>2015-4-16T10:16:26Z</time></trkpt>
<trkpt lat="46.1548466" lon="6.0344468"><ele></ele><time>2015-4-16T10:16:29Z</time></trkpt>
<trkpt lat="46.1548940" lon="6.0344947"><ele></ele><time>2015-4-16T10:16:32Z</time></trkpt>
<trkpt lat="46.1549315" lon="6.0345535"><ele></ele><time>2015-4-16T10:16:35Z</time></trkpt>
<trkpt lat="46.1549587" lon="6.0346244"><ele></ele><time>2015-4-16T10:16:38Z</time></trkpt>
<trkpt lat="46.1549813" lon="6.0347012"><ele></ele><time>2015-4-16T10:16:41Z</time></trkpt>
<trkpt lat="46.1550670" lon="6.0350891"><ele></ele><time>2015-4-16T10:16:44Z</time></trkpt>
<trkpt lat="46.1552567" lon="6.0356805"><ele></ele><time>2015-4-16T10:16:47Z</time></trkpt>
<trkpt lat="46.1552794" lon="6.0357236"><ele></ele><time>2015-4-16T10:16:50Z</time></trkpt>
<trkpt lat="46.1553051" lon="6.0357649"><ele></ele><time>2015-4-16T10:16:53Z</time></trkpt>
<trkpt lat="46.1553348" lon="6.0358127"><ele></ele><time>2015-4-16T10:16:56Z</time></trkpt>
<trkpt lat="46.1553637" lon="6.0358620"><ele></ele><time>2015-4-16T10:16:59Z</time></trkpt>
<trkpt lat="46.1554415" lon="6.0359682"><ele></ele><time>2015-4-16T10:17:2Z</time></trkpt>
<trkpt lat="46.1554632" lon="6.0360018"><ele></ele><time>2015-4-16T10:17:5Z</time></trkpt>
<trkpt lat="46.1554703" lon="6.0360481"><ele></ele><time>2015-4-16T10:17:8Z</time></trkpt>
<trkpt lat="46.1554623" lon="6.0360961"><ele></ele><time>2015-4-16T10:17:11Z</time></trkpt>
<trkpt lat="46.1554474" lon="6.0361366"><ele></ele><time>2015-4-16T10:17:14Z</time></trkpt>
<trkpt lat="46.1554257" lon="6.0361743"><ele></ele><time>2015-4-16T10:17:17Z</time></trkpt>
<trkpt lat="46.1553981" lon="6.0362099"><ele></ele><time>2015-4-16T10:17:20Z</time></trkpt>
<trkpt lat="46.1553718" lon="6.0362498"><ele></ele><time>2015-4-16T10:17:23Z</time></trkpt>
<trkpt lat="46.1553426" lon="6.0362909"><ele></ele><time>2015-4-16T10:17:26Z</time></trkpt>
<trkpt lat="46.1553091" lon="6.0363297"><ele></ele><time>2015-4-16T10:17:29Z</time></trkpt>
<trkpt lat="46.1552747" lon="6.0363724"><ele></ele><time>2015-4-16T10:17:32Z</time></trkpt>
<trkpt lat="46.1550989" lon="6.0365658"><ele></ele><time>2015-4-16T10:17:35Z</time></trkpt>
<trkpt lat="46.1550658" lon="6.0366105"><ele></ele><time>2015-4-16T10:17:38Z</time></trkpt>
<trkpt lat="46.1548916" lon="6.0369309"><ele></ele><time>2015-4-16T10:17:41Z</time></trkpt>
<trkpt lat="46.1548698" lon="6.0369933"><ele></ele><time>2015-4-16T10:17:44Z</time></trkpt>
<trkpt lat="46.1547282" lon="6.0372906"><ele></ele><time>2015-4-16T10:17:47Z</time></trkpt>
<trkpt lat="46.1545104" lon="6.0377172"><ele></ele><time>2015-4-16T10:17:50Z</time></trkpt>
<trkpt lat="46.1543327" lon="6.0380491"><ele></ele><time>2015-4-16T10:17:53Z</time></trkpt>
<trkpt lat="46.1543066" lon="6.0381042"><ele></ele><time>2015-4-16T10:17:56Z</time></trkpt>
<trkpt lat="46.1542800" lon="6.0381572"><ele></ele><time>2015-4-16T10:17:59Z</time></trkpt>
<trkpt lat="46.1542538" lon="6.0382069"><ele></ele><time>2015-4-16T10:18:2Z</time></trkpt>
<trkpt lat="46.1542255" lon="6.0382535"><ele></ele><time>2015-4-16T10:18:5Z</time></trkpt>
<trkpt lat="46.1541928" lon="6.0383004"><ele></ele><time>2015-4-16T10:18:8Z</time></trkpt>
<trkpt lat="46.1541610" lon="6.0383453"><ele></ele><time>2015-4-16T10:18:11Z</time></trkpt>
<trkpt lat="46.1540707" lon="6.0384945"><ele></ele><time>2015-4-16T10:18:14Z</time></trkpt>
<trkpt lat="46.1540504" lon="6.0386233"><ele></ele><time>2015-4-16T10:18:17Z</time></trkpt>
<trkpt lat="46.1541266" lon="6.0387811"><ele></ele><time>2015-4-16T10:18:20Z</time></trkpt>
<trkpt lat="46.1541577" lon="6.0388251"><ele></ele><time>2015-4-16T10:18:23Z</time></trkpt>
<trkpt lat="46.1542721" lon="6.0390584"><ele></ele><time>2015-4-16T10:18:26Z</time></trkpt>
<trkpt lat="46.1542605" lon="6.0392212"><ele></ele><time>2015-4-16T10:18:29Z</time></trkpt>
<trkpt lat="46.1542415" lon="6.0392755"><ele></ele><time>2015-4-16T10:18:32Z</time></trkpt>
<trkpt lat="46.1542200" lon="6.0393278"><ele></ele><time>2015-4-16T10:18:35Z</time></trkpt>
<trkpt lat="46.1541985" lon="6.0393780"><ele></ele><time>2015-4-16T10:18:38Z</time></trkpt>
<trkpt lat="46.1541770" lon="6.0394270"><ele></ele><time>2015-4-16T10:18:41Z</time></trkpt>
<trkpt lat="46.1540597" lon="6.0396728"><ele></ele><time>2015-4-16T10:18:44Z</time></trkpt>
<trkpt lat="46.1538335" lon="6.0401277"><ele></ele><time>2015-4-16T10:18:47Z</time></trkpt>
<trkpt lat="46.1535666" lon="6.0407117"><ele></ele><time>2015-4-16T10:18:50Z</time></trkpt>
<trkpt lat="46.1535367" lon="6.0407649"><ele></ele><time>2015-4-16T10:18:53Z</time></trkpt>
<trkpt lat="46.1535051" lon="6.0408113"><ele></ele><time>2015-4-16T10:18:56Z</time></trkpt>
<trkpt lat="46.1534748" lon="6.0408629"><ele></ele><time>2015-4-16T10:18:59Z</time></trkpt>
<trkpt lat="46.1534472" lon="6.0409202"><ele></ele><time>2015-4-16T10:19:2Z</time></trkpt>
<trkpt lat="46.1534181" lon="6.0409768"><ele></ele><time>2015-4-16T10:19:5Z</time></trkpt>
<trkpt lat="46.1533904" lon="6.0410381"><ele></ele><time>2015-4-16T10:19:8Z</time></trkpt>
<trkpt lat="46.1533083" lon="6.0412175"><ele></ele><time>2015-4-16T10:19:11Z</time></trkpt>
<trkpt lat="46.1530041" lon="6.0419244"><ele></ele><time>2015-4-16T10:19:14Z</time></trkpt>
<trkpt lat="46.1529862" lon="6.0419889"><ele></ele><time>2015-4-16T10:19:17Z</time></trkpt>
<trkpt lat="46.1529712" lon="6.0420500"><ele></ele><time>2015-4-16T10:19:20Z</time></trkpt>
<trkpt lat="46.1529562" lon="6.0421122"><ele></ele><time>2015-4-16T10:19:23Z</time></trkpt>
<trkpt lat="46.1529405" lon="6.0421731"><ele></ele><time>2015-4-16T10:19:26Z</time></trkpt>
<trkpt lat="46.1529267" lon="6.0422337"><ele></ele><time>2015-4-16T10:19:29Z</time></trkpt>
<trkpt lat="46.1529118" lon="6.0423541"><ele></ele><time>2015-4-16T10:19:32Z</time></trkpt>
<trkpt lat="46.1529073" lon="6.0424670"><ele></ele><time>2015-4-16T10:19:35Z</time></trkpt>
<trkpt lat="46.1528869" lon="6.0426852"><ele></ele><time>2015-4-16T10:19:38Z</time></trkpt>
<trkpt lat="46.1528819" lon="6.0427395"><ele></ele><time>2015-4-16T10:19:41Z</time></trkpt>
<trkpt lat="46.1528775" lon="6.0427933"><ele></ele><time>2015-4-16T10:19:44Z</time></trkpt>
<trkpt lat="46.1528742" lon="6.0428442"><ele></ele><time>2015-4-16T10:19:47Z</time></trkpt>
<trkpt lat="46.1528683" lon="6.0428971"><ele></ele><time>2015-4-16T10:19:50Z</time></trkpt>
<trkpt lat="46.1528402" lon="6.0431052"><ele></ele><time>2015-4-16T10:19:53Z</time></trkpt>
<trkpt lat="46.1528247" lon="6.0432612"><ele></ele><time>2015-4-16T10:19:56Z</time></trkpt>
<trkpt lat="46.1528183" lon="6.0433128"><ele></ele><time>2015-4-16T10:19:59Z</time></trkpt>
<trkpt lat="46.1528123" lon="6.0433643"><ele></ele><time>2015-4-16T10:20:2Z</time></trkpt>
<trkpt lat="46.1528061" lon="6.0434142"><ele></ele><time>2015-4-16T10:20:5Z</time></trkpt>
<trkpt lat="46.1527998" lon="6.0434688"><ele></ele><time>2015-4-16T10:20:8Z</time></trkpt>
<trkpt lat="46.1527630" lon="6.0436689"><ele></ele><time>2015-4-16T10:20:11Z</time></trkpt>
<trkpt lat="46.1527508" lon="6.0437182"><ele></ele><time>2015-4-16T10:20:14Z</time></trkpt>
<trkpt lat="46.1527415" lon="6.0437679"><ele></ele><time>2015-4-16T10:20:17Z</time></trkpt>
<trkpt lat="46.1527316" lon="6.0438175"><ele></ele><time>2015-4-16T10:20:20Z</time></trkpt>
<trkpt lat="46.1527223" lon="6.0438649"><ele></ele><time>2015-4-16T10:20:23Z</time></trkpt>
<trkpt lat="46.1526702" lon="6.0441052"><ele></ele><time>2015-4-16T10:20:26Z</time></trkpt>
<trkpt lat="46.1526489" lon="6.0442021"><ele></ele><time>2015-4-16T10:20:29Z</time></trkpt>
<trkpt lat="46.1526412" lon="6.0442527"><ele></ele><time>2015-4-16T10:20:32Z</time></trkpt>
<trkpt lat="46.1526336" lon="6.0443013"><ele></ele><time>2015-4-16T10:20:35Z</time></trkpt>
<trkpt lat="46.1526263" lon="6.0443500"><ele></ele><time>2015-4-16T10:20:38Z</time></trkpt>
<trkpt lat="46.1526174" lon="6.0444001"><ele></ele><time>2015-4-16T10:20:41Z</time></trkpt>
<trkpt lat="46.1525245" lon="6.0448002"><ele></ele><time>2015-4-16T10:20:44Z</time></trkpt>
<trkpt lat="46.1525058" lon="6.0448430"><ele></ele><time>2015-4-16T10:20:47Z</time></trkpt>
<trkpt lat="46.1524862" lon="6.0448872"><ele></ele><time>2015-4-16T10:20:50Z</time></trkpt>
<trkpt lat="46.1524676" lon="6.0449313"><ele></ele><time>2015-4-16T10:20:53Z</time></trkpt>
<trkpt lat="46.1524477" lon="6.0449768"><ele></ele><time>2015-4-16T10:20:56Z</time></trkpt>
<trkpt lat="46.1523582" lon="6.0451533"><ele></ele><time>2015-4-16T10:20:59Z</time></trkpt>
<trkpt lat="46.1523395" lon="6.0451994"><ele></ele><time>2015-4-16T10:21:2Z</time></trkpt>
<trkpt lat="46.1523205" lon="6.0452462"><ele></ele><time>2015-4-16T10:21:5Z</time></trkpt>
<trkpt lat="46.1522979" lon="6.0452885"><ele></ele><time>2015-4-16T10:21:8Z</time></trkpt>
<trkpt lat="46.1522750" lon="6.0453295"><ele></ele><time>2015-4-16T10:21:11Z</time></trkpt>
<trkpt lat="46.1521835" lon="6.0454947"><ele></ele><time>2015-4-16T10:21:14Z</time></trkpt>
<trkpt lat="46.1521356" lon="6.0455715"><ele></ele><time>2015-4-16T10:21:17Z</time></trkpt>
<trkpt lat="46.1521125" lon="6.0456135"><ele></ele><time>2015-4-16T10:21:20Z</time></trkpt>
<trkpt lat="46.1520897" lon="6.0456546"><ele></ele><time>2015-4-16T10:21:23Z</time></trkpt>
<trkpt lat="46.1520685" lon="6.0456992"><ele></ele><time>2015-4-16T10:21:26Z</time></trkpt>
<trkpt lat="46.1520451" lon="6.0457421"><ele></ele><time>2015-4-16T10:21:29Z</time></trkpt>
<trkpt lat="46.1519992" lon="6.0458238"><ele></ele><time>2015-4-16T10:21:32Z</time></trkpt>
<trkpt lat="46.1518700" lon="6.0460049"><ele></ele><time>2015-4-16T10:21:35Z</time></trkpt>
<trkpt lat="46.1518431" lon="6.0460416"><ele></ele><time>2015-4-16T10:21:38Z</time></trkpt>
<trkpt lat="46.1518155" lon="6.0460787"><ele></ele><time>2015-4-16T10:21:41Z</time></trkpt>
<trkpt lat="46.1517892" lon="6.0461135"><ele></ele><time>2015-4-16T10:21:44Z</time></trkpt>
<trkpt lat="46.1517605" lon="6.0461461"><ele></ele><time>2015-4-16T10:21:47Z</time></trkpt>
<trkpt lat="46.1515523" lon="6.0463479"><ele></ele><time>2015-4-16T10:21:50Z</time></trkpt>
<trkpt lat="46.1514055" lon="6.0464620"><ele></ele><time>2015-4-16T10:21:53Z</time></trkpt>
<trkpt lat="46.1512604" lon="6.0465669"><ele></ele><time>2015-4-16T10:21:56Z</time></trkpt>
<trkpt lat="46.1509060" lon="6.0468895"><ele></ele><time>2015-4-16T10:21:59Z</time></trkpt>
<trkpt lat="46.1505525" lon="6.0472130"><ele></ele><time>2015-4-16T10:22:2Z</time></trkpt>
<trkpt lat="46.1503724" lon="6.0473921"><ele></ele><time>2015-4-16T10:22:5Z</time></trkpt>
<trkpt lat="46.1503384" lon="6.0474325"><ele></ele><time>2015-4-16T10:22:8Z</time></trkpt>
<trkpt lat="46.1503043" lon="6.0474721"><ele></ele><time>2015-4-16T10:22:11Z</time></trkpt>
<trkpt lat="46.1502692" lon="6.0475084"><ele></ele><time>2015-4-16T10:22:14Z</time></trkpt>
<trkpt lat="46.1502342" lon="6.0475469"><ele></ele><time>2015-4-16T10:22:17Z</time></trkpt>
<trkpt lat="46.1501986" lon="6.0475882"><ele></ele><time>2015-4-16T10:22:20Z</time></trkpt>
<trkpt lat="46.1499162" lon="6.0479772"><ele></ele><time>2015-4-16T10:22:23Z</time></trkpt>
<trkpt lat="46.1496601" lon="6.0483069"><ele></ele><time>2015-4-16T10:22:26Z</time></trkpt>
<trkpt lat="46.1496164" lon="6.0483644"><ele></ele><time>2015-4-16T10:22:29Z</time></trkpt>
<trkpt lat="46.1495757" lon="6.0484185"><ele></ele><time>2015-4-16T10:22:32Z</time></trkpt>
<trkpt lat="46.1495375" lon="6.0484761"><ele></ele><time>2015-4-16T10:22:35Z</time></trkpt>
<trkpt lat="46.1494929" lon="6.0485387"><ele></ele><time>2015-4-16T10:22:38Z</time></trkpt>
<trkpt lat="46.1494491" lon="6.0485995"><ele></ele><time>2015-4-16T10:22:41Z</time></trkpt>
<trkpt lat="46.1494102" lon="6.0486563"><ele></ele><time>2015-4-16T10:22:44Z</time></trkpt>
<trkpt lat="46.1493789" lon="6.0487008"><ele></ele><time>2015-4-16T10:22:47Z</time></trkpt>
<trkpt lat="46.1493516" lon="6.0487361"><ele></ele><time>2015-4-16T10:22:50Z</time></trkpt>
<trkpt lat="46.1493249" lon="6.0487548"><ele></ele><time>2015-4-16T10:22:53Z</time></trkpt>
<trkpt lat="46.1493011" lon="6.0487772"><ele></ele><time>2015-4-16T10:22:56Z</time></trkpt>
<trkpt lat="46.1492741" lon="6.0488443"><ele></ele><time>2015-4-16T10:22:59Z</time></trkpt>
<trkpt lat="46.1492814" lon="6.0489162"><ele></ele><time>2015-4-16T10:23:2Z</time></trkpt>
<trkpt lat="46.1492992" lon="6.0489453"><ele></ele><time>2015-4-16T10:23:5Z</time></trkpt>
<trkpt lat="46.1493703" lon="6.0489439"><ele></ele><time>2015-4-16T10:23:8Z</time></trkpt>
<trkpt lat="46.1494110" lon="6.0489553"><ele></ele><time>2015-4-16T10:23:11Z</time></trkpt>
<trkpt lat="46.1494530" lon="6.0489723"><ele></ele><time>2015-4-16T10:23:14Z</time></trkpt>
<trkpt lat="46.1496767" lon="6.0490639"><ele></ele><time>2015-4-16T10:23:17Z</time></trkpt>
<trkpt lat="46.1501715" lon="6.0492392"><ele></ele><time>2015-4-16T10:23:20Z</time></trkpt>
<trkpt lat="46.1505902" lon="6.0494004"><ele></ele><time>2015-4-16T10:23:23Z</time></trkpt>
<trkpt lat="46.1509021" lon="6.0495232"><ele></ele><time>2015-4-16T10:23:26Z</time></trkpt>
<trkpt lat="46.1509547" lon="6.0495431"><ele></ele><time>2015-4-16T10:23:29Z</time></trkpt>
<trkpt lat="46.1510098" lon="6.0495667"><ele></ele><time>2015-4-16T10:23:32Z</time></trkpt>
<trkpt lat="46.1510659" lon="6.0495911"><ele></ele><time>2015-4-16T10:23:35Z</time></trkpt>
<trkpt lat="46.1511219" lon="6.0496145"><ele></ele><time>2015-4-16T10:23:38Z</time></trkpt>
<trkpt lat="46.1514631" lon="6.0497777"><ele></ele><time>2015-4-16T10:23:41Z</time></trkpt>
<trkpt lat="46.1515198" lon="6.0498094"><ele></ele><time>2015-4-16T10:23:44Z</time></trkpt>
<trkpt lat="46.1515766" lon="6.0498437"><ele></ele><time>2015-4-16T10:23:47Z</time></trkpt>
<trkpt lat="46.1516380" lon="6.0498811"><ele></ele><time>2015-4-16T10:23:50Z</time></trkpt>
<trkpt lat="46.1516958" lon="6.0499171"><ele></ele><time>2015-4-16T10:23:53Z</time></trkpt>
<trkpt lat="46.1520472" lon="6.0501607"><ele></ele><time>2015-4-16T10:23:56Z</time></trkpt>
<trkpt lat="46.1521052" lon="6.0502094"><ele></ele><time>2015-4-16T10:23:59Z</time></trkpt>
<trkpt lat="46.1521684" lon="6.0502610"><ele></ele><time>2015-4-16T10:24:2Z</time></trkpt>
<trkpt lat="46.1522290" lon="6.0503082"><ele></ele><time>2015-4-16T10:24:5Z</time></trkpt>
<trkpt lat="46.1522952" lon="6.0503558"><ele></ele><time>2015-4-16T10:24:8Z</time></trkpt>
<trkpt lat="46.1524860" lon="6.0504988"><ele></ele><time>2015-4-16T10:24:11Z</time></trkpt>
<trkpt lat="46.1525515" lon="6.0505481"><ele></ele><time>2015-4-16T10:24:14Z</time></trkpt>
<trkpt lat="46.1526169" lon="6.0505966"><ele></ele><time>2015-4-16T10:24:17Z</time></trkpt>
<trkpt lat="46.1526833" lon="6.0506445"><ele></ele><time>2015-4-16T10:24:20Z</time></trkpt>
<trkpt lat="46.1527462" lon="6.0506957"><ele></ele><time>2015-4-16T10:24:23Z</time></trkpt>
<trkpt lat="46.1528748" lon="6.0507932"><ele></ele><time>2015-4-16T10:24:26Z</time></trkpt>
<trkpt lat="46.1530004" lon="6.0508931"><ele></ele><time>2015-4-16T10:24:29Z</time></trkpt>
<trkpt lat="46.1530630" lon="6.0509437"><ele></ele><time>2015-4-16T10:24:32Z</time></trkpt>
<trkpt lat="46.1531308" lon="6.0509956"><ele></ele><time>2015-4-16T10:24:35Z</time></trkpt>
<trkpt lat="46.1531972" lon="6.0510446"><ele></ele><time>2015-4-16T10:24:38Z</time></trkpt>
<trkpt lat="46.1532858" lon="6.0511047"><ele></ele><time>2015-4-16T10:24:41Z</time></trkpt>
<trkpt lat="46.1535535" lon="6.0513065"><ele></ele><time>2015-4-16T10:24:44Z</time></trkpt>
<trkpt lat="46.1538913" lon="6.0515622"><ele></ele><time>2015-4-16T10:24:47Z</time></trkpt>
<trkpt lat="46.1539588" lon="6.0516134"><ele></ele><time>2015-4-16T10:24:50Z</time></trkpt>
<trkpt lat="46.1540281" lon="6.0516650"><ele></ele><time>2015-4-16T10:24:53Z</time></trkpt>
<trkpt lat="46.1540967" lon="6.0517165"><ele></ele><time>2015-4-16T10:24:56Z</time></trkpt>
<trkpt lat="46.1541690" lon="6.0517705"><ele></ele><time>2015-4-16T10:24:59Z</time></trkpt>
<trkpt lat="46.1543694" lon="6.0519268"><ele></ele><time>2015-4-16T10:25:2Z</time></trkpt>
<trkpt lat="46.1544386" lon="6.0519798"><ele></ele><time>2015-4-16T10:25:5Z</time></trkpt>
<trkpt lat="46.1545065" lon="6.0520331"><ele></ele><time>2015-4-16T10:25:8Z</time></trkpt>
<trkpt lat="46.1545743" lon="6.0520857"><ele></ele><time>2015-4-16T10:25:11Z</time></trkpt>
<trkpt lat="46.1546431" lon="6.0521373"><ele></ele><time>2015-4-16T10:25:14Z</time></trkpt>
<trkpt lat="46.1547137" lon="6.0521912"><ele></ele><time>2015-4-16T10:25:17Z</time></trkpt>
<trkpt lat="46.1548530" lon="6.0523042"><ele></ele><time>2015-4-16T10:25:20Z</time></trkpt>
<trkpt lat="46.1549227" lon="6.0523565"><ele></ele><time>2015-4-16T10:25:23Z</time></trkpt>
<trkpt lat="46.1549920" lon="6.0524089"><ele></ele><time>2015-4-16T10:25:26Z</time></trkpt>
<trkpt lat="46.1550623" lon="6.0524607"><ele></ele><time>2015-4-16T10:25:29Z</time></trkpt>
<trkpt lat="46.1551321" lon="6.0525122"><ele></ele><time>2015-4-16T10:25:32Z</time></trkpt>
<trkpt lat="46.1554148" lon="6.0527243"><ele></ele><time>2015-4-16T10:25:35Z</time></trkpt>
<trkpt lat="46.1554830" lon="6.0527809"><ele></ele><time>2015-4-16T10:25:38Z</time></trkpt>
<trkpt lat="46.1555509" lon="6.0528408"><ele></ele><time>2015-4-16T10:25:41Z</time></trkpt>
<trkpt lat="46.1556148" lon="6.0528972"><ele></ele><time>2015-4-16T10:25:44Z</time></trkpt>
<trkpt lat="46.1556826" lon="6.0529583"><ele></ele><time>2015-4-16T10:25:47Z</time></trkpt>
<trkpt lat="46.1559474" lon="6.0532165"><ele></ele><time>2015-4-16T10:25:50Z</time></trkpt>
<trkpt lat="46.1560126" lon="6.0532829"><ele></ele><time>2015-4-16T10:25:53Z</time></trkpt>
<trkpt lat="46.1560751" lon="6.0533524"><ele></ele><time>2015-4-16T10:25:56Z</time></trkpt>
<trkpt lat="46.1561364" lon="6.0534238"><ele></ele><time>2015-4-16T10:25:59Z</time></trkpt>
<trkpt lat="46.1561967" lon="6.0534965"><ele></ele><time>2015-4-16T10:26:2Z</time></trkpt>
<trkpt lat="46.1564253" lon="6.0538053"><ele></ele><time>2015-4-16T10:26:5Z</time></trkpt>
<trkpt lat="46.1565384" lon="6.0539719"><ele></ele><time>2015-4-16T10:26:8Z</time></trkpt>
<trkpt lat="46.1565935" lon="6.0540571"><ele></ele><time>2015-4-16T10:26:11Z</time></trkpt>
<trkpt lat="46.1566480" lon="6.0541422"><ele></ele><time>2015-4-16T10:26:14Z</time></trkpt>
<trkpt lat="46.1567023" lon="6.0542293"><ele></ele><time>2015-4-16T10:26:17Z</time></trkpt>
<trkpt lat="46.1567579" lon="6.0543200"><ele></ele><time>2015-4-16T10:26:20Z</time></trkpt>
<trkpt lat="46.1568673" lon="6.0545128"><ele></ele><time>2015-4-16T10:26:23Z</time></trkpt>
<trkpt lat="46.1569191" lon="6.0546118"><ele></ele><time>2015-4-16T10:26:26Z</time></trkpt>
<trkpt lat="46.1569708" lon="6.0547127"><ele></ele><time>2015-4-16T10:26:29Z</time></trkpt>
<trkpt lat="46.1570248" lon="6.0548182"><ele></ele><time>2015-4-16T10:26:32Z</time></trkpt>
<trkpt lat="46.1570749" lon="6.0549199"><ele></ele><time>2015-4-16T10:26:35Z</time></trkpt>
<trkpt lat="46.1571245" lon="6.0550262"><ele></ele><time>2015-4-16T10:26:38Z</time></trkpt>
<trkpt lat="46.1571725" lon="6.0551340"><ele></ele><time>2015-4-16T10:26:41Z</time></trkpt>
<trkpt lat="46.1572215" lon="6.0552443"><ele></ele><time>2015-4-16T10:26:44Z</time></trkpt>
<trkpt lat="46.1572682" lon="6.0553556"><ele></ele><time>2015-4-16T10:26:47Z</time></trkpt>
<trkpt lat="46.1573154" lon="6.0554673"><ele></ele><time>2015-4-16T10:26:50Z</time></trkpt>
<trkpt lat="46.1573625" lon="6.0555819"><ele></ele><time>2015-4-16T10:26:53Z</time></trkpt>
<trkpt lat="46.1574084" lon="6.0556974"><ele></ele><time>2015-4-16T10:26:56Z</time></trkpt>
<trkpt lat="46.1574534" lon="6.0558121"><ele></ele><time>2015-4-16T10:26:59Z</time></trkpt>
<trkpt lat="46.1575013" lon="6.0559324"><ele></ele><time>2015-4-16T10:27:2Z</time></trkpt>
<trkpt lat="46.1575472" lon="6.0560456"><ele></ele><time>2015-4-16T10:27:5Z</time></trkpt>
<trkpt lat="46.1575925" lon="6.0561607"><ele></ele><time>2015-4-16T10:27:8Z</time></trkpt>
<trkpt lat="46.1576375" lon="6.0562757"><ele></ele><time>2015-4-16T10:27:11Z</time></trkpt>
<trkpt lat="46.1576860" lon="6.0563938"><ele></ele><time>2015-4-16T10:27:14Z</time></trkpt>
<trkpt lat="46.1577338" lon="6.0565130"><ele></ele><time>2015-4-16T10:27:17Z</time></trkpt>
<trkpt lat="46.1577828" lon="6.0566326"><ele></ele><time>2015-4-16T10:27:20Z</time></trkpt>
<trkpt lat="46.1578303" lon="6.0567512"><ele></ele><time>2015-4-16T10:27:23Z</time></trkpt>
<trkpt lat="46.1578779" lon="6.0568703"><ele></ele><time>2015-4-16T10:27:26Z</time></trkpt>
<trkpt lat="46.1579289" lon="6.0569965"><ele></ele><time>2015-4-16T10:27:29Z</time></trkpt>
<trkpt lat="46.1579739" lon="6.0571076"><ele></ele><time>2015-4-16T10:27:32Z</time></trkpt>
<trkpt lat="46.1580212" lon="6.0572237"><ele></ele><time>2015-4-16T10:27:35Z</time></trkpt>
<trkpt lat="46.1580675" lon="6.0573383"><ele></ele><time>2015-4-16T10:27:38Z</time></trkpt>
<trkpt lat="46.1582075" lon="6.0576909"><ele></ele><time>2015-4-16T10:27:41Z</time></trkpt>
<trkpt lat="46.1582504" lon="6.0578053"><ele></ele><time>2015-4-16T10:27:44Z</time></trkpt>
<trkpt lat="46.1582955" lon="6.0579209"><ele></ele><time>2015-4-16T10:27:47Z</time></trkpt>
<trkpt lat="46.1583407" lon="6.0580360"><ele></ele><time>2015-4-16T10:27:50Z</time></trkpt>
<trkpt lat="46.1583870" lon="6.0581507"><ele></ele><time>2015-4-16T10:27:53Z</time></trkpt>
<trkpt lat="46.1585261" lon="6.0584961"><ele></ele><time>2015-4-16T10:27:56Z</time></trkpt>
<trkpt lat="46.1585723" lon="6.0586116"><ele></ele><time>2015-4-16T10:27:59Z</time></trkpt>
<trkpt lat="46.1586178" lon="6.0587288"><ele></ele><time>2015-4-16T10:28:2Z</time></trkpt>
<trkpt lat="46.1586623" lon="6.0588426"><ele></ele><time>2015-4-16T10:28:5Z</time></trkpt>
<trkpt lat="46.1587079" lon="6.0589581"><ele></ele><time>2015-4-16T10:28:8Z</time></trkpt>
<trkpt lat="46.1590119" lon="6.0597203"><ele></ele><time>2015-4-16T10:28:11Z</time></trkpt>
<trkpt lat="46.1590962" lon="6.0599251"><ele></ele><time>2015-4-16T10:28:14Z</time></trkpt>
<trkpt lat="46.1592580" lon="6.0603343"><ele></ele><time>2015-4-16T10:28:17Z</time></trkpt>
<trkpt lat="46.1593004" lon="6.0604348"><ele></ele><time>2015-4-16T10:28:20Z</time></trkpt>
<trkpt lat="46.1593413" lon="6.0605368"><ele></ele><time>2015-4-16T10:28:23Z</time></trkpt>
<trkpt lat="46.1593807" lon="6.0606396"><ele></ele><time>2015-4-16T10:28:26Z</time></trkpt>
<trkpt lat="46.1594217" lon="6.0607398"><ele></ele><time>2015-4-16T10:28:29Z</time></trkpt>
<trkpt lat="46.1596709" lon="6.0613414"><ele></ele><time>2015-4-16T10:28:32Z</time></trkpt>
<trkpt lat="46.1598347" lon="6.0617397"><ele></ele><time>2015-4-16T10:28:35Z</time></trkpt>
<trkpt lat="46.1598733" lon="6.0618390"><ele></ele><time>2015-4-16T10:28:38Z</time></trkpt>
<trkpt lat="46.1599136" lon="6.0619372"><ele></ele><time>2015-4-16T10:28:41Z</time></trkpt>
<trkpt lat="46.1599541" lon="6.0620354"><ele></ele><time>2015-4-16T10:28:44Z</time></trkpt>
<trkpt lat="46.1599944" lon="6.0621328"><ele></ele><time>2015-4-16T10:28:47Z</time></trkpt>
<trkpt lat="46.1601100" lon="6.0624201"><ele></ele><time>2015-4-16T10:28:50Z</time></trkpt>
<trkpt lat="46.1604017" lon="6.0631704"><ele></ele><time>2015-4-16T10:28:53Z</time></trkpt>
<trkpt lat="46.1605037" lon="6.0634473"><ele></ele><time>2015-4-16T10:28:56Z</time></trkpt>
<trkpt lat="46.1607834" lon="6.0641591"><ele></ele><time>2015-4-16T10:28:59Z</time></trkpt>
<trkpt lat="46.1608073" lon="6.0642452"><ele></ele><time>2015-4-16T10:29:2Z</time></trkpt>
<trkpt lat="46.1609742" lon="6.0647397"><ele></ele><time>2015-4-16T10:29:5Z</time></trkpt>
<trkpt lat="46.1610025" lon="6.0648217"><ele></ele><time>2015-4-16T10:29:8Z</time></trkpt>
<trkpt lat="46.1612253" lon="6.0654575"><ele></ele><time>2015-4-16T10:29:11Z</time></trkpt>
<trkpt lat="46.1612512" lon="6.0655348"><ele></ele><time>2015-4-16T10:29:14Z</time></trkpt>
<trkpt lat="46.1612761" lon="6.0656110"><ele></ele><time>2015-4-16T10:29:17Z</time></trkpt>
<trkpt lat="46.1613002" lon="6.0656848"><ele></ele><time>2015-4-16T10:29:20Z</time></trkpt>
<trkpt lat="46.1613244" lon="6.0657598"><ele></ele><time>2015-4-16T10:29:23Z</time></trkpt>
<trkpt lat="46.1614527" lon="6.0661102"><ele></ele><time>2015-4-16T10:29:26Z</time></trkpt>
<trkpt lat="46.1614957" lon="6.0662351"><ele></ele><time>2015-4-16T10:29:29Z</time></trkpt>
<trkpt lat="46.1616026" lon="6.0665369"><ele></ele><time>2015-4-16T10:29:32Z</time></trkpt>
<trkpt lat="46.1616720" lon="6.0667613"><ele></ele><time>2015-4-16T10:29:35Z</time></trkpt>
<trkpt lat="46.1616985" lon="6.0668435"><ele></ele><time>2015-4-16T10:29:38Z</time></trkpt>
<trkpt lat="46.1617230" lon="6.0669267"><ele></ele><time>2015-4-16T10:29:41Z</time></trkpt>
<trkpt lat="46.1617464" lon="6.0670063"><ele></ele><time>2015-4-16T10:29:44Z</time></trkpt>
<trkpt lat="46.1617726" lon="6.0670886"><ele></ele><time>2015-4-16T10:29:47Z</time></trkpt>
<trkpt lat="46.1620025" lon="6.0678460"><ele></ele><time>2015-4-16T10:29:50Z</time></trkpt>
<trkpt lat="46.1620782" lon="6.0681091"><ele></ele><time>2015-4-16T10:29:53Z</time></trkpt>
<trkpt lat="46.1623173" lon="6.0689004"><ele></ele><time>2015-4-16T10:29:56Z</time></trkpt>
<trkpt lat="46.1624209" lon="6.0691437"><ele></ele><time>2015-4-16T10:29:59Z</time></trkpt>
<trkpt lat="46.1624588" lon="6.0692208"><ele></ele><time>2015-4-16T10:30:2Z</time></trkpt>
<trkpt lat="46.1625404" lon="6.0694776"><ele></ele><time>2015-4-16T10:30:5Z</time></trkpt>
<trkpt lat="46.1627027" lon="6.0700470"><ele></ele><time>2015-4-16T10:30:8Z</time></trkpt>
<trkpt lat="46.1628886" lon="6.0707007"><ele></ele><time>2015-4-16T10:30:11Z</time></trkpt>
<trkpt lat="46.1629712" lon="6.0709860"><ele></ele><time>2015-4-16T10:30:14Z</time></trkpt>
<trkpt lat="46.1628914" lon="6.0711198"><ele></ele><time>2015-4-16T10:30:17Z</time></trkpt>
<trkpt lat="46.1628561" lon="6.0711630"><ele></ele><time>2015-4-16T10:30:20Z</time></trkpt>
<trkpt lat="46.1628614" lon="6.0713052"><ele></ele><time>2015-4-16T10:30:23Z</time></trkpt>
<trkpt lat="46.1628790" lon="6.0713799"><ele></ele><time>2015-4-16T10:30:26Z</time></trkpt>
<trkpt lat="46.1628955" lon="6.0714553"><ele></ele><time>2015-4-16T10:30:29Z</time></trkpt>
<trkpt lat="46.1629083" lon="6.0715345"><ele></ele><time>2015-4-16T10:30:32Z</time></trkpt>
<trkpt lat="46.1629215" lon="6.0716162"><ele></ele><time>2015-4-16T10:30:35Z</time></trkpt>
<trkpt lat="46.1630368" lon="6.0721993"><ele></ele><time>2015-4-16T10:30:38Z</time></trkpt>
<trkpt lat="46.1631906" lon="6.0727287"><ele></ele><time>2015-4-16T10:30:41Z</time></trkpt>
<trkpt lat="46.1634217" lon="6.0734550"><ele></ele><time>2015-4-16T10:30:44Z</time></trkpt>
<trkpt lat="46.1634445" lon="6.0735522"><ele></ele><time>2015-4-16T10:30:47Z</time></trkpt>
<trkpt lat="46.1635100" lon="6.0740445"><ele></ele><time>2015-4-16T10:30:50Z</time></trkpt>
<trkpt lat="46.1635107" lon="6.0741439"><ele></ele><time>2015-4-16T10:30:53Z</time></trkpt>
<trkpt lat="46.1634804" lon="6.0748467"><ele></ele><time>2015-4-16T10:30:56Z</time></trkpt>
<trkpt lat="46.1634234" lon="6.0756679"><ele></ele><time>2015-4-16T10:30:59Z</time></trkpt>
<trkpt lat="46.1634090" lon="6.0757677"><ele></ele><time>2015-4-16T10:31:2Z</time></trkpt>
<trkpt lat="46.1632668" lon="6.0764486"><ele></ele><time>2015-4-16T10:31:5Z</time></trkpt>
<trkpt lat="46.1631061" lon="6.0769679"><ele></ele><time>2015-4-16T10:31:8Z</time></trkpt>
<trkpt lat="46.1630957" lon="6.0770554"><ele></ele><time>2015-4-16T10:31:11Z</time></trkpt>
<trkpt lat="46.1630591" lon="6.0772218"><ele></ele><time>2015-4-16T10:31:14Z</time></trkpt>
<trkpt lat="46.1629866" lon="6.0773753"><ele></ele><time>2015-4-16T10:31:17Z</time></trkpt>
<trkpt lat="46.1626921" lon="6.0779244"><ele></ele><time>2015-4-16T10:31:20Z</time></trkpt>
<trkpt lat="46.1623723" lon="6.0784674"><ele></ele><time>2015-4-16T10:31:23Z</time></trkpt>
<trkpt lat="46.1620460" lon="6.0789814"><ele></ele><time>2015-4-16T10:31:26Z</time></trkpt>
<trkpt lat="46.1616496" lon="6.0796040"><ele></ele><time>2015-4-16T10:31:29Z</time></trkpt>
<trkpt lat="46.1612589" lon="6.0802254"><ele></ele><time>2015-4-16T10:31:32Z</time></trkpt>
<trkpt lat="46.1611828" lon="6.0803489"><ele></ele><time>2015-4-16T10:31:35Z</time></trkpt>
<trkpt lat="46.1608762" lon="6.0808237"><ele></ele><time>2015-4-16T10:31:38Z</time></trkpt>
<trkpt lat="46.1607053" lon="6.0810811"><ele></ele><time>2015-4-16T10:31:41Z</time></trkpt>
<trkpt lat="46.1606158" lon="6.0812263"><ele></ele><time>2015-4-16T10:31:44Z</time></trkpt>
<trkpt lat="46.1605586" lon="6.0812668"><ele></ele><time>2015-4-16T10:31:47Z</time></trkpt>
<trkpt lat="46.1605280" lon="6.0812481"><ele></ele><time>2015-4-16T10:31:50Z</time></trkpt>
<trkpt lat="46.1604276" lon="6.0810924"><ele></ele><time>2015-4-16T10:31:53Z</time></trkpt>
<trkpt lat="46.1601449" lon="6.0807097"><ele></ele><time>2015-4-16T10:31:56Z</time></trkpt>
<trkpt lat="46.1597409" lon="6.0801456"><ele></ele><time>2015-4-16T10:31:59Z</time></trkpt>
<trkpt lat="46.1597005" lon="6.0800894"><ele></ele><time>2015-4-16T10:32:2Z</time></trkpt>
<trkpt lat="46.1596582" lon="6.0800360"><ele></ele><time>2015-4-16T10:32:5Z</time></trkpt>
<trkpt lat="46.1596143" lon="6.0799826"><ele></ele><time>2015-4-16T10:32:8Z</time></trkpt>
<trkpt lat="46.1595723" lon="6.0799291"><ele></ele><time>2015-4-16T10:32:11Z</time></trkpt>
<trkpt lat="46.1591561" lon="6.0793649"><ele></ele><time>2015-4-16T10:32:14Z</time></trkpt>
<trkpt lat="46.1588045" lon="6.0788948"><ele></ele><time>2015-4-16T10:32:17Z</time></trkpt>
<trkpt lat="46.1584014" lon="6.0783454"><ele></ele><time>2015-4-16T10:32:20Z</time></trkpt>
<trkpt lat="46.1581706" lon="6.0780191"><ele></ele><time>2015-4-16T10:32:23Z</time></trkpt>
<trkpt lat="46.1581411" lon="6.0779729"><ele></ele><time>2015-4-16T10:32:26Z</time></trkpt>
<trkpt lat="46.1581091" lon="6.0779376"><ele></ele><time>2015-4-16T10:32:29Z</time></trkpt>
<trkpt lat="46.1580755" lon="6.0779073"><ele></ele><time>2015-4-16T10:32:32Z</time></trkpt>
<trkpt lat="46.1580394" lon="6.0778871"><ele></ele><time>2015-4-16T10:32:35Z</time></trkpt>
<trkpt lat="46.1579989" lon="6.0778842"><ele></ele><time>2015-4-16T10:32:38Z</time></trkpt>
<trkpt lat="46.1578240" lon="6.0780000"><ele></ele><time>2015-4-16T10:32:41Z</time></trkpt>
<trkpt lat="46.1574857" lon="6.0782551"><ele></ele><time>2015-4-16T10:32:44Z</time></trkpt>
<trkpt lat="46.1570881" lon="6.0785675"><ele></ele><time>2015-4-16T10:32:47Z</time></trkpt>
<trkpt lat="46.1566363" lon="6.0788981"><ele></ele><time>2015-4-16T10:32:50Z</time></trkpt>
<trkpt lat="46.1562151" lon="6.0792205"><ele></ele><time>2015-4-16T10:32:53Z</time></trkpt>
<trkpt lat="46.1559597" lon="6.0794271"><ele></ele><time>2015-4-16T10:32:56Z</time></trkpt>
<trkpt lat="46.1558117" lon="6.0795593"><ele></ele><time>2015-4-16T10:32:59Z</time></trkpt>
<trkpt lat="46.1554988" lon="6.0799541"><ele></ele><time>2015-4-16T10:33:2Z</time></trkpt>
<trkpt lat="46.1552444" lon="6.0803515"><ele></ele><time>2015-4-16T10:33:5Z</time></trkpt>
<trkpt lat="46.1552186" lon="6.0804095"><ele></ele><time>2015-4-16T10:33:8Z</time></trkpt>
<trkpt lat="46.1551994" lon="6.0804634"><ele></ele><time>2015-4-16T10:33:11Z</time></trkpt>
<trkpt lat="46.1551990" lon="6.0805190"><ele></ele><time>2015-4-16T10:33:14Z</time></trkpt>
<trkpt lat="46.1552251" lon="6.0805766"><ele></ele><time>2015-4-16T10:33:17Z</time></trkpt>
<trkpt lat="46.1552950" lon="6.0806813"><ele></ele><time>2015-4-16T10:33:20Z</time></trkpt>
<trkpt lat="46.1553701" lon="6.0807958"><ele></ele><time>2015-4-16T10:33:23Z</time></trkpt>
<trkpt lat="46.1556275" lon="6.0812244"><ele></ele><time>2015-4-16T10:33:26Z</time></trkpt>
<trkpt lat="46.1559801" lon="6.0817131"><ele></ele><time>2015-4-16T10:33:29Z</time></trkpt>
<trkpt lat="46.1562278" lon="6.0820642"><ele></ele><time>2015-4-16T10:33:32Z</time></trkpt>
<trkpt lat="46.1565209" lon="6.0824714"><ele></ele><time>2015-4-16T10:33:35Z</time></trkpt>
<trkpt lat="46.1567826" lon="6.0828330"><ele></ele><time>2015-4-16T10:33:38Z</time></trkpt>
<trkpt lat="46.1568320" lon="6.0829012"><ele></ele><time>2015-4-16T10:33:41Z</time></trkpt>
<trkpt lat="46.1568782" lon="6.0829670"><ele></ele><time>2015-4-16T10:33:44Z</time></trkpt>
<trkpt lat="46.1569211" lon="6.0830312"><ele></ele><time>2015-4-16T10:33:47Z</time></trkpt>
<trkpt lat="46.1569676" lon="6.0830953"><ele></ele><time>2015-4-16T10:33:50Z</time></trkpt>
<trkpt lat="46.1570152" lon="6.0831603"><ele></ele><time>2015-4-16T10:33:53Z</time></trkpt>
<trkpt lat="46.1571634" lon="6.0833707"><ele></ele><time>2015-4-16T10:33:56Z</time></trkpt>
<trkpt lat="46.1575920" lon="6.0839598"><ele></ele><time>2015-4-16T10:33:59Z</time></trkpt>
<trkpt lat="46.1577769" lon="6.0842283"><ele></ele><time>2015-4-16T10:34:2Z</time></trkpt>
<trkpt lat="46.1580289" lon="6.0846316"><ele></ele><time>2015-4-16T10:34:5Z</time></trkpt>
<trkpt lat="46.1581711" lon="6.0849505"><ele></ele><time>2015-4-16T10:34:8Z</time></trkpt>
<trkpt lat="46.1582052" lon="6.0849973"><ele></ele><time>2015-4-16T10:34:11Z</time></trkpt>
<trkpt lat="46.1583446" lon="6.0851004"><ele></ele><time>2015-4-16T10:34:14Z</time></trkpt>
<trkpt lat="46.1583960" lon="6.0851497"><ele></ele><time>2015-4-16T10:34:17Z</time></trkpt>
<trkpt lat="46.1586992" lon="6.0855900"><ele></ele><time>2015-4-16T10:34:20Z</time></trkpt>
<trkpt lat="46.1590981" lon="6.0861704"><ele></ele><time>2015-4-16T10:34:23Z</time></trkpt>
<trkpt lat="46.1595107" lon="6.0867600"><ele></ele><time>2015-4-16T10:34:26Z</time></trkpt>
<trkpt lat="46.1599282" lon="6.0873622"><ele></ele><time>2015-4-16T10:34:29Z</time></trkpt>
<trkpt lat="46.1601089" lon="6.0876321"><ele></ele><time>2015-4-16T10:34:32Z</time></trkpt>
<trkpt lat="46.1601523" lon="6.0877015"><ele></ele><time>2015-4-16T10:34:35Z</time></trkpt>
<trkpt lat="46.1601966" lon="6.0877723"><ele></ele><time>2015-4-16T10:34:38Z</time></trkpt>
<trkpt lat="46.1602405" lon="6.0878440"><ele></ele><time>2015-4-16T10:34:41Z</time></trkpt>
<trkpt lat="46.1602834" lon="6.0879144"><ele></ele><time>2015-4-16T10:34:44Z</time></trkpt>
<trkpt lat="46.1605017" lon="6.0882714"><ele></ele><time>2015-4-16T10:34:47Z</time></trkpt>
<trkpt lat="46.1608643" lon="6.0888805"><ele></ele><time>2015-4-16T10:34:50Z</time></trkpt>
<trkpt lat="46.1610064" lon="6.0891201"><ele></ele><time>2015-4-16T10:34:53Z</time></trkpt>
<trkpt lat="46.1613812" lon="6.0897465"><ele></ele><time>2015-4-16T10:34:56Z</time></trkpt>
<trkpt lat="46.1615253" lon="6.0899830"><ele></ele><time>2015-4-16T10:34:59Z</time></trkpt>
<trkpt lat="46.1615737" lon="6.0900601"><ele></ele><time>2015-4-16T10:35:2Z</time></trkpt>
<trkpt lat="46.1616230" lon="6.0901387"><ele></ele><time>2015-4-16T10:35:5Z</time></trkpt>
<trkpt lat="46.1616694" lon="6.0902149"><ele></ele><time>2015-4-16T10:35:8Z</time></trkpt>
<trkpt lat="46.1617160" lon="6.0902931"><ele></ele><time>2015-4-16T10:35:11Z</time></trkpt>
<trkpt lat="46.1620777" lon="6.0909017"><ele></ele><time>2015-4-16T10:35:14Z</time></trkpt>
<trkpt lat="46.1621682" lon="6.0910513"><ele></ele><time>2015-4-16T10:35:17Z</time></trkpt>
<trkpt lat="46.1625508" lon="6.0916878"><ele></ele><time>2015-4-16T10:35:20Z</time></trkpt>
<trkpt lat="46.1625913" lon="6.0917523"><ele></ele><time>2015-4-16T10:35:23Z</time></trkpt>
<trkpt lat="46.1629703" lon="6.0924001"><ele></ele><time>2015-4-16T10:35:26Z</time></trkpt>
<trkpt lat="46.1630433" lon="6.0925276"><ele></ele><time>2015-4-16T10:35:29Z</time></trkpt>
<trkpt lat="46.1633641" lon="6.0931031"><ele></ele><time>2015-4-16T10:35:32Z</time></trkpt>
<trkpt lat="46.1635287" lon="6.0936176"><ele></ele><time>2015-4-16T10:35:35Z</time></trkpt>
<trkpt lat="46.1636107" lon="6.0939959"><ele></ele><time>2015-4-16T10:35:38Z</time></trkpt>
<trkpt lat="46.1636713" lon="6.0940230"><ele></ele><time>2015-4-16T10:35:41Z</time></trkpt>
<trkpt lat="46.1637273" lon="6.0940561"><ele></ele><time>2015-4-16T10:35:44Z</time></trkpt>
<trkpt lat="46.1639411" lon="6.0942314"><ele></ele><time>2015-4-16T10:35:47Z</time></trkpt>
<trkpt lat="46.1640206" lon="6.0943627"><ele></ele><time>2015-4-16T10:35:50Z</time></trkpt>
<trkpt lat="46.1643427" lon="6.0949146"><ele></ele><time>2015-4-16T10:35:53Z</time></trkpt>
<trkpt lat="46.1645447" lon="6.0952605"><ele></ele><time>2015-4-16T10:35:56Z</time></trkpt>
<trkpt lat="46.1645837" lon="6.0953314"><ele></ele><time>2015-4-16T10:35:59Z</time></trkpt>
<trkpt lat="46.1646319" lon="6.0954116"><ele></ele><time>2015-4-16T10:36:2Z</time></trkpt>
<trkpt lat="46.1646739" lon="6.0954743"><ele></ele><time>2015-4-16T10:36:5Z</time></trkpt>
<trkpt lat="46.1647188" lon="6.0955356"><ele></ele><time>2015-4-16T10:36:8Z</time></trkpt>
<trkpt lat="46.1650807" lon="6.0961911"><ele></ele><time>2015-4-16T10:36:11Z</time></trkpt>
<trkpt lat="46.1651936" lon="6.0964206"><ele></ele><time>2015-4-16T10:36:14Z</time></trkpt>
<trkpt lat="46.1652686" lon="6.0965658"><ele></ele><time>2015-4-16T10:36:17Z</time></trkpt>
<trkpt lat="46.1655778" lon="6.0971191"><ele></ele><time>2015-4-16T10:36:20Z</time></trkpt>
<trkpt lat="46.1658936" lon="6.0976541"><ele></ele><time>2015-4-16T10:36:23Z</time></trkpt>
<trkpt lat="46.1662446" lon="6.0982585"><ele></ele><time>2015-4-16T10:36:26Z</time></trkpt>
<trkpt lat="46.1663635" lon="6.0984712"><ele></ele><time>2015-4-16T10:36:29Z</time></trkpt>
<trkpt lat="46.1667296" lon="6.0991056"><ele></ele><time>2015-4-16T10:36:32Z</time></trkpt>
<trkpt lat="46.1667746" lon="6.0991825"><ele></ele><time>2015-4-16T10:36:35Z</time></trkpt>
<trkpt lat="46.1668184" lon="6.0992570"><ele></ele><time>2015-4-16T10:36:38Z</time></trkpt>
<trkpt lat="46.1668616" lon="6.0993312"><ele></ele><time>2015-4-16T10:36:41Z</time></trkpt>
<trkpt lat="46.1669049" lon="6.0994076"><ele></ele><time>2015-4-16T10:36:44Z</time></trkpt>
<trkpt lat="46.1669505" lon="6.0994886"><ele></ele><time>2015-4-16T10:36:47Z</time></trkpt>
<trkpt lat="46.1669980" lon="6.0995723"><ele></ele><time>2015-4-16T10:36:50Z</time></trkpt>
<trkpt lat="46.1671361" lon="6.0998140"><ele></ele><time>2015-4-16T10:36:53Z</time></trkpt>
<trkpt lat="46.1671824" lon="6.0998974"><ele></ele><time>2015-4-16T10:36:56Z</time></trkpt>
<trkpt lat="46.1672305" lon="6.0999824"><ele></ele><time>2015-4-16T10:36:59Z</time></trkpt>
<trkpt lat="46.1672757" lon="6.1000620"><ele></ele><time>2015-4-16T10:37:2Z</time></trkpt>
<trkpt lat="46.1673252" lon="6.1001476"><ele></ele><time>2015-4-16T10:37:5Z</time></trkpt>
<trkpt lat="46.1676915" lon="6.1007861"><ele></ele><time>2015-4-16T10:37:8Z</time></trkpt>
<trkpt lat="46.1679706" lon="6.1013581"><ele></ele><time>2015-4-16T10:37:11Z</time></trkpt>
<trkpt lat="46.1683206" lon="6.1020079"><ele></ele><time>2015-4-16T10:37:14Z</time></trkpt>
<trkpt lat="46.1683371" lon="6.1020779"><ele></ele><time>2015-4-16T10:37:17Z</time></trkpt>
<trkpt lat="46.1683858" lon="6.1023010"><ele></ele><time>2015-4-16T10:37:20Z</time></trkpt>
<trkpt lat="46.1684485" lon="6.1023453"><ele></ele><time>2015-4-16T10:37:23Z</time></trkpt>
<trkpt lat="46.1684976" lon="6.1023987"><ele></ele><time>2015-4-16T10:37:26Z</time></trkpt>
<trkpt lat="46.1686994" lon="6.1027538"><ele></ele><time>2015-4-16T10:37:29Z</time></trkpt>
<trkpt lat="46.1687397" lon="6.1028373"><ele></ele><time>2015-4-16T10:37:32Z</time></trkpt>
<trkpt lat="46.1687795" lon="6.1029106"><ele></ele><time>2015-4-16T10:37:35Z</time></trkpt>
<trkpt lat="46.1688188" lon="6.1029909"><ele></ele><time>2015-4-16T10:37:38Z</time></trkpt>
<trkpt lat="46.1688563" lon="6.1030715"><ele></ele><time>2015-4-16T10:37:41Z</time></trkpt>
<trkpt lat="46.1690338" lon="6.1034571"><ele></ele><time>2015-4-16T10:37:44Z</time></trkpt>
<trkpt lat="46.1693596" lon="6.1041611"><ele></ele><time>2015-4-16T10:37:47Z</time></trkpt>
<trkpt lat="46.1696865" lon="6.1048616"><ele></ele><time>2015-4-16T10:37:50Z</time></trkpt>
<trkpt lat="46.1699393" lon="6.1054089"><ele></ele><time>2015-4-16T10:37:53Z</time></trkpt>
<trkpt lat="46.1702724" lon="6.1061002"><ele></ele><time>2015-4-16T10:37:56Z</time></trkpt>
<trkpt lat="46.1703811" lon="6.1063308"><ele></ele><time>2015-4-16T10:37:59Z</time></trkpt>
<trkpt lat="46.1707011" lon="6.1070268"><ele></ele><time>2015-4-16T10:38:2Z</time></trkpt>
<trkpt lat="46.1707326" lon="6.1070976"><ele></ele><time>2015-4-16T10:38:5Z</time></trkpt>
<trkpt lat="46.1707652" lon="6.1071748"><ele></ele><time>2015-4-16T10:38:8Z</time></trkpt>
<trkpt lat="46.1707957" lon="6.1072470"><ele></ele><time>2015-4-16T10:38:11Z</time></trkpt>
<trkpt lat="46.1708245" lon="6.1073194"><ele></ele><time>2015-4-16T10:38:14Z</time></trkpt>
<trkpt lat="46.1708426" lon="6.1074040"><ele></ele><time>2015-4-16T10:38:17Z</time></trkpt>
<trkpt lat="46.1709775" lon="6.1076982"><ele></ele><time>2015-4-16T10:38:20Z</time></trkpt>
<trkpt lat="46.1712224" lon="6.1082065"><ele></ele><time>2015-4-16T10:38:23Z</time></trkpt>
<trkpt lat="46.1714554" lon="6.1087772"><ele></ele><time>2015-4-16T10:38:26Z</time></trkpt>
<trkpt lat="46.1716032" lon="6.1091454"><ele></ele><time>2015-4-16T10:38:29Z</time></trkpt>
<trkpt lat="46.1716145" lon="6.1093132"><ele></ele><time>2015-4-16T10:38:32Z</time></trkpt>
<trkpt lat="46.1716513" lon="6.1093790"><ele></ele><time>2015-4-16T10:38:35Z</time></trkpt>
<trkpt lat="46.1717565" lon="6.1094827"><ele></ele><time>2015-4-16T10:38:38Z</time></trkpt>
<trkpt lat="46.1720132" lon="6.1099639"><ele></ele><time>2015-4-16T10:38:41Z</time></trkpt>
<trkpt lat="46.1722183" lon="6.1104766"><ele></ele><time>2015-4-16T10:38:44Z</time></trkpt>
<trkpt lat="46.1723982" lon="6.1109150"><ele></ele><time>2015-4-16T10:38:47Z</time></trkpt>
<trkpt lat="46.1724064" lon="6.1109929"><ele></ele><time>2015-4-16T10:38:50Z</time></trkpt>
<trkpt lat="46.1723624" lon="6.1112149"><ele></ele><time>2015-4-16T10:38:53Z</time></trkpt>
<trkpt lat="46.1722079" lon="6.1114303"><ele></ele><time>2015-4-16T10:38:56Z</time></trkpt>
<trkpt lat="46.1718559" lon="6.1118731"><ele></ele><time>2015-4-16T10:38:59Z</time></trkpt>
<trkpt lat="46.1715394" lon="6.1123204"><ele></ele><time>2015-4-16T10:39:2Z</time></trkpt>
<trkpt lat="46.1712920" lon="6.1126764"><ele></ele><time>2015-4-16T10:39:5Z</time></trkpt>
<trkpt lat="46.1709504" lon="6.1131463"><ele></ele><time>2015-4-16T10:39:8Z</time></trkpt>
<trkpt lat="46.1706050" lon="6.1135402"><ele></ele><time>2015-4-16T10:39:11Z</time></trkpt>
<trkpt lat="46.1702473" lon="6.1140436"><ele></ele><time>2015-4-16T10:39:14Z</time></trkpt>
<trkpt lat="46.1699560" lon="6.1144452"><ele></ele><time>2015-4-16T10:39:17Z</time></trkpt>
<trkpt lat="46.1698967" lon="6.1145533"><ele></ele><time>2015-4-16T10:39:20Z</time></trkpt>
<trkpt lat="46.1698944" lon="6.1146867"><ele></ele><time>2015-4-16T10:39:23Z</time></trkpt>
<trkpt lat="46.1699577" lon="6.1149024"><ele></ele><time>2015-4-16T10:39:26Z</time></trkpt>
<trkpt lat="46.1701361" lon="6.1154708"><ele></ele><time>2015-4-16T10:39:29Z</time></trkpt>
<trkpt lat="46.1703174" lon="6.1160670"><ele></ele><time>2015-4-16T10:39:32Z</time></trkpt>
<trkpt lat="46.1704490" lon="6.1165624"><ele></ele><time>2015-4-16T10:39:35Z</time></trkpt>
<trkpt lat="46.1705105" lon="6.1168333"><ele></ele><time>2015-4-16T10:39:38Z</time></trkpt>
<trkpt lat="46.1705117" lon="6.1169767"><ele></ele><time>2015-4-16T10:39:41Z</time></trkpt>
<trkpt lat="46.1704902" lon="6.1174595"><ele></ele><time>2015-4-16T10:39:44Z</time></trkpt>
<trkpt lat="46.1705215" lon="6.1179461"><ele></ele><time>2015-4-16T10:39:47Z</time></trkpt>
<trkpt lat="46.1705534" lon="6.1180090"><ele></ele><time>2015-4-16T10:39:50Z</time></trkpt>
<trkpt lat="46.1705933" lon="6.1180712"><ele></ele><time>2015-4-16T10:39:53Z</time></trkpt>
<trkpt lat="46.1706278" lon="6.1181355"><ele></ele><time>2015-4-16T10:39:56Z</time></trkpt>
<trkpt lat="46.1706650" lon="6.1181987"><ele></ele><time>2015-4-16T10:39:59Z</time></trkpt>
<trkpt lat="46.1707022" lon="6.1182575"><ele></ele><time>2015-4-16T10:40:2Z</time></trkpt>
<trkpt lat="46.1707759" lon="6.1183792"><ele></ele><time>2015-4-16T10:40:5Z</time></trkpt>
<trkpt lat="46.1709227" lon="6.1185824"><ele></ele><time>2015-4-16T10:40:8Z</time></trkpt>
<trkpt lat="46.1710416" lon="6.1184929"><ele></ele><time>2015-4-16T10:40:11Z</time></trkpt>
<trkpt lat="46.1711407" lon="6.1183059"><ele></ele><time>2015-4-16T10:40:14Z</time></trkpt>
<trkpt lat="46.1712136" lon="6.1181772"><ele></ele><time>2015-4-16T10:40:17Z</time></trkpt>
<trkpt lat="46.1712529" lon="6.1181183"><ele></ele><time>2015-4-16T10:40:20Z</time></trkpt>
<trkpt lat="46.1714085" lon="6.1178233"><ele></ele><time>2015-4-16T10:40:23Z</time></trkpt>
<trkpt lat="46.1716686" lon="6.1173812"><ele></ele><time>2015-4-16T10:40:26Z</time></trkpt>
<trkpt lat="46.1718331" lon="6.1170964"><ele></ele><time>2015-4-16T10:40:29Z</time></trkpt>
</trkseg></trk></gpx>